[[{"header":{"parameterUnit":"m.s-1","parameterCategory":1,"la1":31.0,"la2":29.5877,"lo1":-88.7671,"lo2":-86.6584,"dy":0.0162,"dx":0.0185,"nx":115,"ny":88,"refTime":"2023-04-19T00:00:00:Z","depth":0,"parameterNumber":2,"parameterNumberName":"U-component_of_WINDS"},"data":[0.0,0.0,0.0,0.0,0.0,0.0,0.0,0.0,0.0,0.0,0.0,0.0,0.0,0.0,0.0,0.0,0.0,0.0,0.0,0.0,0.0,0.0,0.0,0.0,0.0,0.0,0.0,0.0,0.0,0.0,0.0,0.0,0.0,0.0,0.0,0.0,0.0,0.0,0.0,0.0,0.0,0.0,0.0,0.0,0.0,0.0,0.0,0.0,0.0,0.0,0.0,0.0,0.0,0.0,0.0,0.0,0.0,0.0,0.0,0.0,0.0,0.0,0.0,0.0,0.0,0.0,0.0,0.0,0.0,0.0,0.0,0.0,0.0,0.0,0.0,0.0,0.0,0.0,0.0,0.0,0.0,0.0,0.0,0.0,0.0,0.0,0.0,0.0,0.0,0.0,0.0,0.0,0.0,0.0,0.0,0.0,0.0,0.0,0.0,0.0,0.0,0.0,0.0,0.0,0.0,0.0,0.0,0.0,0.0,0.0,0.0,0.0,0.0,0.0,0.0,0.0,0.0,0.0,0.0,0.0,0.0,0.0,0.0,0.0,0.0,0.0,0.0,0.0,0.0,0.0,0.0,0.0,0.0,0.0,0.0,0.0,0.0,0.0,0.0,0.0,0.0,0.0,0.0,0.0,0.0,0.0,0.0,0.0,0.0,0.0,0.0,0.0,0.0,0.0,0.0,0.0,0.0,0.0,0.0,0.0,0.0,0.0,0.0,0.0,0.0,0.0,0.0,0.0,0.0,0.0,0.0,0.0,0.0,0.0,0.0,0.0,0.0,0.0,0.0,0.0,0.0,0.0,0.0,0.0,0.0,0.0,0.0,0.0,0.0,0.0,0.0,0.0,0.0,0.0,0.0,0.0,0.0,0.0,0.0,0.0,0.0,0.0,0.0,0.0,0.0,0.0,0.0,0.0,0.0,0.0,0.0,0.0,0.0,0.0,0.0,0.0,0.0,0.0,0.0,0.0,0.0,0.0,0.0,0.0,0.0,0.0,0.0,0.0,0.0,0.0,0.0,0.0,0.0,0.0,0.0,0.0,0.0,0.0,0.0,0.0,0.0,0.0,0.0,0.0,0.0,0.0,0.0,0.0,0.0,0.0,0.0,0.0,0.0,0.0,0.0,0.0,0.0,0.0,0.0,0.0,0.0,0.0,0.0,0.0,0.0,0.0,0.0,0.0,0.0,0.0,0.0,0.0,0.0,0.0,0.0,0.0,0.0,0.0,0.0,0.0,0.0,0.0,0.0,0.0,0.0,0.0,0.0,0.0,0.0,0.0,0.0,0.0,0.0,0.0,0.0,0.0,0.0,0.0,0.0,0.0,0.0,0.0,0.0,0.0,0.0,0.0,0.0,0.0,0.0,0.0,0.0,0.0,0.0,0.0,0.0,0.0,0.0,0.0,0.0,0.0,0.0,0.0,0.0,0.0,0.0,0.0,0.0,0.0,0.0,0.0,0.0,0.0,0.0,0.0,0.0,0.0,0.0,0.0,0.0,0.0,0.0,0.0,0.0,0.0,0.0,0.0,0.0,0.0,0.0,0.0,0.0,0.0,0.0,0.0,0.0,0.0,0.0,0.0,0.0,0.0,0.0,0.0,0.0,0.0,0.0,0.0,0.0,0.0,0.0,0.0,0.0,0.0,0.0,0.0,0.0,0.0,0.0,0.0,0.0,0.0,0.0,0.0,0.0,0.0,0.0,0.0,0.0,0.0,0.0,0.0,0.0,0.0,0.0,0.0,0.0,0.0,0.0,0.0,0.0,0.0,0.0,0.0,0.0,0.0,0.0,0.0,0.0,0.0,0.0,0.0,0.0,0.0,0.0,0.0,0.0,0.0,0.0,0.0,0.0,0.0,0.0,0.0,0.0,0.0,0.0,0.0,0.0,0.0,0.0,0.0,0.0,0.0,0.0,0.0,0.0,0.0,0.0,0.0,0.0,0.0,0.0,0.0,0.0,0.0,0.0,0.0,0.0,0.0,0.0,0.0,0.0,0.0,0.0,0.0,0.0,0.0,0.0,0.0,0.0,0.0,0.0,0.0,0.0,0.0,0.0,0.0,0.0,0.0,0.0,0.0,0.0,0.0,0.0,0.0,0.0,0.0,0.0,0.0,0.0,0.0,0.0,0.0,0.0,0.0,0.0,0.0,0.0,0.0,0.0,0.0,0.0,0.0,0.0,0.0,0.0,0.0,0.0,0.0,0.0,0.0,0.0,0.0,0.0,0.0,0.0,0.0,0.0,0.0,0.0,0.0,0.0,0.0,0.0,0.0,0.0,0.0,0.0,0.0,0.0,0.0,0.0,0.0,0.0,0.0,0.0,0.0,0.0,0.0,0.0,0.0,0.0,0.0,0.0,0.0,0.0,0.0,0.0,0.0,0.0,0.0,0.0,0.0,0.0,0.0,0.0,0.0,0.0,0.0,0.0,0.0,0.0,0.0,0.0,0.0,0.0,0.0,0.0,0.0,0.0,0.0,0.0,0.0,0.0,0.0,0.0,0.0,0.0,0.0,0.0,0.0,0.0,0.0,0.0,0.0,0.0,0.0,0.0,0.0,0.0,0.0,0.0,0.0,0.0,0.0,0.0,0.0,0.0,0.0,0.0,0.0,0.0,0.0,0.0,0.0,0.0,0.0,0.0,0.0,0.0,0.0,0.0,0.0,0.0,0.0,0.0,0.0,0.0,0.0,0.0,0.0,0.0,0.0,0.0,0.0,0.0,0.0,0.0,0.0,0.0,0.0,0.0,0.0,0.0,0.0,0.0,0.0,0.0,0.0,0.0,0.0,0.0,0.0,0.0,0.0,0.0,0.0,0.0,0.0,0.0,0.0,0.0,0.0,0.0,0.0,0.0,0.0,0.0,0.0,0.0,0.0,0.0,0.0,0.0,0.0,0.0,0.0,0.0,0.0,0.0,0.0,0.0,0.0,0.0,0.0,0.0,0.0,0.0,0.0,0.0,0.0,0.0,0.0,0.0,0.0,0.0,0.0,0.0,0.0,0.0,0.0,0.0,0.0,0.0,0.0,0.0,0.0,0.0,0.0,0.0,0.0,0.0,0.0,0.0,0.0,0.0,0.0,0.0,0.0,0.0,0.0,0.0,0.0,0.0,0.0,0.0,0.0,0.0,0.0,0.0,0.0,0.0,0.0,0.0,0.0,0.0,0.0,0.0,0.0,0.0,0.0,0.0,0.0,0.0,0.0,0.0,0.0,0.0,0.0,0.0,0.0,0.0,0.0,0.0,0.0,0.0,0.0,0.0,0.0,0.0,0.0,0.0,0.0,0.0,0.0,0.0,0.0,0.0,0.0,0.0,0.0,0.0,0.0,0.0,0.0,0.0,0.0,0.0,0.0,0.0,0.0,0.0,0.0,0.0,0.0,0.0,0.0,0.0,0.0,0.0,0.0,0.0,0.0,0.0,0.0,0.0,0.0,0.0,0.0,0.0,0.0,0.0,0.0,0.0,0.0,0.0,0.0,0.0,0.0,0.0,0.0,0.0,0.0,0.0,0.0,0.0,0.0,0.0,0.0,0.0,0.0,0.0,0.0,0.0,0.0,0.0,0.0,0.0,0.0,0.0,0.0,0.0,0.0,0.0,0.0,0.0,0.0,0.0,0.0,0.0,0.0,0.0,0.0,0.0,0.0,0.0,0.0,0.0,0.0,0.0,0.0,0.0,0.0,0.0,0.0,0.0,0.0,0.0,0.0,0.0,0.0,0.0,0.0,0.0,0.0,0.0,0.0,0.0,0.0,0.0,0.0,0.0,0.0,0.0,0.0,0.0,0.0,0.0,0.0,0.0,0.0,0.0,0.0,0.0,0.0,0.0,0.0,0.0,0.0,0.0,0.0,0.0,0.0,0.0,0.0,0.0,0.0,0.0,0.0,0.0,0.0,0.0,0.0,0.0,0.0,0.0,0.0,0.0,0.0,0.0,0.0,0.0,0.0,0.0,0.0,0.0,0.0,0.0,0.0,0.0,0.0,0.0,0.0,0.0,0.0,0.0,0.0,0.0,0.0,0.0,0.0,0.0,0.0,0.0,0.0,0.0,0.0,0.0,0.0,0.0,0.0,0.0,0.0,0.0,0.0,0.0,0.0,0.0,0.0,0.0,0.0,0.0,0.0,0.0,0.0,0.0,0.0,0.0,0.0,0.0,0.0,0.0,0.0,0.0,0.0,0.0,0.0,0.0,0.0,0.0,0.0,0.0,0.0,0.0,0.0,0.0,0.0,0.0,0.0,0.0,0.0,0.0,0.0,0.0,0.0,0.0,0.0,-4.0113,0.0,0.0,0.0,0.0,0.0,0.0,0.0,0.0,0.0,0.0,0.0,0.0,0.0,0.0,0.0,0.0,0.0,0.0,0.0,0.0,0.0,0.0,0.0,0.0,0.0,0.0,0.0,0.0,0.0,0.0,0.0,0.0,0.0,0.0,0.0,0.0,0.0,0.0,0.0,0.0,0.0,0.0,0.0,0.0,0.0,0.0,0.0,0.0,0.0,0.0,0.0,0.0,0.0,0.0,0.0,0.0,0.0,0.0,0.0,0.0,0.0,0.0,0.0,0.0,0.0,0.0,0.0,0.0,0.0,0.0,0.0,0.0,0.0,0.0,0.0,0.0,0.0,0.0,0.0,0.0,0.0,0.0,0.0,0.0,0.0,0.0,0.0,0.0,0.0,0.0,0.0,0.0,0.0,0.0,0.0,0.0,0.0,0.0,0.0,0.0,0.0,0.0,0.0,0.0,0.0,0.0,0.0,0.0,0.0,0.0,-4.0113,-4.0113,-4.0113,-4.0113,-4.0113,0.0,0.0,0.0,0.0,0.0,0.0,0.0,0.0,0.0,0.0,0.0,0.0,0.0,0.0,0.0,0.0,0.0,0.0,0.0,0.0,0.0,0.0,0.0,0.0,0.0,0.0,0.0,0.0,0.0,0.0,0.0,0.0,0.0,0.0,0.0,0.0,0.0,0.0,0.0,0.0,0.0,0.0,0.0,0.0,0.0,0.0,0.0,0.0,0.0,0.0,0.0,0.0,0.0,0.0,0.0,0.0,0.0,0.0,0.0,0.0,0.0,0.0,0.0,0.0,0.0,0.0,0.0,0.0,0.0,0.0,0.0,0.0,0.0,0.0,0.0,0.0,0.0,0.0,0.0,0.0,0.0,0.0,0.0,0.0,0.0,0.0,0.0,0.0,0.0,0.0,0.0,0.0,0.0,0.0,0.0,0.0,0.0,0.0,0.0,0.0,0.0,0.0,0.0,0.0,0.0,0.0,0.0,0.0,0.0,0.0,0.0,0.0,-4.0113,-4.0113,-4.0113,0.0,0.0,0.0,0.0,0.0,0.0,0.0,0.0,0.0,0.0,0.0,0.0,0.0,0.0,0.0,0.0,0.0,0.0,0.0,0.0,0.0,0.0,0.0,0.0,0.0,0.0,0.0,0.0,0.0,0.0,0.0,0.0,0.0,0.0,0.0,0.0,0.0,0.0,0.0,0.0,0.0,0.0,0.0,0.0,0.0,0.0,0.0,0.0,0.0,0.0,0.0,0.0,0.0,0.0,0.0,0.0,0.0,0.0,0.0,0.0,0.0,0.0,0.0,0.0,0.0,0.0,0.0,0.0,0.0,0.0,0.0,0.0,0.0,0.0,0.0,0.0,0.0,0.0,0.0,0.0,0.0,0.0,0.0,0.0,0.0,0.0,0.0,0.0,0.0,0.0,0.0,0.0,0.0,0.0,0.0,0.0,0.0,0.0,0.0,0.0,0.0,0.0,0.0,0.0,0.0,0.0,0.0,0.0,0.0,0.0,-4.0113,-4.0113,-4.0113,0.0,-4.0113,0.0,0.0,0.0,0.0,0.0,0.0,0.0,0.0,0.0,0.0,0.0,0.0,0.0,0.0,0.0,0.0,0.0,0.0,0.0,0.0,0.0,0.0,0.0,0.0,0.0,0.0,0.0,0.0,0.0,0.0,0.0,0.0,0.0,0.0,0.0,0.0,0.0,0.0,0.0,0.0,0.0,0.0,0.0,0.0,0.0,0.0,0.0,0.0,0.0,0.0,0.0,0.0,0.0,0.0,0.0,0.0,0.0,0.0,0.0,0.0,0.0,0.0,0.0,0.0,0.0,0.0,0.0,0.0,0.0,0.0,0.0,0.0,0.0,0.0,0.0,0.0,0.0,0.0,0.0,0.0,0.0,0.0,0.0,0.0,0.0,0.0,0.0,0.0,0.0,0.0,0.0,0.0,0.0,0.0,0.0,0.0,0.0,0.0,0.0,0.0,0.0,0.0,0.0,0.0,0.0,0.0,0.0,0.0,0.0,0.0,-4.073,-4.073,-4.035,-4.0113,0.0,0.0,0.0,0.0,0.0,0.0,0.0,0.0,0.0,0.0,0.0,0.0,0.0,0.0,0.0,0.0,0.0,0.0,0.0,0.0,0.0,0.0,0.0,0.0,0.0,0.0,0.0,0.0,0.0,0.0,0.0,0.0,0.0,0.0,0.0,0.0,0.0,0.0,0.0,0.0,0.0,0.0,0.0,0.0,0.0,0.0,0.0,0.0,0.0,0.0,0.0,0.0,0.0,0.0,0.0,0.0,0.0,0.0,0.0,0.0,0.0,0.0,0.0,0.0,0.0,0.0,0.0,0.0,0.0,0.0,0.0,0.0,0.0,0.0,0.0,0.0,0.0,0.0,0.0,0.0,0.0,0.0,0.0,0.0,0.0,0.0,0.0,0.0,0.0,0.0,0.0,0.0,0.0,0.0,0.0,0.0,0.0,0.0,0.0,0.0,0.0,0.0,0.0,0.0,0.0,0.0,0.0,0.0,0.0,0.0,-4.1508,-4.1407,-4.1204,-4.0485,-4.0113,-4.0113,0.0,0.0,0.0,0.0,0.0,0.0,0.0,0.0,0.0,0.0,0.0,0.0,0.0,0.0,0.0,0.0,0.0,0.0,0.0,0.0,0.0,0.0,0.0,0.0,0.0,0.0,0.0,0.0,0.0,0.0,0.0,0.0,0.0,0.0,0.0,0.0,0.0,0.0,0.0,0.0,0.0,0.0,0.0,0.0,0.0,0.0,0.0,0.0,0.0,0.0,0.0,0.0,0.0,0.0,0.0,0.0,0.0,0.0,0.0,0.0,0.0,0.0,0.0,0.0,0.0,0.0,0.0,0.0,0.0,0.0,0.0,0.0,0.0,0.0,0.0,0.0,0.0,0.0,0.0,0.0,0.0,0.0,0.0,0.0,0.0,0.0,0.0,0.0,0.0,0.0,0.0,0.0,0.0,0.0,0.0,0.0,0.0,0.0,0.0,0.0,0.0,0.0,0.0,0.0,0.0,0.0,0.0,0.0,-4.2219,-4.2219,-4.1914,-4.1238,-4.046,-4.0113,0.0,0.0,0.0,0.0,0.0,0.0,0.0,0.0,0.0,0.0,0.0,0.0,0.0,0.0,0.0,0.0,0.0,0.0,0.0,0.0,0.0,0.0,0.0,0.0,0.0,0.0,0.0,0.0,0.0,0.0,0.0,0.0,0.0,0.0,0.0,0.0,0.0,0.0,0.0,0.0,0.0,0.0,0.0,0.0,0.0,0.0,0.0,0.0,0.0,0.0,0.0,0.0,0.0,0.0,0.0,0.0,0.0,0.0,0.0,0.0,0.0,0.0,0.0,0.0,0.0,0.0,0.0,0.0,0.0,0.0,0.0,0.0,0.0,0.0,0.0,0.0,0.0,0.0,0.0,0.0,0.0,0.0,0.0,0.0,0.0,0.0,0.0,0.0,0.0,0.0,0.0,0.0,0.0,0.0,0.0,0.0,0.0,0.0,0.0,0.0,0.0,0.0,0.0,0.0,0.0,0.0,0.0,0.0,0.0,-4.2963,-4.2557,-4.2151,-4.188,-4.0756,-4.0113,0.0,0.0,0.0,0.0,0.0,0.0,0.0,0.0,0.0,0.0,0.0,0.0,0.0,0.0,0.0,0.0,0.0,0.0,0.0,0.0,0.0,0.0,0.0,0.0,0.0,0.0,0.0,0.0,0.0,0.0,0.0,0.0,0.0,0.0,0.0,0.0,0.0,0.0,0.0,0.0,0.0,0.0,0.0,0.0,0.0,0.0,0.0,0.0,0.0,0.0,0.0,0.0,0.0,0.0,0.0,0.0,0.0,0.0,0.0,0.0,0.0,0.0,0.0,0.0,0.0,0.0,0.0,0.0,0.0,0.0,0.0,0.0,0.0,0.0,0.0,0.0,0.0,0.0,0.0,0.0,0.0,0.0,0.0,0.0,0.0,0.0,0.0,0.0,0.0,0.0,0.0,0.0,0.0,0.0,0.0,0.0,0.0,0.0,0.0,0.0,0.0,0.0,0.0,0.0,0.0,0.0,0.0,0.0,0.0,-4.3741,0.0,-4.2557,0.0,-4.1102,-4.035,0.0,0.0,0.0,0.0,0.0,0.0,0.0,0.0,0.0,0.0,0.0,0.0,0.0,0.0,0.0,0.0,0.0,0.0,0.0,0.0,0.0,0.0,0.0,0.0,0.0,0.0,0.0,0.0,0.0,0.0,0.0,0.0,0.0,0.0,0.0,0.0,0.0,0.0,0.0,0.0,0.0,0.0,0.0,0.0,0.0,0.0,0.0,0.0,0.0,0.0,0.0,0.0,0.0,0.0,0.0,0.0,0.0,0.0,0.0,0.0,0.0,0.0,0.0,0.0,0.0,0.0,0.0,0.0,0.0,0.0,0.0,0.0,0.0,0.0,0.0,0.0,0.0,0.0,0.0,0.0,0.0,0.0,0.0,0.0,0.0,0.0,0.0,0.0,0.0,0.0,0.0,0.0,0.0,0.0,0.0,0.0,0.0,0.0,0.0,0.0,0.0,0.0,0.0,0.0,0.0,0.0,0.0,0.0,-4.3809,-4.4513,-4.3809,-4.3031,-4.232,-4.1576,-4.0832,0.0,0.0,0.0,0.0,0.0,0.0,0.0,0.0,0.0,0.0,0.0,0.0,0.0,0.0,0.0,0.0,0.0,0.0,0.0,0.0,0.0,0.0,0.0,0.0,0.0,0.0,0.0,0.0,0.0,0.0,0.0,0.0,0.0,0.0,0.0,0.0,0.0,0.0,0.0,0.0,0.0,0.0,0.0,0.0,0.0,0.0,0.0,0.0,0.0,0.0,0.0,0.0,0.0,0.0,0.0,0.0,0.0,0.0,0.0,0.0,0.0,0.0,0.0,0.0,0.0,0.0,0.0,0.0,0.0,0.0,0.0,0.0,0.0,0.0,0.0,0.0,0.0,0.0,0.0,0.0,0.0,0.0,0.0,0.0,0.0,0.0,0.0,0.0,0.0,0.0,0.0,0.0,0.0,0.0,0.0,0.0,0.0,0.0,0.0,0.0,0.0,0.0,0.0,0.0,0.0,0.0,0.0,0.0,0.0,-4.4581,-4.3809,-4.3301,-4.3031,-4.1847,-4.1102,0.0,0.0,0.0,0.0,0.0,0.0,0.0,0.0,0.0,0.0,0.0,0.0,0.0,0.0,0.0,0.0,0.0,0.0,0.0,0.0,0.0,0.0,0.0,0.0,0.0,0.0,0.0,0.0,0.0,0.0,0.0,0.0,0.0,0.0,0.0,0.0,0.0,0.0,0.0,0.0,0.0,0.0,0.0,0.0,0.0,0.0,0.0,0.0,0.0,0.0,0.0,0.0,0.0,0.0,0.0,0.0,0.0,0.0,0.0,0.0,0.0,0.0,0.0,0.0,0.0,0.0,0.0,0.0,0.0,0.0,0.0,0.0,0.0,0.0,0.0,0.0,0.0,0.0,0.0,0.0,0.0,0.0,0.0,0.0,0.0,0.0,0.0,0.0,0.0,0.0,0.0,0.0,0.0,0.0,0.0,0.0,0.0,0.0,0.0,0.0,0.0,0.0,0.0,0.0,0.0,0.0,0.0,0.0,0.0,-4.5461,-4.5466,-4.5365,-4.5094,-4.391,-4.276,-4.1644,0.0,0.0,0.0,0.0,0.0,0.0,0.0,0.0,0.0,0.0,0.0,0.0,0.0,0.0,0.0,0.0,0.0,0.0,0.0,0.0,0.0,0.0,0.0,0.0,0.0,0.0,0.0,0.0,0.0,0.0,0.0,0.0,0.0,0.0,0.0,0.0,0.0,0.0,0.0,0.0,0.0,0.0,0.0,0.0,0.0,0.0,0.0,0.0,0.0,0.0,0.0,0.0,0.0,0.0,0.0,0.0,0.0,0.0,0.0,0.0,0.0,0.0,0.0,0.0,0.0,0.0,0.0,0.0,0.0,0.0,0.0,0.0,0.0,0.0,0.0,0.0,0.0,0.0,0.0,0.0,0.0,0.0,0.0,0.0,0.0,0.0,0.0,0.0,0.0,0.0,0.0,0.0,0.0,0.0,0.0,0.0,0.0,0.0,0.0,0.0,0.0,0.0,0.0,0.0,0.0,0.0,0.0,0.0,-4.709,-4.8511,-4.8849,-4.8007,-4.7192,-4.5466,0.0,0.0,0.0,0.0,0.0,0.0,0.0,0.0,0.0,0.0,0.0,0.0,0.0,0.0,0.0,0.0,0.0,0.0,0.0,0.0,0.0,0.0,0.0,0.0,0.0,0.0,0.0,0.0,0.0,0.0,0.0,0.0,0.0,0.0,0.0,0.0,0.0,0.0,0.0,0.0,0.0,0.0,0.0,0.0,0.0,0.0,0.0,0.0,0.0,0.0,0.0,0.0,0.0,0.0,0.0,0.0,0.0,0.0,0.0,0.0,0.0,0.0,0.0,0.0,0.0,0.0,0.0,0.0,0.0,0.0,0.0,0.0,0.0,0.0,0.0,0.0,0.0,0.0,0.0,0.0,0.0,0.0,0.0,0.0,0.0,0.0,0.0,0.0,0.0,0.0,0.0,0.0,0.0,0.0,0.0,0.0,0.0,0.0,0.0,0.0,0.0,0.0,0.0,0.0,0.0,0.0,0.0,0.0,0.0,-5.0777,-5.1826,-5.142,-4.956,-4.7733,-4.6413,0.0,0.0,0.0,0.0,0.0,0.0,0.0,0.0,0.0,0.0,0.0,0.0,0.0,0.0,0.0,0.0,0.0,0.0,0.0,0.0,0.0,0.0,0.0,0.0,0.0,0.0,0.0,0.0,0.0,0.0,0.0,0.0,0.0,0.0,0.0,0.0,0.0,0.0,0.0,0.0,0.0,0.0,0.0,0.0,0.0,0.0,0.0,0.0,0.0,0.0,0.0,0.0,0.0,0.0,0.0,0.0,0.0,0.0,0.0,0.0,0.0,0.0,0.0,0.0,0.0,0.0,0.0,0.0,0.0,0.0,0.0,0.0,0.0,0.0,0.0,0.0,0.0,0.0,0.0,0.0,0.0,0.0,0.0,0.0,0.0,0.0,0.0,0.0,0.0,0.0,0.0,0.0,0.0,0.0,0.0,0.0,0.0,0.0,0.0,0.0,0.0,0.0,0.0,0.0,0.0,0.0,0.0,0.0,-4.9461,-5.1792,-5.3551,-5.3788,-5.2503,-4.9999,-4.8206,0.0,0.0,0.0,0.0,0.0,0.0,0.0,0.0,0.0,0.0,0.0,0.0,0.0,0.0,0.0,0.0,0.0,0.0,0.0,0.0,0.0,0.0,0.0,0.0,0.0,0.0,0.0,0.0,0.0,0.0,0.0,0.0,0.0,0.0,0.0,0.0,0.0,0.0,0.0,0.0,0.0,0.0,0.0,0.0,0.0,0.0,0.0,0.0,0.0,0.0,0.0,0.0,0.0,0.0,0.0,0.0,0.0,0.0,0.0,0.0,0.0,0.0,0.0,0.0,0.0,0.0,0.0,0.0,0.0,0.0,0.0,0.0,0.0,0.0,0.0,0.0,0.0,0.0,0.0,0.0,0.0,0.0,0.0,0.0,0.0,0.0,0.0,0.0,0.0,0.0,0.0,0.0,0.0,0.0,0.0,0.0,0.0,0.0,0.0,0.0,0.0,0.0,0.0,0.0,0.0,0.0,0.0,0.0,-4.983,-5.1555,-5.4126,-5.5581,-5.5615,-5.2875,-5.0338,0.0,0.0,0.0,0.0,0.0,0.0,0.0,0.0,0.0,0.0,0.0,0.0,0.0,0.0,0.0,0.0,0.0,0.0,0.0,0.0,0.0,0.0,0.0,0.0,0.0,0.0,0.0,0.0,0.0,0.0,0.0,0.0,0.0,0.0,0.0,0.0,0.0,0.0,0.0,0.0,0.0,0.0,0.0,0.0,0.0,0.0,0.0,0.0,0.0,0.0,0.0,0.0,0.0,0.0,0.0,0.0,0.0,0.0,0.0,0.0,0.0,0.0,0.0,0.0,0.0,0.0,0.0,0.0,0.0,0.0,0.0,0.0,0.0,0.0,0.0,0.0,0.0,0.0,0.0,0.0,0.0,0.0,0.0,0.0,0.0,0.0,0.0,0.0,0.0,0.0,0.0,0.0,0.0,0.0,0.0,0.0,0.0,0.0,0.0,0.0,0.0,0.0,0.0,0.0,0.0,0.0,0.0,0.0,-5.0574,-5.3754,-5.3923,-5.4532,-5.5647,-5.3348,-5.1319,0.0,0.0,0.0,0.0,0.0,0.0,0.0,0.0,0.0,0.0,0.0,0.0,0.0,0.0,0.0,0.0,0.0,0.0,0.0,0.0,0.0,0.0,0.0,0.0,0.0,0.0,0.0,0.0,0.0,0.0,0.0,0.0,0.0,0.0,0.0,0.0,0.0,0.0,0.0,0.0,0.0,0.0,0.0,0.0,0.0,0.0,0.0,0.0,-5.0178,0.0,0.0,0.0,0.0,0.0,0.0,0.0,0.0,0.0,0.0,0.0,0.0,0.0,0.0,0.0,0.0,0.0,0.0,0.0,0.0,0.0,0.0,0.0,0.0,0.0,0.0,0.0,0.0,0.0,0.0,0.0,0.0,0.0,0.0,0.0,0.0,0.0,0.0,0.0,0.0,0.0,0.0,0.0,0.0,0.0,0.0,0.0,0.0,0.0,0.0,0.0,0.0,0.0,0.0,0.0,0.0,0.0,0.0,0.0,-5.115,-5.4431,-5.4228,-5.4397,-5.5108,-5.4025,-5.2334,0.0,0.0,0.0,0.0,0.0,0.0,0.0,0.0,0.0,0.0,0.0,0.0,0.0,0.0,0.0,0.0,0.0,0.0,0.0,0.0,0.0,0.0,0.0,0.0,0.0,0.0,0.0,0.0,0.0,0.0,0.0,0.0,0.0,0.0,0.0,0.0,0.0,0.0,0.0,0.0,0.0,0.0,0.0,0.0,0.0,0.0,0.0,0.0,0.0,0.0,0.0,0.0,0.0,0.0,0.0,0.0,0.0,0.0,0.0,0.0,0.0,0.0,0.0,0.0,0.0,0.0,0.0,0.0,0.0,0.0,0.0,0.0,0.0,0.0,0.0,0.0,0.0,0.0,0.0,0.0,0.0,0.0,0.0,0.0,0.0,0.0,0.0,0.0,0.0,0.0,0.0,0.0,0.0,0.0,0.0,0.0,0.0,0.0,0.0,0.0,0.0,0.0,0.0,0.0,0.0,0.0,0.0,-4.9763,-5.1555,-5.4431,-5.4499,-5.4431,-5.4465,-5.4499,-5.3144,-5.0297,0.0,0.0,0.0,0.0,0.0,0.0,0.0,0.0,0.0,0.0,0.0,0.0,0.0,0.0,0.0,0.0,0.0,0.0,0.0,0.0,0.0,0.0,0.0,0.0,0.0,0.0,0.0,0.0,0.0,0.0,0.0,0.0,0.0,0.0,0.0,0.0,0.0,0.0,-4.9831,-5.1263,0.0,0.0,0.0,0.0,0.0,0.0,0.0,0.0,-5.194,0.0,0.0,0.0,0.0,0.0,0.0,0.0,0.0,0.0,0.0,0.0,0.0,0.0,0.0,0.0,0.0,0.0,0.0,0.0,0.0,0.0,0.0,0.0,0.0,0.0,0.0,0.0,0.0,0.0,0.0,0.0,0.0,0.0,0.0,0.0,0.0,0.0,0.0,0.0,0.0,0.0,0.0,0.0,0.0,0.0,0.0,0.0,0.0,0.0,0.0,0.0,0.0,0.0,0.0,0.0,0.0,-4.9864,-5.0033,-5.1555,-5.4499,-5.4093,-5.382,-5.3854,-5.3988,-5.2961,-5.0673,0.0,0.0,0.0,0.0,0.0,0.0,0.0,0.0,0.0,0.0,0.0,0.0,0.0,0.0,0.0,0.0,0.0,0.0,0.0,0.0,0.0,0.0,0.0,0.0,0.0,0.0,0.0,0.0,0.0,0.0,0.0,0.0,0.0,0.0,0.0,0.0,0.0,0.0,0.0,-5.2417,-5.3298,0.0,0.0,0.0,0.0,0.0,0.0,0.0,0.0,-5.4002,0.0,0.0,0.0,0.0,0.0,0.0,0.0,0.0,0.0,0.0,0.0,0.0,0.0,0.0,0.0,0.0,0.0,0.0,0.0,0.0,0.0,0.0,0.0,0.0,0.0,0.0,0.0,0.0,0.0,0.0,0.0,0.0,0.0,0.0,0.0,0.0,0.0,0.0,0.0,0.0,0.0,0.0,0.0,0.0,0.0,0.0,0.0,0.0,0.0,0.0,0.0,0.0,0.0,0.0,0.0,-5.0574,-5.1454,-5.2739,-5.4499,-5.3991,-5.3921,-5.4295,-5.4121,-5.3158,0.0,0.0,0.0,0.0,0.0,0.0,0.0,0.0,0.0,0.0,0.0,0.0,0.0,0.0,0.0,0.0,0.0,0.0,0.0,0.0,0.0,0.0,0.0,0.0,0.0,0.0,0.0,0.0,0.0,0.0,0.0,0.0,0.0,0.0,0.0,0.0,0.0,0.0,0.0,0.0,-5.3665,-5.4876,-5.6088,0.0,0.0,0.0,0.0,0.0,0.0,-5.4399,-5.4574,0.0,0.0,0.0,0.0,0.0,0.0,0.0,0.0,0.0,0.0,0.0,0.0,0.0,0.0,0.0,0.0,0.0,0.0,0.0,0.0,0.0,0.0,0.0,0.0,0.0,0.0,0.0,0.0,0.0,0.0,0.0,0.0,0.0,0.0,0.0,0.0,0.0,0.0,0.0,0.0,0.0,0.0,0.0,0.0,0.0,0.0,0.0,0.0,0.0,0.0,0.0,0.0,0.0,0.0,0.0,-5.1216,-5.2636,-5.3788,-5.4635,-5.4091,-5.4191,-5.4974,-5.4117,-5.3217,0.0,0.0,0.0,0.0,0.0,0.0,0.0,0.0,0.0,0.0,0.0,0.0,0.0,0.0,0.0,0.0,0.0,0.0,0.0,0.0,0.0,0.0,0.0,0.0,0.0,0.0,0.0,0.0,0.0,0.0,0.0,0.0,0.0,0.0,0.0,0.0,0.0,0.0,0.0,0.0,0.0,-5.6235,-5.7336,-5.6014,0.0,0.0,0.0,0.0,-5.4546,-5.4766,0.0,0.0,0.0,0.0,0.0,0.0,0.0,0.0,0.0,0.0,0.0,0.0,0.0,0.0,0.0,0.0,0.0,0.0,0.0,0.0,0.0,0.0,0.0,0.0,0.0,0.0,0.0,0.0,0.0,0.0,0.0,0.0,0.0,0.0,0.0,0.0,0.0,0.0,0.0,0.0,0.0,0.0,0.0,0.0,0.0,0.0,0.0,0.0,0.0,0.0,0.0,0.0,0.0,0.0,0.0,0.0,-5.1405,-5.2452,-5.3608,-5.4938,-5.4454,-5.4552,-5.5272,-5.3441,-5.2674,0.0,0.0,0.0,0.0,0.0,0.0,0.0,0.0,0.0,0.0,0.0,0.0,0.0,0.0,0.0,0.0,0.0,0.0,0.0,0.0,0.0,0.0,0.0,0.0,0.0,0.0,0.0,0.0,0.0,0.0,0.0,0.0,0.0,0.0,0.0,0.0,0.0,0.0,0.0,0.0,0.0,-5.6492,-5.5963,-5.6271,-5.6051,0.0,0.0,-5.5354,-5.5427,-5.6051,0.0,0.0,0.0,0.0,0.0,0.0,0.0,0.0,0.0,0.0,0.0,0.0,0.0,0.0,0.0,0.0,0.0,0.0,0.0,0.0,0.0,0.0,0.0,0.0,0.0,0.0,0.0,0.0,0.0,0.0,0.0,0.0,0.0,0.0,0.0,0.0,0.0,0.0,0.0,0.0,0.0,0.0,0.0,0.0,0.0,0.0,0.0,0.0,0.0,0.0,0.0,0.0,0.0,0.0,0.0,-5.0694,-5.199,-5.4258,-5.5279,-5.494,-5.531,-5.5648,-5.6024,-5.4399,-5.346,0.0,0.0,0.0,0.0,0.0,0.0,0.0,0.0,0.0,0.0,0.0,0.0,0.0,0.0,0.0,0.0,0.0,0.0,0.0,0.0,0.0,0.0,0.0,0.0,0.0,0.0,0.0,0.0,0.0,0.0,0.0,0.0,0.0,0.0,0.0,0.0,0.0,0.0,0.0,0.0,0.0,0.0,-5.7005,-5.7262,0.0,0.0,0.0,-5.5633,-5.5633,0.0,0.0,0.0,0.0,0.0,0.0,0.0,0.0,0.0,0.0,0.0,0.0,0.0,0.0,0.0,0.0,0.0,0.0,0.0,0.0,0.0,0.0,0.0,0.0,0.0,0.0,0.0,0.0,0.0,0.0,0.0,0.0,0.0,0.0,0.0,0.0,0.0,0.0,0.0,0.0,0.0,0.0,0.0,0.0,0.0,0.0,0.0,0.0,0.0,0.0,0.0,0.0,0.0,0.0,0.0,0.0,0.0,-5.2769,-5.5655,-5.6645,-5.5655,-5.6232,-5.6675,-5.6812,-5.5533,0.0,0.0,0.0,0.0,0.0,0.0,0.0,0.0,0.0,0.0,0.0,0.0,0.0,0.0,0.0,0.0,0.0,0.0,0.0,0.0,0.0,0.0,0.0,0.0,0.0,0.0,0.0,-4.6182,0.0,0.0,0.0,0.0,0.0,0.0,0.0,0.0,0.0,0.0,0.0,0.0,0.0,0.0,-5.7703,-5.7703,-5.785,-5.7923,0.0,0.0,-5.5948,-5.5948,-5.6669,-5.6882,0.0,0.0,0.0,0.0,0.0,0.0,0.0,0.0,0.0,0.0,0.0,0.0,0.0,0.0,0.0,0.0,0.0,0.0,0.0,0.0,0.0,0.0,0.0,0.0,0.0,0.0,0.0,0.0,0.0,0.0,0.0,0.0,0.0,0.0,0.0,0.0,0.0,0.0,0.0,0.0,0.0,0.0,0.0,0.0,0.0,0.0,0.0,0.0,0.0,0.0,0.0,0.0,0.0,0.0,0.0,-5.3876,-5.565,-5.6951,-5.7635,-5.7082,-5.7082,-5.7737,-5.6324,-5.5184,0.0,0.0,0.0,0.0,0.0,0.0,0.0,0.0,0.0,0.0,0.0,0.0,0.0,0.0,0.0,0.0,0.0,0.0,0.0,0.0,0.0,0.0,0.0,0.0,0.0,0.0,0.0,0.0,0.0,0.0,0.0,0.0,0.0,0.0,0.0,0.0,0.0,0.0,0.0,0.0,0.0,-5.6895,-5.6895,-5.7519,-5.774,0.0,0.0,-5.6905,-5.6905,-5.7678,-5.7743,-5.6156,0.0,0.0,0.0,0.0,0.0,0.0,0.0,0.0,0.0,0.0,0.0,0.0,0.0,0.0,0.0,0.0,0.0,0.0,0.0,0.0,0.0,0.0,0.0,0.0,0.0,0.0,0.0,0.0,0.0,0.0,0.0,0.0,0.0,0.0,0.0,0.0,0.0,0.0,0.0,0.0,0.0,0.0,0.0,0.0,0.0,0.0,0.0,0.0,0.0,0.0,0.0,0.0,0.0,-5.2109,-5.3815,-5.6609,-5.7946,-5.774,-5.7979,-5.8081,-5.7909,-5.7322,-5.646,0.0,0.0,0.0,0.0,0.0,0.0,0.0,0.0,0.0,0.0,0.0,0.0,0.0,0.0,0.0,0.0,0.0,0.0,0.0,0.0,0.0,0.0,0.0,0.0,0.0,0.0,0.0,0.0,-5.0102,-5.092,-5.1861,0.0,0.0,0.0,0.0,0.0,0.0,0.0,0.0,0.0,0.0,-5.6969,-5.7483,-5.7813,0.0,0.0,-5.7138,-5.6912,-5.6978,-5.7302,-5.7183,-5.6166,-5.5636,0.0,0.0,0.0,0.0,0.0,0.0,0.0,0.0,0.0,0.0,0.0,0.0,0.0,0.0,0.0,0.0,0.0,0.0,0.0,0.0,0.0,0.0,0.0,0.0,0.0,0.0,0.0,0.0,0.0,0.0,0.0,0.0,0.0,0.0,0.0,0.0,0.0,0.0,0.0,0.0,0.0,0.0,0.0,0.0,0.0,0.0,0.0,0.0,0.0,0.0,0.0,0.0,-5.2413,-5.3882,-5.7226,-5.8634,-5.8015,-5.8668,-5.8771,-5.8254,-5.8254,-5.7529,0.0,0.0,0.0,0.0,0.0,0.0,0.0,0.0,0.0,0.0,0.0,0.0,0.0,0.0,0.0,0.0,0.0,0.0,0.0,0.0,0.0,0.0,0.0,0.0,0.0,0.0,0.0,0.0,-5.1487,-5.2334,-5.3007,0.0,0.0,0.0,0.0,0.0,0.0,0.0,0.0,0.0,0.0,-5.7116,-5.7886,-5.7997,-5.7997,-5.7997,-5.7624,-5.7214,-5.7044,-5.7109,-5.6937,-5.6253,0.0,0.0,0.0,0.0,0.0,0.0,0.0,0.0,0.0,0.0,0.0,0.0,0.0,0.0,0.0,0.0,0.0,0.0,0.0,0.0,0.0,0.0,0.0,0.0,0.0,0.0,0.0,0.0,0.0,0.0,-5.0991,0.0,0.0,0.0,0.0,0.0,0.0,0.0,0.0,0.0,0.0,0.0,0.0,0.0,0.0,0.0,0.0,0.0,0.0,0.0,0.0,0.0,0.0,-5.2413,-5.4274,-5.726,-5.8875,-5.8944,-5.9012,-5.9012,-5.8978,-5.8978,-5.8288,-5.6771,0.0,0.0,0.0,0.0,0.0,0.0,0.0,0.0,0.0,0.0,0.0,0.0,0.0,0.0,0.0,0.0,0.0,0.0,0.0,0.0,0.0,0.0,0.0,0.0,0.0,0.0,-4.9579,-5.1836,-5.3303,0.0,0.0,0.0,0.0,0.0,0.0,0.0,0.0,0.0,0.0,-5.6271,-5.7079,-5.785,-5.796,-5.7923,-5.796,-5.8164,-5.8039,-5.7227,-5.7307,-5.7192,0.0,0.0,0.0,0.0,0.0,0.0,0.0,0.0,0.0,0.0,0.0,0.0,0.0,0.0,0.0,0.0,0.0,0.0,0.0,0.0,0.0,0.0,0.0,0.0,0.0,0.0,0.0,-5.4498,-5.4974,0.0,0.0,0.0,0.0,0.0,0.0,0.0,0.0,0.0,0.0,0.0,-5.6765,-5.6799,0.0,0.0,0.0,0.0,0.0,0.0,0.0,0.0,0.0,0.0,0.0,0.0,-5.3053,-5.4375,-5.7361,-5.8944,-5.9012,-5.9012,-5.9012,-5.9012,-5.9012,-5.8323,-5.684,0.0,0.0,0.0,0.0,0.0,0.0,0.0,0.0,0.0,0.0,0.0,0.0,0.0,0.0,0.0,0.0,0.0,0.0,0.0,0.0,0.0,0.0,0.0,0.0,0.0,-5.0223,0.0,0.0,0.0,0.0,0.0,0.0,0.0,0.0,0.0,0.0,0.0,-5.4913,-5.6235,-5.5721,-5.5684,-5.7005,-5.6748,-5.6602,0.0,0.0,0.0,0.0,0.0,0.0,0.0,0.0,0.0,0.0,0.0,0.0,0.0,0.0,-5.4463,-5.3905,-5.4277,-5.4648,-5.4648,0.0,0.0,0.0,0.0,0.0,0.0,0.0,0.0,0.0,0.0,0.0,0.0,0.0,0.0,-5.7561,0.0,-5.7682,0.0,0.0,0.0,0.0,0.0,0.0,0.0,0.0,-5.8829,-5.9505,-5.9471,-5.9438,-5.893,0.0,-5.7205,-5.5751,0.0,0.0,0.0,0.0,0.0,0.0,0.0,0.0,-5.359,-5.4817,-5.7531,-5.9012,-5.9012,-5.9012,-5.9012,-5.9012,-5.9012,-5.8564,-5.7598,-5.6564,-5.5115,0.0,0.0,0.0,0.0,0.0,0.0,0.0,0.0,0.0,0.0,0.0,0.0,0.0,0.0,0.0,0.0,0.0,0.0,0.0,0.0,0.0,0.0,0.0,-5.1458,0.0,0.0,0.0,0.0,0.0,0.0,0.0,0.0,0.0,-5.4399,-5.4656,-5.5207,-5.6235,-5.5721,-5.55,-5.6271,0.0,0.0,0.0,0.0,0.0,0.0,0.0,-5.6611,-5.6709,-5.6729,-5.6729,-5.6729,-5.6506,-5.632,-5.632,0.0,0.0,-5.5614,-5.5912,-5.632,-5.632,-5.632,-5.632,-5.632,-5.632,-5.632,0.0,0.0,0.0,0.0,0.0,0.0,0.0,0.0,-5.9972,-5.9679,0.0,-5.9869,0.0,0.0,0.0,0.0,0.0,-5.8389,0.0,0.0,-6.3091,-6.3802,-6.2448,-6.2381,-6.1637,-6.0182,-5.9471,-5.8838,-5.8205,-5.62,0.0,0.0,0.0,0.0,0.0,0.0,-5.406,-5.5635,-5.7841,-5.9012,-5.9012,-5.9012,-5.9012,-5.9012,-5.9012,-5.8978,-5.8944,-5.7633,-5.684,-5.6736,-5.3977,0.0,0.0,0.0,0.0,0.0,0.0,0.0,0.0,0.0,0.0,0.0,0.0,0.0,0.0,0.0,0.0,0.0,0.0,0.0,0.0,-5.1409,0.0,0.0,0.0,0.0,0.0,0.0,0.0,0.0,0.0,0.0,-5.4473,-5.5097,-5.5633,-5.5669,0.0,0.0,0.0,0.0,-5.7629,-5.6932,-5.7648,-5.7987,-5.7211,-5.7328,-5.7509,-5.7472,0.0,0.0,-5.7546,-5.6878,-5.6357,-5.6357,-5.6952,-5.7212,-5.6432,-5.632,-5.6395,-5.6357,-5.6357,-5.632,-5.632,-5.632,-5.632,-6.0488,0.0,0.0,0.0,0.0,-5.9834,-6.1126,-6.2966,-6.3006,-6.2993,-6.291,-6.2646,0.0,0.0,0.0,0.0,0.0,0.0,-6.1332,-6.255,-6.3429,-6.3599,-6.3193,-6.3193,-6.2685,-6.1738,-6.1689,-6.1605,-6.1559,-6.0613,-5.8184,-5.446,0.0,0.0,0.0,0.0,-5.5298,-5.6495,-5.815,-5.9012,-5.9012,-5.9012,-5.9012,-5.9012,-5.9012,-5.9012,-5.9012,-5.8599,-5.7874,-5.684,-5.5977,0.0,0.0,0.0,0.0,0.0,0.0,0.0,0.0,0.0,0.0,0.0,0.0,0.0,0.0,0.0,0.0,0.0,0.0,0.0,-5.1305,-5.3362,-5.4118,0.0,0.0,0.0,0.0,0.0,0.0,0.0,0.0,0.0,-5.5244,-5.5449,-5.5794,0.0,0.0,-5.6051,-5.6418,-5.6345,-5.6418,-5.6748,-5.6728,0.0,0.0,-5.7328,-5.7509,-5.7509,-5.7992,-5.8364,-5.8364,-5.7695,-5.7138,-5.7175,-5.6878,-5.658,-5.6395,-5.6766,-5.71,-5.7138,-5.6692,-5.632,-5.632,-5.632,-5.6469,-6.3829,-6.1553,-6.1092,-6.1361,-6.2146,-6.2482,-6.3605,-6.5327,-6.5294,-6.52,-6.5019,-6.4884,-6.3869,-6.2144,-6.1366,0.0,0.0,0.0,-6.326,-6.4377,-6.4377,-6.4241,-6.3937,-6.3666,-6.3125,-6.2454,-6.2498,-6.2731,-6.2966,-6.2361,-6.0516,-5.7638,0.0,0.0,-5.448,-5.5745,-5.6672,-5.7253,-5.8426,-5.9012,-5.9012,-5.9012,-5.9012,-5.9012,-5.9012,-5.9012,-5.9012,-5.9012,-5.8599,-5.7702,-5.7391,-5.6495,0.0,0.0,0.0,0.0,0.0,0.0,0.0,0.0,0.0,0.0,0.0,-5.07,0.0,0.0,0.0,0.0,-5.1776,-5.2474,-5.3472,-5.4813,0.0,0.0,0.0,0.0,0.0,0.0,0.0,-5.4216,-5.4987,-5.5633,-5.5633,-5.5868,-5.6235,-5.6748,-5.6381,-5.6124,-5.6308,0.0,-5.6706,-5.6785,-5.686,-5.7069,-5.7544,-5.7846,-5.7971,-5.7992,-5.8364,-5.8698,-5.864,-5.8066,-5.7546,-5.7398,-5.684,-5.632,-5.632,-5.6469,-5.6655,-5.6952,-5.6655,-5.632,-5.632,-5.632,-5.6543,-6.5967,-6.4607,-6.3564,-6.359,-6.436,-6.5101,-6.5935,-6.6711,-6.6779,-6.644,-6.5831,-6.6508,-6.5696,-6.3768,-6.3057,0.0,-6.3802,-6.4478,-6.5087,-6.5696,-6.5628,-6.5222,-6.4478,-6.3768,-6.3057,-6.2415,-6.242,-6.2615,-6.2966,-6.2282,-6.175,-6.1461,-6.0082,-5.8496,-5.6847,-5.7566,-5.8012,-5.8012,-5.8668,-5.9012,-5.9012,-5.9012,-5.9012,-5.9012,-5.9012,-5.9012,-5.9012,-5.9012,-5.9012,-5.8978,-5.8357,-5.7667,-5.6874,0.0,0.0,0.0,0.0,0.0,0.0,0.0,0.0,0.0,0.0,0.0,0.0,0.0,0.0,0.0,-5.4704,0.0,-5.6057,-5.6,0.0,0.0,0.0,-5.5536,-5.5611,-5.5647,-5.5669,-5.5633,0.0,0.0,-5.5684,-5.6345,-5.6822,-5.6895,-5.6895,-5.6638,-5.5904,-5.7132,-5.7876,-5.7065,-5.781,-5.8428,-5.8326,-5.8513,-5.8624,-5.8624,-5.8661,-5.8549,-5.8475,-5.7769,-5.736,-5.7212,-5.6655,-5.606,-5.6097,-5.5429,-5.5169,-5.5949,-5.606,-5.606,-5.5986,-5.5986,-5.6209,-6.6271,-6.5425,-6.514,-6.4829,-6.46,-6.5309,-6.5756,-6.6,-6.6576,-6.6711,-6.6542,-6.6745,-6.6508,-6.6,-6.5831,-6.5865,-6.6034,-6.6203,-6.6068,-6.5662,-6.5121,-6.4478,-6.3768,-6.299,-6.2584,-6.2415,-6.2537,-6.277,-6.2966,-6.2946,-6.2962,-6.3048,-6.2668,-6.1115,-5.8496,-5.8634,-5.8737,-5.8737,-5.8944,-5.9012,-5.9012,-5.9012,-5.9012,-5.9012,-5.9012,-5.9012,-5.9012,-5.9012,-5.9012,-5.9012,-5.884,-5.8426,-5.7667,-5.6012,0.0,0.0,0.0,0.0,0.0,0.0,0.0,0.0,0.0,-5.2597,-5.157,0.0,-5.4027,0.0,-5.6524,-5.8005,-5.7684,-5.8609,0.0,0.0,-5.6466,-5.6249,-5.5706,-5.6161,-5.6308,-5.5669,-5.6124,-5.6528,-5.6528,-5.6675,-5.7005,-5.7629,-5.7703,-5.7629,-5.7483,-5.7726,-5.8029,-5.7913,-5.8179,-5.8422,-5.8486,-5.8593,-5.8661,-5.8677,-5.8215,-5.7806,-5.7806,-5.658,-5.5558,-5.554,-5.4946,-5.4463,-5.4463,-5.4203,-5.4203,-5.4351,-5.4426,-5.4388,-5.4388,-5.4426,-5.4834,-6.6373,-6.5662,-6.5358,-6.4783,-6.4174,-6.4918,-6.5222,-6.5256,-6.6,-6.6305,-6.6339,-6.6677,-6.6643,-6.6305,-6.6305,-6.6136,-6.5831,-6.5831,-6.5595,-6.5189,-6.4444,-6.3903,-6.3497,-6.2753,-6.2415,-6.2381,-6.2498,-6.2693,-6.3,-6.3114,-6.3302,-6.36,-6.36,-6.2393,-6.0151,-6.0047,-5.9702,-5.9012,-5.9012,-5.9012,-5.9012,-5.9012,-5.884,-5.853,-5.853,-5.8357,-5.8047,-5.8047,-5.8012,-5.8047,-5.8079,-5.7906,-5.7491,-5.6136,-5.5019,0.0,0.0,0.0,0.0,0.0,0.0,0.0,0.0,0.0,0.0,0.0,-5.5513,-5.5816,-5.8212,-5.9511,-5.9041,-5.9481,-5.9223,-5.7904,-5.751,-5.7152,-5.6712,-5.7042,-5.7152,-5.6712,-5.7042,-5.7336,-5.7336,-5.7336,-5.7483,-5.796,-5.8042,-5.8088,-5.8088,-5.8088,-5.8133,-5.8282,-5.8356,-5.8465,-5.8572,-5.8359,-5.8178,-5.8103,-5.7509,-5.6989,-5.6952,-5.5912,-5.5,-5.4926,-5.4332,-5.3794,-5.3794,-5.3794,-5.3794,-5.3794,-5.3794,-5.3794,-5.3794,-5.3794,-5.4314,-6.6237,-6.5493,-6.4749,-6.4038,-6.3429,-6.414,-6.4512,-6.4647,-6.5459,-6.5831,-6.5865,-6.6508,-6.644,-6.5831,-6.573,-6.5358,-6.4749,-6.4647,-6.4546,-6.441,-6.3802,-6.3463,-6.3362,-6.2685,-6.2415,-6.2415,-6.242,-6.2654,-6.3,-6.3038,-6.3227,-6.36,-6.3496,-6.2737,-6.1358,-6.122,-6.0427,-5.9047,-5.9012,-5.9012,-5.9012,-5.8909,-5.8564,-5.7943,-5.7805,-5.746,-5.684,-5.6805,-5.6805,-5.6838,-5.6934,-5.7099,-5.723,-5.6067,-5.5484,0.0,-5.4384,0.0,0.0,0.0,0.0,0.0,0.0,0.0,0.0,-5.6191,-5.6918,-5.825,-5.961,-6.0366,-6.0197,-5.9591,-5.9175,-5.9184,-5.8584,-5.8107,-5.7997,-5.7997,-5.7997,-5.7997,-5.7997,-5.7997,-5.796,-5.7997,-5.7997,-5.802,-5.8111,-5.8201,-5.8223,-5.8223,-5.8282,-5.8393,-5.8465,-5.8572,-5.8582,-5.8029,-5.7546,-5.7435,-5.6729,-5.6172,-5.6134,-5.5391,-5.4834,-5.476,-5.424,-5.3831,-5.3794,-5.3794,-5.3794,-5.3794,-5.3794,-5.3794,-5.3794,-5.3794,-5.4314,-6.5459,-6.4749,-6.4005,-6.3294,-6.2685,-6.3396,-6.4072,-6.4715,-6.6034,-6.6609,-6.6609,-6.6745,-6.6745,-6.6542,-6.5967,-6.5595,-6.5459,-6.4884,-6.4275,-6.3734,-6.3565,-6.3193,-6.2618,-6.2448,-6.2415,-6.242,-6.2571,-6.277,-6.3,-6.3152,-6.3377,-6.3565,-6.2979,-6.222,-6.1323,0.0,0.0,0.0,-5.9012,-5.9012,-5.8978,-5.8426,-5.8047,-5.7909,-5.7322,0.0,-5.6805,-5.6805,-5.6836,-5.6967,-5.6965,0.0,0.0,0.0,0.0,0.0,0.0,0.0,0.0,0.0,0.0,0.0,-5.8511,-5.8169,-5.764,-5.8287,-5.9222,-6.03,-6.0212,-6.0427,-6.1202,-6.0591,-5.9858,-5.9258,-5.9038,-5.8731,-5.807,-5.7997,-5.7997,-5.7997,-5.7997,-5.7997,-5.7997,-5.7997,-5.8042,-5.8111,-5.8179,-5.8268,-5.8422,-5.8378,-5.8371,-5.8393,-5.8529,-5.8656,-5.8677,-5.8029,-5.7509,-5.7323,-5.6209,-5.5354,-5.5206,-5.4611,-5.4054,-5.4054,-5.3905,-5.3794,-5.3794,-5.3794,-5.3794,-5.3794,-5.3794,-5.3794,-5.3794,-5.3794,-5.411,-6.5459,0.0,-6.3971,-6.3497,0.0,-6.3903,-6.4478,-6.5155,-6.5561,-6.5933,-6.6271,-6.6643,-6.6609,-6.6203,-6.5493,-6.4952,-6.458,-6.3835,-6.3328,-6.2956,-6.2956,-6.2753,-6.2381,-6.2498,-6.2537,-6.2537,-6.2731,-6.2962,-6.3152,-6.3227,-6.3414,-6.36,-6.2841,-6.2082,-6.1289,-6.0185,-5.9426,-5.9012,-5.9012,-5.9012,-5.8978,-5.8668,-5.8288,-5.7909,0.0,0.0,0.0,0.0,0.0,0.0,0.0,0.0,0.0,0.0,0.0,-5.9114,-5.8808,-5.8907,-5.9496,-5.9595,-5.9973,-6.0877,-6.1028,-6.0674,-5.9657,-6.0503,-6.1313,-6.1806,-6.1224,-6.1031,-6.1484,-6.0529,-5.9648,-5.9221,-5.8817,-5.8437,-5.807,-5.7997,-5.7997,-5.7997,-5.7997,-5.7997,-5.7997,-5.8065,-5.8111,-5.8215,-5.829,-5.8378,-5.8422,-5.8437,-5.8415,-5.848,-5.8572,-5.8677,-5.8624,-5.8029,-5.7323,-5.6878,-5.5837,-5.4926,-5.4463,-5.4091,-5.3794,-5.3794,-5.3794,-5.3794,-5.3794,-5.3794,-5.3794,-5.3794,-5.3794,-5.3794,-5.3794,-5.3794,-5.4073,-6.5425,-6.5189,-6.3869,-6.3734,-6.441,-6.4546,-6.4918,-6.5459,0.0,0.0,0.0,-6.6474,-6.6406,-6.5662,-6.4918,-6.4275,-6.3666,-6.2787,-6.2415,-6.2415,-6.2415,-6.2415,-6.2381,-6.2537,-6.2654,-6.2693,-6.2885,-6.3114,-6.3302,-6.334,-6.3383,-6.3358,-6.2634,-6.1806,-6.0875,-5.9633,-5.9012,-5.9012,-5.9012,-5.9012,-5.9012,-5.8909,-5.853,-5.7909,-5.7771,-5.7426,-5.684,-5.6805,-5.6838,-5.6871,-5.76,-5.8124,-5.8384,-5.9079,-5.9646,-5.9977,-6.0013,-6.0425,-6.1416,-6.1478,-6.1883,-6.2743,-6.2805,-6.2361,-6.1386,-6.2263,-6.2805,-6.2805,-6.2071,-6.1557,-6.141,-6.0089,-5.9111,-5.9001,-5.84,-5.7997,-5.7997,-5.7997,-5.7997,-5.7997,-5.7997,-5.802,-5.8042,-5.8111,-5.8201,-5.8268,-5.84,-5.8471,-5.848,-5.8459,-5.8443,-5.8529,-5.8635,-5.8677,-5.8586,-5.8029,-5.7249,-5.6469,-5.5614,-5.4723,-5.4054,-5.3794,-5.3794,-5.3794,-5.3794,-5.3794,-5.3794,-5.3794,-5.3794,-5.3794,-5.3794,-5.3794,-5.3794,-5.3813,-5.4074,-6.441,-6.3768,-6.2888,-6.299,-6.3734,-6.4343,-6.4647,-6.485,-6.6,-6.6203,-6.573,-6.6474,-6.6406,-6.5628,-6.4918,-6.4546,-6.4343,-6.299,-6.2415,-6.2415,-6.2415,-6.2415,-6.2381,-6.242,-6.2537,-6.2693,-6.2923,-6.3114,-6.3302,-6.3489,-6.3255,-6.2634,-6.1841,-6.0771,-5.9426,-5.9116,-5.9012,-5.9012,-5.9012,-5.9012,-5.8978,-5.8392,-5.8012,-5.7874,-5.7322,-5.6909,-5.6805,-5.6805,-5.6871,-5.6999,-5.7631,-5.855,-5.9717,-6.0395,-6.1199,-6.2226,-6.2325,-6.2386,-6.2547,-6.2608,-6.2645,-6.278,-6.2805,-6.2504,-6.1887,-6.2391,-6.2805,-6.2768,-6.2071,-6.13,-6.0639,-5.9758,-5.8927,-5.829,-5.807,-5.7997,-5.7997,-5.7997,-5.7997,-5.7997,-5.7997,-5.8042,-5.8111,-5.8215,-5.8268,-5.8422,-5.8449,-5.8513,-5.8593,-5.8551,-5.8551,-5.8635,-5.8677,-5.8677,-5.8624,-5.8029,-5.7286,-5.6432,-5.5614,-5.4797,-5.3943,-5.3794,-5.3794,-5.3794,-5.3794,-5.3794,-5.3794,-5.3794,-5.3794,-5.3794,-5.3794,-5.3794,-5.3794,-5.3907,-5.4038,-6.3835,-6.3429,-6.2719,-6.2821,-6.3565,-6.4275,-6.4816,-6.5256,-6.5899,-6.5797,-6.5155,-6.5459,-6.5628,-6.5595,-6.4512,-6.4005,-6.3971,-6.2888,-6.2415,-6.242,-6.2498,-6.2537,-6.261,-6.277,-6.2923,-6.3038,-6.3227,-6.3377,-6.3452,-6.3563,-6.3427,-6.3013,-6.191,-6.0737,-5.9702,-5.9219,-5.9012,-5.9012,-5.9012,-5.9012,-5.9012,-5.8702,-5.8495,-5.8495,-5.8482,-5.8539,-5.8572,-5.8854,-5.9069,-5.9131,-5.9763,-6.0439,-6.1052,-6.1656,-6.2226,-6.2743,-6.2805,-6.2805,-6.2805,-6.2805,-6.2805,-6.2805,-6.2805,-6.2705,-6.2412,-6.2654,-6.2805,-6.2768,-6.2071,-6.1263,-6.0456,-5.9661,-5.8914,-5.807,-5.7997,-5.7997,-5.7997,-5.7997,-5.7997,-5.7997,-5.7997,-5.802,-5.8088,-5.8238,-5.8349,-5.8422,-5.8529,-5.8635,-5.8677,-5.8656,-5.8635,-5.8677,-5.8677,-5.8677,-5.8661,-5.8438,-5.7658,-5.6543,-5.5986,-5.5206,-5.4128,-5.3794,-5.3794,-5.3794,-5.3794,-5.3794,-5.3794,-5.3794,-5.3794,-5.3794,-5.3794,-5.3794,-5.3813,-5.3907,-5.4055,-6.3802,-6.3463,-6.3057,-6.3226,-6.3802,-6.4343,-6.4816,-6.5155,-6.5019,-6.4715,-6.441,-6.4681,-6.4986,-6.5053,-6.4005,-6.3531,-6.3429,-6.2719,-6.2415,-6.2454,-6.2537,-6.2649,-6.2688,-6.3,-6.3189,-6.3265,-6.3452,-6.3563,-6.36,-6.36,-6.3496,-6.322,-6.1979,-6.0909,-6.0185,-5.9599,-5.9288,-5.9254,-5.9116,-5.9012,-5.9012,-5.9012,-5.9012,-5.9047,-5.9483,-5.9809,-6.0001,-6.0468,-6.0766,-6.0944,-6.1528,-6.1897,-6.1924,-6.2464,-6.2805,-6.2805,-6.2805,-6.2805,-6.2805,-6.2805,-6.2805,-6.2805,-6.2805,-6.2805,-6.2805,-6.2805,-6.2805,-6.2732,-6.2254,-6.152,-6.0566,-5.9881,-5.9098,-5.8143,-5.7997,-5.7997,-5.7997,-5.7997,-5.7997,-5.7997,-5.7997,-5.802,-5.8125,-5.8282,-5.8415,-5.8502,-5.863,-5.8677,-5.8677,-5.8677,-5.8677,-5.8677,-5.8677,-5.8677,-5.8677,-5.8475,-5.7769,-5.6506,-5.606,-5.528,-5.4203,-5.3794,-5.3794,-5.3794,-5.3794,-5.3794,-5.3794,-5.3794,-5.3794,-5.3794,-5.3813,-5.3888,-5.3926,-5.4018,-5.4163,-6.4681,-6.37,-6.4072,-6.4444,-6.4478,-6.458,-6.4275,-6.3734,-6.3024,-6.3057,-6.37,-6.4986,-6.485,-6.3802,-6.3565,-6.3497,-6.3429,-6.2719,-6.2415,-6.2381,-6.242,-6.242,-6.2493,-6.2654,-6.2847,-6.3038,-6.3265,-6.3452,-6.36,-6.36,-6.3255,-6.2565,-6.1737,-6.0978,-6.0289,-6.0116,-6.0082,-6.0082,-5.9392,-5.9012,-5.9012,-5.9012,-5.9012,-5.9012,-5.9081,-5.9383,-6.0001,-6.0065,-6.0344,-6.0915,-6.1556,-6.1897,-6.1978,-6.2464,-6.2805,-6.2805,-6.2805,-6.2805,-6.2805,-6.2805,-6.2805,-6.2805,-6.2805,-6.2805,-6.2805,-6.2805,-6.2805,-6.2732,-6.2695,-6.1961,-6.0639,-6.0272,-5.9538,-5.818,-5.7997,-5.7997,-5.7997,-5.7997,-5.7997,-5.7997,-5.802,-5.8065,-5.8282,-5.8371,-5.848,-5.8593,-5.8656,-5.8677,-5.8677,-5.8677,-5.8677,-5.8677,-5.8677,-5.8677,-5.8603,-5.8066,-5.736,-5.6469,-5.5652,-5.4871,-5.4128,-5.3794,-5.3794,-5.3794,-5.3794,-5.3794,-5.3794,-5.3794,-5.3794,-5.3869,-5.3926,-5.4019,-5.4202,-5.4273,-5.4271,-6.3666,-6.3531,-6.3835,-6.4208,-6.4512,-6.414,-6.3802,-6.3497,-6.3193,-6.299,-6.2956,-6.3937,-6.4072,-6.3497,-6.3057,-6.2854,-6.2821,-6.2516,-6.2459,-6.2576,-6.2693,-6.2808,-6.2962,-6.3152,-6.3302,-6.3377,-6.3452,-6.3526,-6.36,-6.36,-6.3427,-6.3082,-6.2393,-6.1634,-6.0909,-6.084,-6.0634,-6.022,-6.0323,-6.0151,-5.9702,-5.9254,-5.9012,-5.9081,-5.9709,-6.0251,-6.0555,-6.1207,-6.1778,-6.1996,-6.2308,-6.2438,-6.2438,-6.2679,-6.2805,-6.2805,-6.2805,-6.2805,-6.2805,-6.2805,-6.2805,-6.2805,-6.2805,-6.2805,-6.2805,-6.2805,-6.2622,-6.2181,-6.2108,-6.1594,-6.0529,-5.9979,-5.9245,-5.8217,-5.7997,-5.7997,-5.7997,-5.7997,-5.7997,-5.7997,-5.8065,-5.8133,-5.8246,-5.8378,-5.8508,-5.8656,-5.8677,-5.8677,-5.8677,-5.8677,-5.8677,-5.8677,-5.8677,-5.8677,-5.8624,-5.8029,-5.7249,-5.6432,-5.5577,-5.474,-5.4054,-5.3794,-5.3794,-5.3794,-5.3794,-5.3794,-5.3794,-5.3794,-5.3794,-5.3907,-5.4,-5.411,-5.4273,-5.4308,-5.4306,-6.3193,-6.3497,-6.3491,-6.4038,-6.4816,-6.3903,-6.3491,-6.3497,-6.3294,-6.2888,-6.2482,-6.299,-6.3312,-6.3367,-6.2736,-6.2498,-6.2659,-6.2697,-6.2928,-6.3271,-6.3422,-6.357,-6.3752,-6.4003,-6.404,-6.4076,-6.4147,-6.4075,-6.3895,-6.3894,-6.3785,-6.3533,-6.3048,-6.2501,-6.1952,-6.1883,-6.171,-6.1464,-6.1743,-6.1708,-6.1324,-6.0384,-5.9592,-5.9183,-6.0093,-6.0736,-6.0944,-6.1978,-6.2618,-6.278,-6.2805,-6.2805,-6.2805,-6.2805,-6.2805,-6.2805,-6.2805,-6.2805,-6.2805,-6.2805,-6.2805,-6.2805,-6.2805,-6.2805,-6.2805,-6.2805,-6.2438,-6.1741,-6.141,-6.0933,-6.0162,-5.9551,-5.8877,-5.8107,-5.7997,-5.7997,-5.7997,-5.7997,-5.802,-5.8042,-5.817,-5.8201,-5.829,-5.8443,-5.8614,-5.8677,-5.8677,-5.8677,-5.8677,-5.8677,-5.8677,-5.8677,-5.8677,-5.8677,-5.8624,-5.7769,-5.6989,-5.632,-5.5466,-5.4426,-5.3905,-5.3831,-5.3794,-5.3794,-5.3794,-5.3794,-5.3794,-5.3794,-5.3851,-5.4,-5.411,-5.42,-5.4288,-5.4306,-5.434,-6.4106,-6.3565,-6.3491,-6.4383,-6.5534,-6.4106,-6.3497,-6.3475,-6.2792,-6.2454,-6.2459,-6.2566,-6.2881,-6.3452,-6.2847,-6.2813,-6.342,-6.3494,-6.3898,-6.453,-6.4633,-6.4767,-6.4933,-6.5133,-6.5202,-6.5103,-6.5234,-6.5105,-6.4601,-6.4566,-6.4218,-6.3675,-6.3608,-6.3516,-6.3341,-6.3338,-6.3672,-6.391,-6.3547,-6.3569,-6.3926,-6.275,-6.103,-5.9455,-5.9746,-6.0437,-6.0944,-6.1584,-6.2229,-6.278,-6.2805,-6.2805,-6.2805,-6.2805,-6.2805,-6.2805,-6.2805,-6.2805,-6.2805,-6.2805,-6.2805,-6.2805,-6.2805,-6.2805,-6.2805,-6.2732,-6.2328,-6.163,-6.086,-6.0126,-5.9404,-5.9111,-5.8804,-5.8107,-5.7997,-5.7997,-5.7997,-5.7997,-5.8065,-5.8133,-5.8201,-5.829,-5.8486,-5.8614,-5.8656,-5.8677,-5.8677,-5.8677,-5.8677,-5.8677,-5.8677,-5.8677,-5.8677,-5.8677,-5.8586,-5.7695,-5.6729,-5.6097,-5.5243,-5.398,-5.3868,-5.3794,-5.3794,-5.3794,-5.3794,-5.3794,-5.3794,-5.3832,-5.3926,-5.4036,-5.42,-5.4288,-5.4357,-5.4392,-5.4409,-6.4597,-6.5652,-6.5128,-6.5243,-6.5578,-6.4143,-6.3503,-6.3494,-6.322,-6.3083,-6.3196,-6.3606,-6.3716,-6.3531,-6.3716,-6.3934,-6.4183,-6.4288,-6.46,-6.497,-6.507,-6.5234,-6.5361,-6.5462,-6.5494,-6.5494,-6.5558,-6.5462,-6.5267,-6.527,-6.5138,-6.4939,-6.4872,-6.465,-6.4315,-6.4631,-6.4725,-6.4519,-6.4657,-6.4729,-6.447,-6.3444,-6.2275,-6.1157,-6.1141,-6.1329,-6.1528,-6.2139,-6.2603,-6.278,-6.2805,-6.2805,-6.2805,-6.2805,-6.2805,-6.2805,-6.2805,-6.2805,-6.2805,-6.2805,-6.2805,-6.2805,-6.2805,-6.2805,-6.2732,-6.2328,-6.1704,-6.0896,-6.0126,-5.9318,-5.8657,-5.8437,-5.8327,-5.807,-5.7997,-5.7997,-5.7997,-5.7997,-5.8042,-5.8179,-5.8312,-5.8465,-5.8572,-5.8656,-5.8677,-5.8677,-5.8677,-5.8677,-5.8677,-5.8677,-5.8677,-5.8677,-5.8677,-5.8677,-5.8677,-5.7843,-5.6952,-5.6209,-5.5391,-5.4463,-5.4054,-5.3868,-5.3794,-5.3794,-5.3794,-5.3794,-5.3813,-5.3944,-5.4018,-5.4164,-5.4288,-5.434,-5.4392,-5.4409,-5.4409,-6.5662,-6.7045,-6.648,-6.6277,-6.6318,-6.4859,-6.4246,-6.4208,-6.3965,-6.3861,-6.3934,-6.4393,-6.4463,-6.4358,-6.477,-6.5204,-6.5368,-6.5234,-6.5433,-6.5846,-6.5971,-6.6095,-6.6247,-6.6277,-6.6277,-6.6277,-6.6277,-6.6186,-6.5971,-6.5971,-6.5846,-6.559,-6.5625,-6.5502,-6.533,-6.572,-6.5776,-6.5671,-6.6025,-6.5947,-6.5124,-6.4367,-6.361,-6.2875,-6.2413,-6.2086,-6.1924,-6.2464,-6.2805,-6.2805,-6.2805,-6.2805,-6.2805,-6.2805,-6.2805,-6.2805,-6.2805,-6.2805,-6.2805,-6.2805,-6.2805,-6.2805,-6.2805,-6.2805,-6.2732,-6.2071,-6.1263,-6.0493,-5.9685,-5.8877,-5.8217,-5.7997,-5.7997,-5.7997,-5.7997,-5.7997,-5.7997,-5.7997,-5.8088,-5.826,-5.84,-5.8551,-5.8656,-5.8677,-5.8677,-5.8677,-5.8677,-5.8677,-5.8677,-5.8677,-5.8677,-5.8677,-5.8677,-5.8677,-5.8586,-5.7918,-5.7063,-5.632,-5.5243,-5.45,-5.4091,-5.3905,-5.3794,-5.3794,-5.3794,-5.385,-5.3889,-5.4036,-5.4164,-5.4253,-5.4323,-5.4392,-5.4409,-5.4409,-5.4409,-6.741,-6.8007,-6.7305,-6.7338,-6.7584,-6.6214,-6.5654,-6.5408,-6.4882,-6.4635,-6.4669,-6.4738,-6.5171,-6.5693,-6.5851,-6.6349,-6.6772,-6.6253,-6.644,-6.721,-6.7294,-6.7378,-6.7515,-6.7488,-6.746,-6.7488,-6.7596,-6.7286,-6.6707,-6.6677,-6.6404,-6.5815,-6.5779,-6.612,-6.6671,-6.6671,-6.6967,-6.7296,-6.7451,-6.7176,-6.6512,-6.5647,-6.4924,-6.4171,-6.3353,-6.2709,-6.2123,-6.2563,-6.2842,-6.2879,-6.2842,-6.2805,-6.2805,-6.2805,-6.2805,-6.2805,-6.2805,-6.2805,-6.2805,-6.2805,-6.2805,-6.2805,-6.2805,-6.2805,-6.2695,-6.2071,-6.1263,-6.0493,-5.9685,-5.8854,-5.818,-5.7997,-5.7997,-5.7997,-5.7997,-5.7997,-5.7997,-5.802,-5.8088,-5.8349,-5.8465,-5.8572,-5.8656,-5.8677,-5.8677,-5.8677,-5.8677,-5.8677,-5.8677,-5.8677,-5.8677,-5.8677,-5.8677,-5.8677,-5.8401,-5.8029,-5.7212,-5.632,-5.5057,-5.4072,-5.398,-5.3794,-5.3794,-5.3794,-5.3832,-5.3888,-5.4,-5.4128,-5.4218,-5.4343,-5.4375,-5.4409,-5.4409,-5.4409,-5.4409,-6.8505,-6.9459,-6.8293,-6.787,-6.7864,-6.6425,-6.5755,-6.5693,-6.5442,-6.5403,-6.5597,-6.6043,-6.6228,-6.6156,-6.6559,-6.7004,-6.7387,-6.7126,-6.7182,-6.747,-6.7579,-6.766,-6.7687,-6.7687,-6.7687,-6.7687,-6.7687,-6.7633,-6.7405,-6.7378,-6.723,-6.7081,-6.7024,-6.7174,-6.735,-6.7405,-6.7552,-6.766,-6.7687,-6.754,-6.7247,-6.6512,-6.5962,-6.5705,-6.4971,-6.4427,-6.4223,-6.3328,-6.311,-6.3613,-6.3135,-6.2805,-6.2805,-6.2805,-6.2805,-6.2805,-6.2805,-6.2805,-6.2805,-6.2805,-6.2805,-6.2805,-6.2805,-6.2805,-6.2732,-6.2034,-6.1263,-6.0456,-5.9685,-5.8877,-5.818,-5.7997,-5.7997,-5.7997,-5.7997,-5.7997,-5.802,-5.8133,-5.8305,-5.8393,-5.8529,-5.8635,-5.8677,-5.8677,-5.8677,-5.8677,-5.8677,-5.8677,-5.8677,-5.8677,-5.8677,-5.8677,-5.8677,-5.8698,-5.8475,-5.7955,-5.7063,-5.632,-5.5206,-5.4091,-5.3905,-5.3794,-5.3794,-5.3813,-5.3851,-5.3963,-5.4074,-5.4182,-5.4271,-5.434,-5.4392,-5.4409,-5.4409,-5.4409,-5.4409,-6.9907,-7.0637,-6.9483,-6.8766,-6.8375,-6.713,-6.6443,-6.6207,-6.6166,-6.6258,-6.647,-6.686,-6.6917,-6.6765,-6.7089,-6.7378,-6.7552,-6.7616,-6.7552,-6.7579,-6.766,-6.7687,-6.7687,-6.7687,-6.7687,-6.7687,-6.7687,-6.7687,-6.7687,-6.7687,-6.7687,-6.7687,-6.7687,-6.7687,-6.7687,-6.7687,-6.7687,-6.7687,-6.7687,-6.754,-6.721,-6.6769,-6.6366,-6.6035,-6.5558,-6.5485,-6.5595,-6.4457,-6.3833,-6.3906,-6.3282,-6.2842,-6.2805,-6.2805,-6.2805,-6.2805,-6.2805,-6.2805,-6.2805,-6.2805,-6.2805,-6.2805,-6.2805,-6.2805,-6.2622,-6.1887,-6.0896,-6.0419,-5.9661,-5.8877,-5.8217,-5.8327,-5.8327,-5.7997,-5.7997,-5.7997,-5.802,-5.8215,-5.8349,-5.8415,-5.8508,-5.8614,-5.8677,-5.8677,-5.8677,-5.8677,-5.8677,-5.8677,-5.8677,-5.8677,-5.8677,-5.8677,-5.8677,-5.8661,-5.8586,-5.7881,-5.6952,-5.6209,-5.5429,-5.4463,-5.3868,-5.3831,-5.3794,-5.3851,-5.3889,-5.4,-5.4128,-5.4253,-5.4357,-5.4392,-5.4409,-5.4409,-5.4409,-5.4409,-5.4409,-7.1463,-7.1422,-7.0698,-6.9839,-6.9074,-6.8217,-6.7481,-6.6998,-6.6954,-6.7011,-6.7154,-6.721,-6.7331,-6.7442,-6.747,-6.7579,-6.7687,-6.7687,-6.7687,-6.7687,-6.7687,-6.7687,-6.7687,-6.7687,-6.7687,-6.7687,-6.7687,-6.7687,-6.7687,-6.7687,-6.7687,-6.7687,-6.7687,-6.7687,-6.7687,-6.7687,-6.7687,-6.7687,-6.7687,-6.7357,-6.6769,-6.6659,-6.6329,-6.5705,-6.5668,-6.5925,-6.6329,-6.5705,-6.4897,-6.42,-6.3466,-6.3025,-6.2915,-6.2879,-6.2805,-6.2805,-6.2805,-6.2805,-6.2805,-6.2805,-6.2805,-6.2805,-6.2805,-6.2805,-6.2658,-6.1741,-6.0896,-6.0603,-5.9979,-5.9134,-5.8547,-5.8694,-5.8707,-5.8143,-5.7997,-5.7997,-5.802,-5.8133,-5.8305,-5.8415,-5.8465,-5.8535,-5.8677,-5.8677,-5.8677,-5.8677,-5.8677,-5.8677,-5.8677,-5.8677,-5.8677,-5.8677,-5.8677,-5.8698,-5.8624,-5.7992,-5.7138,-5.6766,-5.5986,-5.5206,-5.4463,-5.4388,-5.4185,-5.4205,-5.4094,-5.4148,-5.4145,-5.4306,-5.4375,-5.4409,-5.4409,-5.4409,-5.4409,-5.4409,-5.4409,-7.1494,-7.1422,-7.0698,-6.9932,-6.9134,-6.8463,-6.7687,-6.7084,-6.7097,-6.7238,-6.7387,-6.7414,-6.7497,-6.7633,-6.7633,-6.766,-6.7687,-6.7687,-6.7687,-6.7687,-6.7687,-6.7687,-6.7687,-6.7687,-6.7687,-6.7687,-6.7687,-6.7687,-6.7687,-6.7687,-6.7687,-6.7687,-6.7687,-6.7687,-6.7687,-6.7687,-6.7687,-6.7687,-6.7687,-6.7614,-6.7393,-6.732,-6.7283,-6.7136,-6.7026,-6.71,-6.7283,-6.6586,-6.5815,-6.5007,-6.42,-6.3759,-6.3649,-6.3135,-6.2805,-6.2805,-6.2805,-6.2805,-6.2805,-6.2805,-6.2805,-6.2805,-6.2805,-6.2805,-6.2805,-6.2438,-6.1887,-6.1447,-6.1006,-6.0346,-5.9281,-5.9038,-5.8781,-5.8143,-5.7997,-5.8042,-5.8133,-5.8282,-5.8393,-5.8465,-5.8572,-5.8635,-5.8677,-5.8677,-5.8677,-5.8677,-5.8677,-5.8677,-5.8677,-5.8677,-5.8677,-5.8677,-5.8677,-5.8677,-5.8512,-5.7918,-5.7472,-5.7286,-5.6729,-5.6172,-5.5726,-5.5652,-5.5339,-5.5099,-5.4802,-5.4763,-5.4442,-5.434,-5.4375,-5.4409,-5.4409,-5.4409,-5.4409,-5.4409,-5.4409,-7.1494,-7.1386,-7.0335,-6.9672,-6.9153,-6.8123,-6.7513,-6.7255,-6.7303,-6.7442,-6.7552,-6.7579,-6.7606,-6.7687,-6.7687,-6.7687,-6.7687,-6.7687,-6.7687,-6.7687,-6.7687,-6.7687,-6.7687,-6.7687,-6.7687,-6.7687,-6.7687,-6.7687,-6.7687,-6.7687,-6.7687,-6.7687,-6.7687,-6.7687,-6.7687,-6.7687,-6.7687,-6.7687,-6.7687,-6.7687,-6.7687,-6.7687,-6.7687,-6.7687,-6.7687,-6.7687,-6.7614,-6.7247,-6.6476,-6.5448,-6.4567,-6.4115,-6.4016,-6.3282,-6.2842,-6.2805,-6.2805,-6.2805,-6.2805,-6.2805,-6.2805,-6.2805,-6.2805,-6.2805,-6.2732,-6.2548,-6.1998,-6.1667,-6.1594,-6.0933,-6.0015,-5.9404,-5.9001,-5.8584,-5.8263,-5.8148,-5.8179,-5.8334,-5.8443,-5.8529,-5.8614,-5.8677,-5.8677,-5.8677,-5.8677,-5.8677,-5.8677,-5.8677,-5.8677,-5.8677,-5.8677,-5.8677,-5.8677,-5.8677,-5.8677,-5.8252,-5.8029,-5.7843,-5.7621,-5.7026,-5.6655,-5.6506,-5.6008,-5.5602,-5.5455,-5.5173,-5.474,-5.4453,-5.4392,-5.4409,-5.4409,-5.4409,-5.4409,-5.4409,-5.4409,-7.1494,-7.1381,-6.9859,-6.9298,-6.9163,-6.7775,-6.7364,-6.7588,-6.7534,-6.7689,-6.7807,-6.776,-6.7687,-6.7687,-6.7687,-6.7687,-6.7687,-6.7687,-6.7687,-6.7687,-6.7687,-6.7687,-6.7687,-6.7687,-6.7687,-6.7687,-6.7687,-6.7687,-6.7687,-6.7687,-6.7687,-6.7687,-6.7687,-6.7687,-6.7687,-6.7687,-6.7687,-6.7687,-6.7687,-6.7687,-6.7687,-6.7687,-6.7687,-6.7687,-6.7687,-6.7687,-6.7687,-6.754,-6.699,-6.5521,-6.464,-6.4273,-6.4053,-6.3282,-6.2879,-6.2805,-6.2805,-6.2805,-6.2805,-6.2805,-6.2805,-6.2805,-6.2805,-6.2805,-6.2732,-6.2328,-6.1961,-6.1887,-6.1741,-6.13,-6.0382,-5.9588,-5.9001,-5.8754,-5.8442,-5.8252,-5.8282,-5.84,-5.8492,-5.8551,-5.8635,-5.8677,-5.8677,-5.8677,-5.8677,-5.8677,-5.8677,-5.8677,-5.8677,-5.8677,-5.8677,-5.8677,-5.8677,-5.8677,-5.8677,-5.8624,-5.8586,-5.8475,-5.8401,-5.7955,-5.7286,-5.6972,-5.64,-5.605,-5.6052,-5.5584,-5.485,-5.4658,-5.4467,-5.4409,-5.4409,-5.4409,-5.4409,-5.4409,-5.4409,-7.1593,-7.1609,-7.0012,-6.9448,-6.9304,-6.8061,-6.7816,-6.8384,-6.7899,-6.81,-6.8385,-6.8017,-6.7724,-6.7724,-6.7724,-6.7687,-6.7687,-6.7687,-6.7687,-6.7687,-6.7687,-6.7687,-6.7687,-6.7687,-6.7687,-6.7687,-6.7687,-6.7687,-6.7687,-6.7687,-6.7687,-6.7687,-6.7687,-6.7687,-6.7687,-6.7687,-6.7687,-6.7687,-6.7687,-6.7687,-6.7687,-6.7687,-6.7687,-6.7687,-6.7687,-6.7687,-6.7687,-6.7687,-6.721,-6.6329,-6.5411,-6.4604,-6.4053,-6.3282,-6.2842,-6.2805,-6.2805,-6.2805,-6.2805,-6.2805,-6.2805,-6.2805,-6.2805,-6.2805,-6.2805,-6.2658,-6.2511,-6.2548,-6.2511,-6.1851,-6.0639,-5.9134,-5.8584,-5.8483,-5.8399,-5.8349,-5.8393,-5.8443,-5.8551,-5.8635,-5.8656,-5.8677,-5.8677,-5.8677,-5.8677,-5.8677,-5.8677,-5.8677,-5.8677,-5.8677,-5.8677,-5.8677,-5.8677,-5.8677,-5.8677,-5.8677,-5.8677,-5.8677,-5.8677,-5.8661,-5.7992,-5.7796,-5.7372,-5.7059,-5.68,-5.6125,-5.5185,-5.462,-5.4409,-5.4409,-5.4409,-5.4409,-5.4409,-5.4409,-5.4409,-7.1723,-7.1671,-7.0532,-7.0142,-7.0098,-6.9124,-6.8916,-6.9228,-6.9018,-6.9045,-6.9229,-6.8605,-6.8274,-6.8201,-6.7871,-6.7687,-6.7687,-6.7687,-6.7687,-6.7687,-6.7687,-6.7687,-6.7687,-6.7687,-6.7687,-6.7687,-6.7687,-6.7687,-6.7687,-6.7687,-6.7687,-6.7687,-6.7687,-6.7687,-6.7687,-6.7687,-6.7687,-6.7687,-6.7687,-6.7687,-6.7687,-6.7687,-6.7687,-6.7687,-6.7687,-6.7687,-6.7687,-6.7283,-6.6733,-6.5962,-6.5191,-6.4567,-6.4053,-6.3282,-6.2879,-6.2805,-6.2805,-6.2805,-6.2805,-6.2805,-6.2805,-6.2805,-6.2805,-6.2805,-6.2805,-6.2805,-6.2805,-6.2805,-6.2695,-6.2254,-6.108,-5.9979,-5.9121,-5.8626,-5.8467,-5.8415,-5.8443,-5.8529,-5.8614,-5.8677,-5.8677,-5.8677,-5.8677,-5.8677,-5.8677,-5.8677,-5.8677,-5.8677,-5.8677,-5.8677,-5.8677,-5.8677,-5.8677,-5.8677,-5.8677,-5.8677,-5.8677,-5.8677,-5.8677,-5.8677,-5.8438,-5.8449,-5.8552,-5.7995,-5.7305,-5.6424,-5.5595,-5.4992,-5.4521,-5.4446,-5.4446,-5.4409,-5.4446,-5.4484,-5.4446,-7.1842,-7.1836,-7.1119,-7.0975,-7.1011,-7.0234,-6.9998,-7.0229,-7.0146,-7.0036,-7.0073,-6.9339,-6.8862,-6.8898,-6.8274,-6.7944,-6.8054,-6.7944,-6.8054,-6.8311,-6.8348,-6.8201,-6.8054,-6.7981,-6.7871,-6.7724,-6.7687,-6.7687,-6.7687,-6.7687,-6.7687,-6.7687,-6.7687,-6.7687,-6.7687,-6.7687,-6.7687,-6.7687,-6.7687,-6.7687,-6.7687,-6.7687,-6.7687,-6.7687,-6.7687,-6.754,-6.7357,-6.688,-6.6109,-6.5191,-6.4457,-6.409,-6.3723,-6.3319,-6.2805,-6.2805,-6.2805,-6.2805,-6.2805,-6.2805,-6.2805,-6.2805,-6.2805,-6.2805,-6.2805,-6.2805,-6.2805,-6.2633,-6.245,-6.1961,-6.1447,-6.0162,-5.9572,-5.915,-5.8659,-5.8474,-5.8508,-5.8614,-5.8677,-5.8677,-5.8677,-5.8677,-5.8677,-5.8677,-5.8677,-5.8677,-5.8677,-5.8677,-5.8677,-5.8677,-5.8677,-5.8677,-5.8677,-5.8677,-5.8677,-5.8677,-5.8677,-5.8698,-5.8698,-5.8719,-5.8719,-5.8788,-5.8741,-5.8257,-5.7548,-5.6817,-5.6138,-5.5518,-5.5047,-5.4672,-5.4484,-5.4521,-5.4521,-5.4559,-5.4672,-7.2084,-7.2167,-7.1363,-7.1121,-7.1154,-7.0421,-7.0522,-7.0917,-7.0477,-7.0513,-7.0881,-6.9633,-6.9412,-6.9522,-6.9045,-6.9045,-6.9265,-6.8935,-6.8935,-6.9412,-6.9449,-6.9229,-6.8641,-6.8531,-6.8274,-6.7834,-6.7687,-6.7687,-6.7687,-6.7687,-6.7687,-6.7687,-6.7687,-6.7687,-6.7687,-6.7687,-6.7687,-6.7687,-6.7687,-6.7687,-6.7687,-6.7687,-6.7687,-6.7687,-6.7687,-6.7393,-6.6916,-6.6586,-6.5815,-6.4494,-6.4163,-6.3723,-6.3246,-6.2915,-6.2842,-6.2805,-6.2805,-6.2805,-6.2805,-6.2805,-6.2805,-6.2805,-6.2805,-6.2805,-6.2805,-6.2805,-6.2805,-6.2475,-6.1741,-6.086,-6.0603,-5.9575,-5.8653,-5.8399,-5.8474,-5.84,-5.8529,-5.8614,-5.8677,-5.8677,-5.8677,-5.8677,-5.8677,-5.8677,-5.8677,-5.8677,-5.8677,-5.8677,-5.8677,-5.8677,-5.8677,-5.8677,-5.8677,-5.8677,-5.8677,-5.8677,-5.8698,-5.8698,-5.8719,-5.8797,-5.8821,-5.8942,-5.876,-5.8482,-5.8184,-5.7696,-5.6944,-5.6156,-5.5706,-5.546,-5.5085,-5.4672,-5.5047,-5.5423,-5.5423,-7.2204,-7.2292,-7.1948,-7.1859,-7.1843,-7.1541,-7.1541,-7.1835,-7.1505,-7.1541,-7.1468,-7.0734,-7.033,-7.044,-6.9889,-6.9779,-6.9816,-6.9302,-6.9412,-6.9963,-7.0073,-6.9669,-6.9009,-6.8935,-6.8421,-6.7907,-6.7687,-6.7687,-6.7687,-6.7687,-6.7687,-6.7687,-6.7687,-6.7687,-6.7687,-6.7687,-6.7687,-6.7687,-6.7687,-6.7687,-6.7687,-6.7687,-6.7687,-6.7687,-6.7687,-6.7467,-6.7173,-6.6623,-6.5962,-6.4934,-6.431,-6.3649,-6.3135,-6.2842,-6.2842,-6.2842,-6.2842,-6.2805,-6.2805,-6.2805,-6.2805,-6.2805,-6.2805,-6.2805,-6.2805,-6.2805,-6.2805,-6.2548,-6.1887,-6.0823,-6.0456,-5.9281,-5.864,-5.8356,-5.8371,-5.848,-5.8572,-5.8656,-5.8677,-5.8677,-5.8677,-5.8677,-5.8677,-5.8677,-5.8677,-5.8677,-5.8677,-5.8677,-5.8677,-5.8677,-5.8677,-5.8677,-5.8677,-5.8677,-5.8677,-5.8677,-5.8719,-5.8719,-5.8777,-5.8838,-5.892,-5.9002,-5.9081,-5.8989,-5.8653,-5.8296,-5.7751,-5.6962,-5.6569,-5.6231,-5.6023,-5.5873,-5.6099,-5.6286,-5.6286,-7.2358,-7.2358,-7.2438,-7.2532,-7.2532,-7.2496,-7.2459,-7.2532,-7.2459,-7.2422,-7.2386,-7.1688,-7.1321,-7.1284,-7.0807,-7.044,-7.044,-6.9816,-7.0,-7.0587,-7.0734,-7.0183,-6.9376,-6.9009,-6.8715,-6.7797,-6.7687,-6.7687,-6.7687,-6.7687,-6.7687,-6.7687,-6.7687,-6.7687,-6.7687,-6.7687,-6.7687,-6.7687,-6.7687,-6.7687,-6.7687,-6.7687,-6.7687,-6.7687,-6.7687,-6.7614,-6.721,-6.6769,-6.6109,-6.5338,-6.4714,-6.409,-6.3466,-6.3172,-6.3062,-6.3025,-6.2915,-6.2842,-6.2805,-6.2805,-6.2805,-6.2805,-6.2805,-6.2805,-6.2805,-6.2805,-6.2805,-6.2633,-6.2034,-6.119,-6.0456,-5.9661,-5.8993,-5.8526,-5.8393,-5.8459,-5.8593,-5.8677,-5.8677,-5.8677,-5.8677,-5.8677,-5.8677,-5.8677,-5.8677,-5.8677,-5.8677,-5.8677,-5.8677,-5.8677,-5.8677,-5.8677,-5.8677,-5.8677,-5.8677,-5.8677,-5.8719,-5.8797,-5.8838,-5.8899,-5.9,-5.9118,-5.9139,-5.9159,-5.8953,-5.8577,-5.8126,-5.7788,-5.7375,-5.7075,-5.7,-5.6962,-5.7037,-5.7112,-5.7112,-7.2467,-7.2504,-7.2496,-7.2532,-7.2532,-7.2532,-7.2532,-7.2532,-7.2532,-7.2532,-7.2459,-7.1762,-7.1733,-7.1945,-7.1468,-7.1541,-7.1688,-7.1248,-7.1174,-7.1798,-7.1908,-7.1174,-7.0073,-6.9963,-6.8935,-6.7907,-6.7687,-6.7687,-6.7687,-6.7687,-6.7687,-6.7687,-6.7687,-6.7687,-6.7687,-6.7687,-6.7687,-6.7687,-6.7687,-6.7687,-6.7687,-6.7687,-6.7687,-6.7687,-6.765,-6.7467,-6.7026,-6.6696,-6.6256,-6.5521,-6.5264,-6.5118,-6.4934,-6.431,-6.4016,-6.3723,-6.3319,-6.2805,-6.2805,-6.2805,-6.2805,-6.2805,-6.2805,-6.2805,-6.2805,-6.2805,-6.2805,-6.2805,-6.2071,-6.1374,-6.0603,-5.9758,-5.9067,-5.8799,-5.8762,-5.8724,-5.8784,-5.8995,-5.8995,-5.8677,-5.8677,-5.8677,-5.8677,-5.8677,-5.8677,-5.8677,-5.8677,-5.8677,-5.8677,-5.8677,-5.8677,-5.8677,-5.8677,-5.8677,-5.8677,-5.8677,-5.8739,-5.8838,-5.8899,-5.896,-5.9041,-5.9139,-5.9215,-5.9197,-5.9009,-5.899,-5.8764,-5.8464,-5.8089,-5.7901,-5.7751,-5.7788,-5.7863,-5.7901,-5.7938,-7.2532,-7.2532,-7.2532,-7.2532,-7.2532,-7.2532,-7.2532,-7.2532,-7.2532,-7.2532,-7.2459,-7.2165,-7.2202,-7.2312,-7.1688,-7.1762,-7.2165,-7.1688,-7.1762,-7.2349,-7.2386,-7.1615,-7.0403,-7.0,-6.9229,-6.8054,-6.7687,-6.7687,-6.7687,-6.7687,-6.7687,-6.7687,-6.7687,-6.7687,-6.7687,-6.7687,-6.7687,-6.7687,-6.7687,-6.7687,-6.7687,-6.7687,-6.7687,-6.7687,-6.7687,-6.7467,-6.7247,-6.7173,-6.6769,-6.6145,-6.5962,-6.5485,-6.4824,-6.4237,-6.3906,-6.3319,-6.3025,-6.278,-6.2805,-6.2805,-6.2805,-6.2805,-6.2805,-6.2805,-6.2805,-6.2805,-6.2805,-6.2805,-6.2071,-6.1447,-6.1043,-6.0346,-6.001,-5.9743,-5.9501,-5.936,-5.9319,-5.9324,-5.9367,-5.8995,-5.8714,-5.8863,-5.8921,-5.8846,-5.8809,-5.8677,-5.8677,-5.8677,-5.8677,-5.8677,-5.8677,-5.8677,-5.8677,-5.8677,-5.8677,-5.8698,-5.876,-5.8859,-5.8942,-5.9002,-5.9119,-5.9215,-5.9272,-5.9272,-5.9215,-5.9215,-5.929,-5.9065,-5.8689,-5.8577,-5.8502,-5.8539,-5.8539,-5.8689,-5.8614,-7.2532,-7.2532,-7.2532,-7.2532,-7.2532,-7.2532,-7.2532,-7.2532,-7.2532,-7.2532,-7.2532,-7.2496,-7.2496,-7.2422,-7.1982,-7.2018,-7.2422,-7.1872,-7.1982,-7.2349,-7.2312,-7.1541,-7.055,-6.9963,-6.9265,-6.7751,-6.7687,-6.7687,-6.7687,-6.7687,-6.7687,-6.7687,-6.7687,-6.7687,-6.7687,-6.7687,-6.7687,-6.7687,-6.7687,-6.7687,-6.7687,-6.7687,-6.7687,-6.7687,-6.7687,-6.7687,-6.7687,-6.765,-6.7247,-6.6953,-6.6476,-6.5888,-6.5118,-6.4457,-6.3943,-6.3392,-6.3062,-6.2805,-6.2805,-6.2805,-6.2805,-6.2805,-6.2805,-6.2805,-6.2805,-6.2805,-6.2805,-6.2805,-6.2401,-6.1924,-6.152,-6.1006,-6.0709,-6.0628,-6.0572,-6.0322,-6.0157,-6.0141,-5.9775,-5.9144,-5.9032,-5.9367,-5.9367,-5.9144,-5.8958,-5.8772,-5.8677,-5.8677,-5.8677,-5.8677,-5.8677,-5.8677,-5.8677,-5.8677,-5.8677,-5.8698,-5.8818,-5.8862,-5.8962,-5.9043,-5.9196,-5.9272,-5.9272,-5.929,-5.929,-5.929,-5.929,-5.929,-5.929,-5.9065,-5.8915,-5.9102,-5.9215,-5.929,-5.9215,-7.2532,-7.2532,-7.2532,-7.2532,-7.2532,-7.2532,-7.2532,-7.2532,-7.2532,-7.2532,-7.2532,-7.2532,-7.2532,-7.2459,-7.2386,-7.2349,-7.2496,-7.2422,-7.2422,-7.2459,-7.2386,-7.1578,-7.0697,-7.0036,-6.9412,-6.8017,-6.7871,-6.7834,-6.7687,-6.7687,-6.7687,-6.7687,-6.7687,-6.7687,-6.7687,-6.7687,-6.7687,-6.7687,-6.7687,-6.7687,-6.7687,-6.7687,-6.7687,-6.7687,-6.7687,-6.7687,-6.7687,-6.7687,-6.7614,-6.743,-6.6953,-6.6512,-6.5852,-6.5007,-6.4383,-6.3796,-6.3319,-6.3099,-6.3025,-6.2879,-6.2805,-6.2805,-6.2805,-6.2805,-6.2805,-6.2805,-6.2805,-6.2805,-6.2585,-6.2328,-6.1924,-6.1545,-6.1432,-6.1426,-6.1394,-6.1063,-6.0914,-6.1017,-6.0555,-5.9515,-5.9441,-5.9924,-6.0035,-5.9887,-5.9441,-5.9218,-5.8714,-5.8677,-5.8677,-5.8677,-5.8677,-5.8677,-5.8677,-5.8677,-5.8677,-5.8739,-5.8838,-5.8922,-5.9022,-5.912,-5.9234,-5.9272,-5.929,-5.929,-5.929,-5.929,-5.929,-5.929,-5.929,-5.929,-5.929,-5.929,-5.929,-5.929,-5.929,-7.2532,-7.2532,-7.2532,-7.2532,-7.2532,-7.2532,-7.2532,-7.2532,-7.2532,-7.2532,-7.2532,-7.2532,-7.2532,-7.2532,-7.2532,-7.2532,-7.2532,-7.2496,-7.2532,-7.2532,-7.2349,-7.1798,-7.1138,-7.055,-7.0036,-6.8752,-6.8421,-6.8091,-6.7724,-6.776,-6.7687,-6.7687,-6.7687,-6.7687,-6.7687,-6.7687,-6.7687,-6.7687,-6.7687,-6.7687,-6.7687,-6.7687,-6.7687,-6.7687,-6.7687,-6.7687,-6.7687,-6.7687,-6.7687,-6.7577,-6.732,-6.6953,-6.6549,-6.5705,-6.5007,-6.431,-6.3759,-6.3649,-6.3466,-6.3172,-6.2842,-6.2805,-6.2805,-6.2805,-6.2805,-6.2805,-6.2805,-6.2805,-6.2805,-6.2573,-6.2475,-6.2402,-6.2413,-6.2358,-6.2142,-6.1826,-6.1693,-6.1759,-6.1336,-6.0333,-6.0407,-6.0815,-6.0815,-6.0704,-6.0184,-5.9664,-5.9144,-5.8772,-5.8921,-5.8826,-5.8863,-5.8788,-5.8788,-5.8677,-5.8677,-5.876,-5.8842,-5.8962,-5.9043,-5.9159,-5.9253,-5.9272,-5.929,-5.929,-5.929,-5.929,-5.929,-5.929,-5.929,-5.929,-5.929,-5.929,-5.929,-5.929,-5.929,-7.2532,-7.2532,-7.2532,-7.2532,-7.2532,-7.2532,-7.2532,-7.2532,-7.2532,-7.2532,-7.2532,-7.2532,-7.2532,-7.2532,-7.2532,-7.2532,-7.2532,-7.2532,-7.2532,-7.2532,-7.2422,-7.2018,-7.1578,-7.1101,-7.0513,-6.9486,-6.9192,-6.8898,-6.8164,-6.8091,-6.7907,-6.776,-6.7687,-6.7687,-6.7687,-6.7687,-6.7687,-6.7687,-6.7687,-6.7687,-6.7687,-6.7687,-6.7687,-6.7687,-6.7687,-6.7687,-6.7687,-6.7687,-6.7687,-6.7577,-6.7357,-6.7026,-6.6623,-6.6145,-6.5521,-6.4897,-6.4457,-6.4457,-6.4237,-6.3723,-6.3246,-6.3319,-6.289,-6.2879,-6.2805,-6.2805,-6.2805,-6.2805,-6.283,-6.2855,-6.2855,-6.2867,-6.2975,-6.2859,-6.2942,-6.2701,-6.2458,-6.2376,-6.1819,-6.1187,-6.1558,-6.2004,-6.1633,-6.1521,-6.1076,-6.0593,-6.0221,-5.9887,-5.985,-5.9664,-5.9234,-5.9086,-5.89,-5.8788,-5.8698,-5.8781,-5.892,-5.8982,-5.9063,-5.9215,-5.929,-5.9272,-5.929,-5.929,-5.929,-5.929,-5.929,-5.929,-5.929,-5.929,-5.929,-5.929,-5.929,-5.929,-5.929,-7.2532,-7.2532,-7.2532,-7.2532,-7.2532,-7.2532,-7.2532,-7.2532,-7.2532,-7.2532,-7.2532,-7.2532,-7.2532,-7.2532,-7.2532,-7.2532,-7.2532,-7.2532,-7.2532,-7.2532,-7.2496,-7.2018,-7.1688,-7.1293,-7.1064,-7.033,-7.0036,-6.9669,-6.8898,-6.8715,-6.8385,-6.7944,-6.7824,-6.7687,-6.7687,-6.7687,-6.7687,-6.7687,-6.7687,-6.7687,-6.7687,-6.7687,-6.7687,-6.7687,-6.7687,-6.7687,-6.7687,-6.7687,-6.7687,-6.7614,-6.7173,-6.688,-6.6696,-6.6109,-6.5668,-6.5375,-6.5301,-6.5301,-6.5228,-6.4494,-6.4163,-6.3796,-6.3246,-6.2842,-6.2805,-6.2805,-6.2805,-6.2805,-6.288,-6.2953,-6.3026,-6.3099,-6.3242,-6.3312,-6.3359,-6.3354,-6.3074,-6.297,-6.245,-6.2153,-6.2784,-6.3245,-6.2747,-6.2301,-6.1967,-6.1596,-6.1261,-6.1038,-6.0778,-6.0444,-5.9961,-5.968,-5.9457,-5.916,-5.9069,-5.8913,-5.894,-5.9022,-5.9119,-5.9234,-5.9253,-5.929,-5.929,-5.929,-5.929,-5.929,-5.929,-5.929,-5.929,-5.929,-5.929,-5.929,-5.929,-5.929,-5.929,-7.2532,-7.2532,-7.2532,-7.2532,-7.2532,-7.2532,-7.2532,-7.2532,-7.2532,-7.2532,-7.2532,-7.2532,-7.2532,-7.2532,-7.2532,-7.2532,-7.2532,-7.2532,-7.2532,-7.2532,-7.2532,-7.2386,-7.2129,-7.1945,-7.1651,-7.1101,-7.0844,-7.0477,-6.9706,-6.9376,-6.8935,-6.8495,-6.7981,-6.7687,-6.7687,-6.7687,-6.7687,-6.7687,-6.7687,-6.7687,-6.7687,-6.7687,-6.7687,-6.7687,-6.7687,-6.7687,-6.7687,-6.7687,-6.7687,-6.7687,-6.721,-6.721,-6.721,-6.6769,-6.6586,-6.6256,-6.6109,-6.6109,-6.6072,-6.5705,-6.5154,-6.4347,-6.3503,-6.3025,-6.2817,-6.2805,-6.2805,-6.283,-6.299,-6.3002,-6.3026,-6.3218,-6.3336,-6.3419,-6.3428,-6.3497,-6.3356,-6.3416,-6.3267,-6.3156,-6.3505,-6.3527,-6.323,-6.297,-6.2673,-6.2339,-6.2041,-6.1558,-6.1261,-6.1113,-6.0778,-6.0481,-6.02,-5.9754,-5.9499,-5.9512,-5.9278,-5.9228,-5.9233,-5.9253,-5.929,-5.929,-5.929,-5.929,-5.929,-5.929,-5.929,-5.929,-5.929,-5.929,-5.929,-5.929,-5.929,-5.929,-5.929,-7.3156,-7.2936,-7.2899,-7.2753,-7.2532,-7.2532,-7.2532,-7.2532,-7.2532,-7.2532,-7.2532,-7.2532,-7.2532,-7.2532,-7.2532,-7.2532,-7.2532,-7.2532,-7.2532,-7.2532,-7.2532,-7.2459,-7.2496,-7.2496,-7.2165,-7.1798,-7.1651,-7.1321,-7.055,-7.0036,-6.9449,-6.8862,-6.8348,-6.8017,-6.7834,-6.7687,-6.7687,-6.7687,-6.7687,-6.7687,-6.7687,-6.7687,-6.7687,-6.7687,-6.7687,-6.7687,-6.7687,-6.7687,-6.7687,-6.7687,-6.7687,-6.7687,-6.7687,-6.7614,-6.743,-6.7026,-6.6916,-6.6916,-6.6916,-6.6476,-6.5852,-6.5154,-6.4163,-6.3759,-6.3576,-6.3539,-6.3381,-6.3321,-6.3162,-6.3112,-6.3147,-6.3359,-6.3465,-6.3511,-6.3511,-6.3542,-6.3542,-6.3602,-6.3602,-6.3602,-6.3602,-6.3602,-6.3602,-6.3565,-6.3342,-6.3044,-6.2747,-6.2264,-6.1856,-6.1707,-6.1596,-6.1373,-6.1023,-6.0577,-6.0343,-6.0282,-6.001,-5.9547,-5.9533,-5.9609,-5.929,-5.929,-5.929,-5.929,-5.929,-5.929,-5.929,-5.929,-5.929,-5.929,-5.929,-5.929,-5.929,-5.929,-5.929,-7.4404,-7.3744,-7.367,-7.3156,-7.2569,-7.2532,-7.2532,-7.2532,-7.2532,-7.2532,-7.2532,-7.2532,-7.2532,-7.2532,-7.2532,-7.2532,-7.2532,-7.2532,-7.2532,-7.2532,-7.2532,-7.2532,-7.2532,-7.2496,-7.2386,-7.2459,-7.2312,-7.1908,-7.1358,-7.0734,-7.0,-6.9192,-6.8788,-6.8311,-6.7907,-6.7834,-6.7797,-6.776,-6.7687,-6.7687,-6.7687,-6.7687,-6.7687,-6.7687,-6.7687,-6.7687,-6.7687,-6.7687,-6.7687,-6.7687,-6.7687,-6.7687,-6.7687,-6.7687,-6.7687,-6.765,-6.7614,-6.7577,-6.7467,-6.6953,-6.6733,-6.6256,-6.5778,-6.5485,-6.4971,-6.4409,-6.4129,-6.3898,-6.3689,-6.3477,-6.3396,-6.3488,-6.3557,-6.3579,-6.3579,-6.3602,-6.3602,-6.3602,-6.3602,-6.3602,-6.3602,-6.3602,-6.3602,-6.3602,-6.3602,-6.3453,-6.3193,-6.3193,-6.2784,-6.2562,-6.245,-6.2301,-6.1915,-6.1459,-6.1246,-6.1127,-6.0855,-6.0392,-6.019,-6.0154,-5.9778,-5.9365,-5.929,-5.929,-5.929,-5.929,-5.929,-5.929,-5.929,-5.929,-5.929,-5.929,-5.929,-5.929,-5.929,-7.3891,-7.3634,-7.3083,-7.2716,-7.2532,-7.2532,-7.2532,-7.2532,-7.2532,-7.2532,-7.2532,-7.2532,-7.2532,-7.2532,-7.2532,-7.2532,-7.2532,-7.2532,-7.2532,-7.2532,-7.2532,-7.2532,-7.2532,-7.2532,-7.2532,-7.2532,-7.2459,-7.2349,-7.1908,-7.1284,-7.011,-6.9045,-6.9082,-6.8495,-6.8238,-6.8238,-6.8054,-6.7824,-6.7687,-6.7687,-6.7687,-6.7687,-6.7687,-6.7687,-6.7687,-6.7687,-6.7687,-6.7687,-6.7687,-6.7687,-6.7687,-6.7687,-6.7687,-6.7687,-6.7687,-6.7687,-6.765,-6.765,-6.765,-6.7467,-6.7283,-6.7247,-6.699,-6.6256,-6.5694,-6.5195,-6.4903,-6.466,-6.4376,-6.4224,-6.3998,-6.3979,-6.4025,-6.4048,-6.4048,-6.3973,-6.3973,-6.3825,-6.3788,-6.3602,-6.3602,-6.3602,-6.3602,-6.3602,-6.3602,-6.3602,-6.3602,-6.3602,-6.3527,-6.3267,-6.3082,-6.297,-6.2776,-6.2247,-6.2034,-6.1898,-6.1606,-6.1332,-6.1147,-6.0792,-6.0229,-5.9853,-5.9478,-5.929,-5.929,-5.929,-5.929,-5.929,-5.929,-5.929,-5.929,-5.929,-5.929,-5.929,-5.929,-7.4258,-7.367,-7.3193,-7.2826,-7.2532,-7.2532,-7.2532,-7.2532,-7.2532,-7.2532,-7.2532,-7.2532,-7.2532,-7.2532,-7.2532,-7.2532,-7.2532,-7.2532,-7.2532,-7.2532,-7.2532,-7.2532,-7.2532,-7.2532,-7.2532,-7.2532,-7.2532,-7.2459,-7.2165,-7.1394,-7.0257,-7.0,-6.9633,-6.8898,-6.8568,-6.8568,-6.8348,-6.7944,-6.7687,-6.7687,-6.7687,-6.7687,-6.7687,-6.7687,-6.7687,-6.7687,-6.7687,-6.7687,-6.7687,-6.7687,-6.7687,-6.7687,-6.7687,-6.7687,-6.7687,-6.7687,-6.7687,-6.7687,-6.7687,-6.7687,-6.765,-6.7714,-6.7677,-6.7263,-6.6691,-6.6191,-6.5888,-6.5644,-6.5286,-6.4999,-6.4749,-6.4559,-6.4619,-6.4679,-6.4545,-6.447,-6.4285,-6.4136,-6.3936,-6.3676,-6.3602,-6.3602,-6.3602,-6.3639,-6.3602,-6.3602,-6.3602,-6.3602,-6.3602,-6.349,-6.3416,-6.3342,-6.3282,-6.3072,-6.2902,-6.2708,-6.2565,-6.2346,-6.2142,-6.1693,-6.0942,-6.0304,-5.9891,-5.9553,-5.929,-5.929,-5.929,-5.929,-5.929,-5.929,-5.929,-5.929,-5.929,-5.929,-5.929,-7.4992,-7.367,-7.3634,-7.3083,-7.2569,-7.2532,-7.2532,-7.2532,-7.2532,-7.2532,-7.2532,-7.2532,-7.2532,-7.2532,-7.2532,-7.2532,-7.2532,-7.2532,-7.2532,-7.2532,-7.2532,-7.2532,-7.2532,-7.2532,-7.2532,-7.2532,-7.2532,-7.2496,-7.2275,-7.1615,-7.1064,-7.1219,-7.0587,-6.9706,-6.8898,-6.9045,-6.8715,-6.7871,-6.7834,-6.7907,-6.7724,-6.7687,-6.7687,-6.7687,-6.7687,-6.7687,-6.7687,-6.7687,-6.7687,-6.7687,-6.7687,-6.7687,-6.7687,-6.7687,-6.7687,-6.7687,-6.7687,-6.7687,-6.7714,-6.7741,-6.7741,-6.7741,-6.7704,-6.77,-6.7399,-6.7067,-6.6801,-6.6482,-6.6123,-6.5787,-6.5524,-6.5399,-6.5399,-6.5422,-6.5385,-6.5236,-6.5028,-6.4879,-6.4791,-6.4568,-6.4493,-6.4456,-6.4456,-6.4531,-6.4345,-6.401,-6.3825,-6.3862,-6.3699,-6.3699,-6.3721,-6.3721,-6.3653,-6.3611,-6.3638,-6.3518,-6.3525,-6.3381,-6.3025,-6.2557,-6.1731,-6.098,-6.0304,-5.9778,-5.929,-5.929,-5.929,-5.929,-5.929,-5.929,-5.929,-5.929,-5.929,-5.929,-5.929,-7.4037,-7.3634,-7.3046,-7.2679,-7.2532,-7.2532,-7.2532,-7.2532,-7.2532,-7.2532,-7.2532,-7.2532,-7.2532,-7.2532,-7.2532,-7.2532,-7.2532,-7.2532,-7.2532,-7.2532,-7.2532,-7.2532,-7.2532,-7.2532,-7.2532,-7.2532,-7.2532,-7.2496,-7.2349,-7.1798,-7.1293,-7.1321,-7.0954,-7.033,-6.9155,-6.9376,-6.9082,-6.7871,-6.8201,-6.8164,-6.7871,-6.7724,-6.7687,-6.7687,-6.7687,-6.7687,-6.7687,-6.7687,-6.7687,-6.7687,-6.7687,-6.7687,-6.7687,-6.7687,-6.7687,-6.7687,-6.7687,-6.7687,-6.7741,-6.7794,-6.782,-6.7899,-6.7952,-6.8081,-6.8021,-6.7885,-6.7615,-6.7284,-6.6974,-6.6638,-6.6402,-6.6314,-6.6239,-6.6239,-6.6239,-6.6054,-6.5807,-6.5719,-6.5608,-6.5534,-6.5422,-6.5385,-6.5348,-6.5274,-6.5065,-6.4842,-6.4619,-6.4442,-6.4086,-6.3981,-6.4003,-6.401,-6.399,-6.3984,-6.4079,-6.4104,-6.3998,-6.3814,-6.3496,-6.297,-6.2444,-6.1543,-6.0642,-5.9816,-5.929,-5.9365,-5.9403,-5.929,-5.929,-5.929,-5.929,-5.929,-5.929,-5.929,-5.929,-7.3487,-7.312,-7.2679,-7.2532,-7.2532,-7.2532,-7.2532,-7.2532,-7.2532,-7.2532,-7.2532,-7.2532,-7.2532,-7.2532,-7.2532,-7.2532,-7.2532,-7.2532,-7.2532,-7.2532,-7.2532,-7.2532,-7.2532,-7.2532,-7.2532,-7.2532,-7.2532,-7.2459,-7.2386,-7.1835,-7.1366,-7.1651,-7.1505,-7.077,-6.9633,-6.9779,-6.9339,-6.7861,-6.8568,-6.8641,-6.8238,-6.8238,-6.7944,-6.7871,-6.7687,-6.7724,-6.7687,-6.7724,-6.7944,-6.8091,-6.8274,-6.7944,-6.7834,-6.7687,-6.7687,-6.7687,-6.7687,-6.7687,-6.7741,-6.782,-6.7926,-6.7978,-6.8055,-6.8132,-6.8234,-6.806,-6.8111,-6.7827,-6.7839,-6.759,-6.7553,-6.7465,-6.7465,-6.7465,-6.7391,-6.7219,-6.6685,-6.6202,-6.6054,-6.5868,-6.5831,-6.5794,-6.5794,-6.5756,-6.5645,-6.5631,-6.5385,-6.538,-6.4949,-6.4523,-6.4507,-6.4401,-6.4416,-6.4196,-6.41,-6.4183,-6.4227,-6.4021,-6.3834,-6.3383,-6.282,-6.1881,-6.0942,-6.0304,-5.9816,-5.9628,-5.9628,-5.944,-5.9328,-5.929,-5.929,-5.929,-5.929,-5.929,-5.929,-7.312,-7.2532,-7.2532,-7.2532,-7.2532,-7.2532,-7.2532,-7.2532,-7.2532,-7.2532,-7.2532,-7.2532,-7.2532,-7.2532,-7.2532,-7.2532,-7.2532,-7.2532,-7.2532,-7.2532,-7.2532,-7.2532,-7.2532,-7.2532,-7.2532,-7.2532,-7.2532,-7.2496,-7.2459,-7.1982,-7.1872,-7.2239,-7.1762,-7.1027,-7.0403,-7.0073,-6.9596,-6.8715,-6.8825,-6.9192,-6.9119,-6.9045,-6.8715,-6.8274,-6.7981,-6.8044,-6.8017,-6.8128,-6.8495,-6.8715,-6.9009,-6.8605,-6.8238,-6.8017,-6.7824,-6.7824,-6.7741,-6.7741,-6.7794,-6.7926,-6.7978,-6.803,-6.8107,-6.8208,-6.8284,-6.8334,-6.8371,-6.8395,-6.8444,-6.8407,-6.837,-6.8333,-6.8333,-6.8333,-6.8258,-6.8184,-6.7465,-6.6871,-6.6685,-6.6462,-6.6462,-6.6462,-6.6462,-6.6425,-6.6351,-6.6337,-6.6296,-6.629,-6.6097,-6.5708,-6.5459,-6.5202,-6.4987,-6.4724,-6.4275,-6.4203,-6.4284,-6.4247,-6.4021,-6.3683,-6.3233,-6.2444,-6.1693,-6.098,-6.0567,-6.0229,-5.9778,-5.9515,-5.9403,-5.9365,-5.929,-5.929,-5.929,-5.929,-5.929,-7.2642,-7.2532,-7.2496,-7.2496,-7.2496,-7.2496,-7.2532,-7.2496,-7.2532,-7.2532,-7.2532,-7.2532,-7.2532,-7.2532,-7.2532,-7.2532,-7.2532,-7.2532,-7.2532,-7.2532,-7.2532,-7.2532,-7.2532,-7.2532,-7.2532,-7.2532,-7.2532,-7.2496,-7.2496,-7.2349,-7.2312,-7.2459,-7.2459,-7.1615,-7.044,-7.0257,-7.0293,-6.9486,-6.9743,-7.0403,-6.9963,-6.9889,-6.9853,-6.9669,-6.9633,-6.9633,-6.9633,-6.9633,-6.9706,-6.9816,-6.9816,-6.9412,-6.8972,-6.8632,-6.8412,-6.8035,-6.7978,-6.7894,-6.7947,-6.803,-6.8107,-6.8183,-6.8284,-6.8383,-6.8432,-6.8432,-6.8457,-6.8457,-6.8481,-6.8481,-6.8444,-6.8444,-6.8444,-6.8444,-6.8407,-6.837,-6.806,-6.7948,-6.7874,-6.78,-6.78,-6.78,-6.78,-6.7688,-6.7465,-6.7402,-6.7235,-6.7156,-6.6822,-6.6618,-6.6411,-6.6078,-6.5724,-6.4977,-6.4452,-6.4281,-6.4284,-6.4284,-6.4209,-6.3909,-6.3571,-6.3158,-6.2444,-6.1768,-6.1168,-6.0717,-6.0266,-5.9929,-5.9591,-5.9553,-5.9365,-5.929,-5.929,-5.929,-5.929]},{"header":{"parameterUnit":"m.s-1","parameterCategory":1,"la1":31.0,"la2":29.5877,"lo1":-88.7671,"lo2":-86.6584,"dy":0.0162,"dx":0.0185,"nx":115,"ny":88,"refTime":"2023-04-19T00:00:00:Z","depth":0,"parameterNumber":3,"parameterNumberName":"V-component_of_WINDS"},"data":[0.0,0.0,0.0,0.0,0.0,0.0,0.0,0.0,0.0,0.0,0.0,0.0,0.0,0.0,0.0,0.0,0.0,0.0,0.0,0.0,0.0,0.0,0.0,0.0,0.0,0.0,0.0,0.0,0.0,0.0,0.0,0.0,0.0,0.0,0.0,0.0,0.0,0.0,0.0,0.0,0.0,0.0,0.0,0.0,0.0,0.0,0.0,0.0,0.0,0.0,0.0,0.0,0.0,0.0,0.0,0.0,0.0,0.0,0.0,0.0,0.0,0.0,0.0,0.0,0.0,0.0,0.0,0.0,0.0,0.0,0.0,0.0,0.0,0.0,0.0,0.0,0.0,0.0,0.0,0.0,0.0,0.0,0.0,0.0,0.0,0.0,0.0,0.0,0.0,0.0,0.0,0.0,0.0,0.0,0.0,0.0,0.0,0.0,0.0,0.0,0.0,0.0,0.0,0.0,0.0,0.0,0.0,0.0,0.0,0.0,0.0,0.0,0.0,0.0,0.0,0.0,0.0,0.0,0.0,0.0,0.0,0.0,0.0,0.0,0.0,0.0,0.0,0.0,0.0,0.0,0.0,0.0,0.0,0.0,0.0,0.0,0.0,0.0,0.0,0.0,0.0,0.0,0.0,0.0,0.0,0.0,0.0,0.0,0.0,0.0,0.0,0.0,0.0,0.0,0.0,0.0,0.0,0.0,0.0,0.0,0.0,0.0,0.0,0.0,0.0,0.0,0.0,0.0,0.0,0.0,0.0,0.0,0.0,0.0,0.0,0.0,0.0,0.0,0.0,0.0,0.0,0.0,0.0,0.0,0.0,0.0,0.0,0.0,0.0,0.0,0.0,0.0,0.0,0.0,0.0,0.0,0.0,0.0,0.0,0.0,0.0,0.0,0.0,0.0,0.0,0.0,0.0,0.0,0.0,0.0,0.0,0.0,0.0,0.0,0.0,0.0,0.0,0.0,0.0,0.0,0.0,0.0,0.0,0.0,0.0,0.0,0.0,0.0,0.0,0.0,0.0,0.0,0.0,0.0,0.0,0.0,0.0,0.0,0.0,0.0,0.0,0.0,0.0,0.0,0.0,0.0,0.0,0.0,0.0,0.0,0.0,0.0,0.0,0.0,0.0,0.0,0.0,0.0,0.0,0.0,0.0,0.0,0.0,0.0,0.0,0.0,0.0,0.0,0.0,0.0,0.0,0.0,0.0,0.0,0.0,0.0,0.0,0.0,0.0,0.0,0.0,0.0,0.0,0.0,0.0,0.0,0.0,0.0,0.0,0.0,0.0,0.0,0.0,0.0,0.0,0.0,0.0,0.0,0.0,0.0,0.0,0.0,0.0,0.0,0.0,0.0,0.0,0.0,0.0,0.0,0.0,0.0,0.0,0.0,0.0,0.0,0.0,0.0,0.0,0.0,0.0,0.0,0.0,0.0,0.0,0.0,0.0,0.0,0.0,0.0,0.0,0.0,0.0,0.0,0.0,0.0,0.0,0.0,0.0,0.0,0.0,0.0,0.0,0.0,0.0,0.0,0.0,0.0,0.0,0.0,0.0,0.0,0.0,0.0,0.0,0.0,0.0,0.0,0.0,0.0,0.0,0.0,0.0,0.0,0.0,0.0,0.0,0.0,0.0,0.0,0.0,0.0,0.0,0.0,0.0,0.0,0.0,0.0,0.0,0.0,0.0,0.0,0.0,0.0,0.0,0.0,0.0,0.0,0.0,0.0,0.0,0.0,0.0,0.0,0.0,0.0,0.0,0.0,0.0,0.0,0.0,0.0,0.0,0.0,0.0,0.0,0.0,0.0,0.0,0.0,0.0,0.0,0.0,0.0,0.0,0.0,0.0,0.0,0.0,0.0,0.0,0.0,0.0,0.0,0.0,0.0,0.0,0.0,0.0,0.0,0.0,0.0,0.0,0.0,0.0,0.0,0.0,0.0,0.0,0.0,0.0,0.0,0.0,0.0,0.0,0.0,0.0,0.0,0.0,0.0,0.0,0.0,0.0,0.0,0.0,0.0,0.0,0.0,0.0,0.0,0.0,0.0,0.0,0.0,0.0,0.0,0.0,0.0,0.0,0.0,0.0,0.0,0.0,0.0,0.0,0.0,0.0,0.0,0.0,0.0,0.0,0.0,0.0,0.0,0.0,0.0,0.0,0.0,0.0,0.0,0.0,0.0,0.0,0.0,0.0,0.0,0.0,0.0,0.0,0.0,0.0,0.0,0.0,0.0,0.0,0.0,0.0,0.0,0.0,0.0,0.0,0.0,0.0,0.0,0.0,0.0,0.0,0.0,0.0,0.0,0.0,0.0,0.0,0.0,0.0,0.0,0.0,0.0,0.0,0.0,0.0,0.0,0.0,0.0,0.0,0.0,0.0,0.0,0.0,0.0,0.0,0.0,0.0,0.0,0.0,0.0,0.0,0.0,0.0,0.0,0.0,0.0,0.0,0.0,0.0,0.0,0.0,0.0,0.0,0.0,0.0,0.0,0.0,0.0,0.0,0.0,0.0,0.0,0.0,0.0,0.0,0.0,0.0,0.0,0.0,0.0,0.0,0.0,0.0,0.0,0.0,0.0,0.0,0.0,0.0,0.0,0.0,0.0,0.0,0.0,0.0,0.0,0.0,0.0,0.0,0.0,0.0,0.0,0.0,0.0,0.0,0.0,0.0,0.0,0.0,0.0,0.0,0.0,0.0,0.0,0.0,0.0,0.0,0.0,0.0,0.0,0.0,0.0,0.0,0.0,0.0,0.0,0.0,0.0,0.0,0.0,0.0,0.0,0.0,0.0,0.0,0.0,0.0,0.0,0.0,0.0,0.0,0.0,0.0,0.0,0.0,0.0,0.0,0.0,0.0,0.0,0.0,0.0,0.0,0.0,0.0,0.0,0.0,0.0,0.0,0.0,0.0,0.0,0.0,0.0,0.0,0.0,0.0,0.0,0.0,0.0,0.0,0.0,0.0,0.0,0.0,0.0,0.0,0.0,0.0,0.0,0.0,0.0,0.0,0.0,0.0,0.0,0.0,0.0,0.0,0.0,0.0,0.0,0.0,0.0,0.0,0.0,0.0,0.0,0.0,0.0,0.0,0.0,0.0,0.0,0.0,0.0,0.0,0.0,0.0,0.0,0.0,0.0,0.0,0.0,0.0,0.0,0.0,0.0,0.0,0.0,0.0,0.0,0.0,0.0,0.0,0.0,0.0,0.0,0.0,0.0,0.0,0.0,0.0,0.0,0.0,0.0,0.0,0.0,0.0,0.0,0.0,0.0,0.0,0.0,0.0,0.0,0.0,0.0,0.0,0.0,0.0,0.0,0.0,0.0,0.0,0.0,0.0,0.0,0.0,0.0,0.0,0.0,0.0,0.0,0.0,0.0,0.0,0.0,0.0,0.0,0.0,0.0,0.0,0.0,0.0,0.0,0.0,0.0,0.0,0.0,0.0,0.0,0.0,0.0,0.0,0.0,0.0,0.0,0.0,0.0,0.0,0.0,0.0,0.0,0.0,0.0,0.0,0.0,0.0,0.0,0.0,0.0,0.0,0.0,0.0,0.0,0.0,0.0,0.0,0.0,0.0,0.0,0.0,0.0,0.0,0.0,0.0,0.0,0.0,0.0,0.0,0.0,0.0,0.0,0.0,0.0,0.0,0.0,0.0,0.0,0.0,0.0,0.0,0.0,0.0,0.0,0.0,0.0,0.0,0.0,0.0,0.0,0.0,0.0,0.0,0.0,0.0,0.0,0.0,0.0,0.0,0.0,0.0,0.0,0.0,0.0,0.0,0.0,0.0,0.0,0.0,0.0,0.0,0.0,0.0,0.0,0.0,0.0,0.0,0.0,0.0,0.0,0.0,0.0,0.0,0.0,0.0,0.0,0.0,0.0,0.0,0.0,0.0,0.0,0.0,0.0,0.0,0.0,0.0,0.0,0.0,0.0,0.0,0.0,0.0,0.0,0.0,0.0,0.0,0.0,0.0,0.0,0.0,0.0,0.0,0.0,0.0,0.0,0.0,0.0,0.0,0.0,0.0,0.0,0.0,0.0,0.0,0.0,0.0,0.0,0.0,0.0,0.0,0.0,0.0,0.0,0.0,0.0,0.0,0.0,0.0,0.0,0.0,0.0,0.0,0.0,0.0,0.0,0.0,0.0,0.0,0.0,0.0,0.0,0.0,0.0,0.0,0.0,0.0,0.0,0.0,0.0,0.0,0.0,0.0,0.0,0.0,0.0,0.0,0.0,0.0,0.0,0.0,0.0,0.0,0.0,0.0,0.0,0.0,0.0,-2.3101,0.0,0.0,0.0,0.0,0.0,0.0,0.0,0.0,0.0,0.0,0.0,0.0,0.0,0.0,0.0,0.0,0.0,0.0,0.0,0.0,0.0,0.0,0.0,0.0,0.0,0.0,0.0,0.0,0.0,0.0,0.0,0.0,0.0,0.0,0.0,0.0,0.0,0.0,0.0,0.0,0.0,0.0,0.0,0.0,0.0,0.0,0.0,0.0,0.0,0.0,0.0,0.0,0.0,0.0,0.0,0.0,0.0,0.0,0.0,0.0,0.0,0.0,0.0,0.0,0.0,0.0,0.0,0.0,0.0,0.0,0.0,0.0,0.0,0.0,0.0,0.0,0.0,0.0,0.0,0.0,0.0,0.0,0.0,0.0,0.0,0.0,0.0,0.0,0.0,0.0,0.0,0.0,0.0,0.0,0.0,0.0,0.0,0.0,0.0,0.0,0.0,0.0,0.0,0.0,0.0,0.0,0.0,0.0,0.0,0.0,-2.3101,-2.3101,-2.3101,-2.3101,-2.3101,0.0,0.0,0.0,0.0,0.0,0.0,0.0,0.0,0.0,0.0,0.0,0.0,0.0,0.0,0.0,0.0,0.0,0.0,0.0,0.0,0.0,0.0,0.0,0.0,0.0,0.0,0.0,0.0,0.0,0.0,0.0,0.0,0.0,0.0,0.0,0.0,0.0,0.0,0.0,0.0,0.0,0.0,0.0,0.0,0.0,0.0,0.0,0.0,0.0,0.0,0.0,0.0,0.0,0.0,0.0,0.0,0.0,0.0,0.0,0.0,0.0,0.0,0.0,0.0,0.0,0.0,0.0,0.0,0.0,0.0,0.0,0.0,0.0,0.0,0.0,0.0,0.0,0.0,0.0,0.0,0.0,0.0,0.0,0.0,0.0,0.0,0.0,0.0,0.0,0.0,0.0,0.0,0.0,0.0,0.0,0.0,0.0,0.0,0.0,0.0,0.0,0.0,0.0,0.0,0.0,0.0,0.0,0.0,0.0,0.0,0.0,0.0,-2.3101,-2.3101,-2.3101,0.0,0.0,0.0,0.0,0.0,0.0,0.0,0.0,0.0,0.0,0.0,0.0,0.0,0.0,0.0,0.0,0.0,0.0,0.0,0.0,0.0,0.0,0.0,0.0,0.0,0.0,0.0,0.0,0.0,0.0,0.0,0.0,0.0,0.0,0.0,0.0,0.0,0.0,0.0,0.0,0.0,0.0,0.0,0.0,0.0,0.0,0.0,0.0,0.0,0.0,0.0,0.0,0.0,0.0,0.0,0.0,0.0,0.0,0.0,0.0,0.0,0.0,0.0,0.0,0.0,0.0,0.0,0.0,0.0,0.0,0.0,0.0,0.0,0.0,0.0,0.0,0.0,0.0,0.0,0.0,0.0,0.0,0.0,0.0,0.0,0.0,0.0,0.0,0.0,0.0,0.0,0.0,0.0,0.0,0.0,0.0,0.0,0.0,0.0,0.0,0.0,0.0,0.0,0.0,0.0,0.0,0.0,0.0,0.0,0.0,-2.3101,-2.3101,-2.3101,0.0,-2.3101,0.0,0.0,0.0,0.0,0.0,0.0,0.0,0.0,0.0,0.0,0.0,0.0,0.0,0.0,0.0,0.0,0.0,0.0,0.0,0.0,0.0,0.0,0.0,0.0,0.0,0.0,0.0,0.0,0.0,0.0,0.0,0.0,0.0,0.0,0.0,0.0,0.0,0.0,0.0,0.0,0.0,0.0,0.0,0.0,0.0,0.0,0.0,0.0,0.0,0.0,0.0,0.0,0.0,0.0,0.0,0.0,0.0,0.0,0.0,0.0,0.0,0.0,0.0,0.0,0.0,0.0,0.0,0.0,0.0,0.0,0.0,0.0,0.0,0.0,0.0,0.0,0.0,0.0,0.0,0.0,0.0,0.0,0.0,0.0,0.0,0.0,0.0,0.0,0.0,0.0,0.0,0.0,0.0,0.0,0.0,0.0,0.0,0.0,0.0,0.0,0.0,0.0,0.0,0.0,0.0,0.0,0.0,0.0,0.0,0.0,-2.3516,-2.3516,-2.3237,-2.3101,0.0,0.0,0.0,0.0,0.0,0.0,0.0,0.0,0.0,0.0,0.0,0.0,0.0,0.0,0.0,0.0,0.0,0.0,0.0,0.0,0.0,0.0,0.0,0.0,0.0,0.0,0.0,0.0,0.0,0.0,0.0,0.0,0.0,0.0,0.0,0.0,0.0,0.0,0.0,0.0,0.0,0.0,0.0,0.0,0.0,0.0,0.0,0.0,0.0,0.0,0.0,0.0,0.0,0.0,0.0,0.0,0.0,0.0,0.0,0.0,0.0,0.0,0.0,0.0,0.0,0.0,0.0,0.0,0.0,0.0,0.0,0.0,0.0,0.0,0.0,0.0,0.0,0.0,0.0,0.0,0.0,0.0,0.0,0.0,0.0,0.0,0.0,0.0,0.0,0.0,0.0,0.0,0.0,0.0,0.0,0.0,0.0,0.0,0.0,0.0,0.0,0.0,0.0,0.0,0.0,0.0,0.0,0.0,0.0,0.0,-2.3965,-2.3906,-2.3789,-2.3315,-2.3101,-2.3101,0.0,0.0,0.0,0.0,0.0,0.0,0.0,0.0,0.0,0.0,0.0,0.0,0.0,0.0,0.0,0.0,0.0,0.0,0.0,0.0,0.0,0.0,0.0,0.0,0.0,0.0,0.0,0.0,0.0,0.0,0.0,0.0,0.0,0.0,0.0,0.0,0.0,0.0,0.0,0.0,0.0,0.0,0.0,0.0,0.0,0.0,0.0,0.0,0.0,0.0,0.0,0.0,0.0,0.0,0.0,0.0,0.0,0.0,0.0,0.0,0.0,0.0,0.0,0.0,0.0,0.0,0.0,0.0,0.0,0.0,0.0,0.0,0.0,0.0,0.0,0.0,0.0,0.0,0.0,0.0,0.0,0.0,0.0,0.0,0.0,0.0,0.0,0.0,0.0,0.0,0.0,0.0,0.0,0.0,0.0,0.0,0.0,0.0,0.0,0.0,0.0,0.0,0.0,0.0,0.0,0.0,0.0,0.0,-2.4375,-2.4375,-2.4199,-2.3809,-2.3359,-2.3101,0.0,0.0,0.0,0.0,0.0,0.0,0.0,0.0,0.0,0.0,0.0,0.0,0.0,0.0,0.0,0.0,0.0,0.0,0.0,0.0,0.0,0.0,0.0,0.0,0.0,0.0,0.0,0.0,0.0,0.0,0.0,0.0,0.0,0.0,0.0,0.0,0.0,0.0,0.0,0.0,0.0,0.0,0.0,0.0,0.0,0.0,0.0,0.0,0.0,0.0,0.0,0.0,0.0,0.0,0.0,0.0,0.0,0.0,0.0,0.0,0.0,0.0,0.0,0.0,0.0,0.0,0.0,0.0,0.0,0.0,0.0,0.0,0.0,0.0,0.0,0.0,0.0,0.0,0.0,0.0,0.0,0.0,0.0,0.0,0.0,0.0,0.0,0.0,0.0,0.0,0.0,0.0,0.0,0.0,0.0,0.0,0.0,0.0,0.0,0.0,0.0,0.0,0.0,0.0,0.0,0.0,0.0,0.0,0.0,-2.4805,-2.457,-2.4336,-2.418,-2.3471,-2.3101,0.0,0.0,0.0,0.0,0.0,0.0,0.0,0.0,0.0,0.0,0.0,0.0,0.0,0.0,0.0,0.0,0.0,0.0,0.0,0.0,0.0,0.0,0.0,0.0,0.0,0.0,0.0,0.0,0.0,0.0,0.0,0.0,0.0,0.0,0.0,0.0,0.0,0.0,0.0,0.0,0.0,0.0,0.0,0.0,0.0,0.0,0.0,0.0,0.0,0.0,0.0,0.0,0.0,0.0,0.0,0.0,0.0,0.0,0.0,0.0,0.0,0.0,0.0,0.0,0.0,0.0,0.0,0.0,0.0,0.0,0.0,0.0,0.0,0.0,0.0,0.0,0.0,0.0,0.0,0.0,0.0,0.0,0.0,0.0,0.0,0.0,0.0,0.0,0.0,0.0,0.0,0.0,0.0,0.0,0.0,0.0,0.0,0.0,0.0,0.0,0.0,0.0,0.0,0.0,0.0,0.0,0.0,0.0,0.0,-2.5254,0.0,-2.457,0.0,-2.373,-2.3237,0.0,0.0,0.0,0.0,0.0,0.0,0.0,0.0,0.0,0.0,0.0,0.0,0.0,0.0,0.0,0.0,0.0,0.0,0.0,0.0,0.0,0.0,0.0,0.0,0.0,0.0,0.0,0.0,0.0,0.0,0.0,0.0,0.0,0.0,0.0,0.0,0.0,0.0,0.0,0.0,0.0,0.0,0.0,0.0,0.0,0.0,0.0,0.0,0.0,0.0,0.0,0.0,0.0,0.0,0.0,0.0,0.0,0.0,0.0,0.0,0.0,0.0,0.0,0.0,0.0,0.0,0.0,0.0,0.0,0.0,0.0,0.0,0.0,0.0,0.0,0.0,0.0,0.0,0.0,0.0,0.0,0.0,0.0,0.0,0.0,0.0,0.0,0.0,0.0,0.0,0.0,0.0,0.0,0.0,0.0,0.0,0.0,0.0,0.0,0.0,0.0,0.0,0.0,0.0,0.0,0.0,0.0,0.0,-2.5293,-2.5635,-2.5293,-2.4844,-2.4434,-2.4004,-2.3574,0.0,0.0,0.0,0.0,0.0,0.0,0.0,0.0,0.0,0.0,0.0,0.0,0.0,0.0,0.0,0.0,0.0,0.0,0.0,0.0,0.0,0.0,0.0,0.0,0.0,0.0,0.0,0.0,0.0,0.0,0.0,0.0,0.0,0.0,0.0,0.0,0.0,0.0,0.0,0.0,0.0,0.0,0.0,0.0,0.0,0.0,0.0,0.0,0.0,0.0,0.0,0.0,0.0,0.0,0.0,0.0,0.0,0.0,0.0,0.0,0.0,0.0,0.0,0.0,0.0,0.0,0.0,0.0,0.0,0.0,0.0,0.0,0.0,0.0,0.0,0.0,0.0,0.0,0.0,0.0,0.0,0.0,0.0,0.0,0.0,0.0,0.0,0.0,0.0,0.0,0.0,0.0,0.0,0.0,0.0,0.0,0.0,0.0,0.0,0.0,0.0,0.0,0.0,0.0,0.0,0.0,0.0,0.0,0.0,-2.5674,-2.5293,-2.5,-2.4844,-2.416,-2.373,0.0,0.0,0.0,0.0,0.0,0.0,0.0,0.0,0.0,0.0,0.0,0.0,0.0,0.0,0.0,0.0,0.0,0.0,0.0,0.0,0.0,0.0,0.0,0.0,0.0,0.0,0.0,0.0,0.0,0.0,0.0,0.0,0.0,0.0,0.0,0.0,0.0,0.0,0.0,0.0,0.0,0.0,0.0,0.0,0.0,0.0,0.0,0.0,0.0,0.0,0.0,0.0,0.0,0.0,0.0,0.0,0.0,0.0,0.0,0.0,0.0,0.0,0.0,0.0,0.0,0.0,0.0,0.0,0.0,0.0,0.0,0.0,0.0,0.0,0.0,0.0,0.0,0.0,0.0,0.0,0.0,0.0,0.0,0.0,0.0,0.0,0.0,0.0,0.0,0.0,0.0,0.0,0.0,0.0,0.0,0.0,0.0,0.0,0.0,0.0,0.0,0.0,0.0,0.0,0.0,0.0,0.0,0.0,0.0,-2.6181,-2.625,-2.6191,-2.6035,-2.5352,-2.4687,-2.4043,0.0,0.0,0.0,0.0,0.0,0.0,0.0,0.0,0.0,0.0,0.0,0.0,0.0,0.0,0.0,0.0,0.0,0.0,0.0,0.0,0.0,0.0,0.0,0.0,0.0,0.0,0.0,0.0,0.0,0.0,0.0,0.0,0.0,0.0,0.0,0.0,0.0,0.0,0.0,0.0,0.0,0.0,0.0,0.0,0.0,0.0,0.0,0.0,0.0,0.0,0.0,0.0,0.0,0.0,0.0,0.0,0.0,0.0,0.0,0.0,0.0,0.0,0.0,0.0,0.0,0.0,0.0,0.0,0.0,0.0,0.0,0.0,0.0,0.0,0.0,0.0,0.0,0.0,0.0,0.0,0.0,0.0,0.0,0.0,0.0,0.0,0.0,0.0,0.0,0.0,0.0,0.0,0.0,0.0,0.0,0.0,0.0,0.0,0.0,0.0,0.0,0.0,0.0,0.0,0.0,0.0,0.0,0.0,-2.7187,-2.8008,-2.8203,-2.7787,-2.7246,-2.625,0.0,0.0,0.0,0.0,0.0,0.0,0.0,0.0,0.0,0.0,0.0,0.0,0.0,0.0,0.0,0.0,0.0,0.0,0.0,0.0,0.0,0.0,0.0,0.0,0.0,0.0,0.0,0.0,0.0,0.0,0.0,0.0,0.0,0.0,0.0,0.0,0.0,0.0,0.0,0.0,0.0,0.0,0.0,0.0,0.0,0.0,0.0,0.0,0.0,0.0,0.0,0.0,0.0,0.0,0.0,0.0,0.0,0.0,0.0,0.0,0.0,0.0,0.0,0.0,0.0,0.0,0.0,0.0,0.0,0.0,0.0,0.0,0.0,0.0,0.0,0.0,0.0,0.0,0.0,0.0,0.0,0.0,0.0,0.0,0.0,0.0,0.0,0.0,0.0,0.0,0.0,0.0,0.0,0.0,0.0,0.0,0.0,0.0,0.0,0.0,0.0,0.0,0.0,0.0,0.0,0.0,0.0,0.0,0.0,-2.9316,-2.9922,-2.9687,-2.8613,-2.7559,-2.6797,0.0,0.0,0.0,0.0,0.0,0.0,0.0,0.0,0.0,0.0,0.0,0.0,0.0,0.0,0.0,0.0,0.0,0.0,0.0,0.0,0.0,0.0,0.0,0.0,0.0,0.0,0.0,0.0,0.0,0.0,0.0,0.0,0.0,0.0,0.0,0.0,0.0,0.0,0.0,0.0,0.0,0.0,0.0,0.0,0.0,0.0,0.0,0.0,0.0,0.0,0.0,0.0,0.0,0.0,0.0,0.0,0.0,0.0,0.0,0.0,0.0,0.0,0.0,0.0,0.0,0.0,0.0,0.0,0.0,0.0,0.0,0.0,0.0,0.0,0.0,0.0,0.0,0.0,0.0,0.0,0.0,0.0,0.0,0.0,0.0,0.0,0.0,0.0,0.0,0.0,0.0,0.0,0.0,0.0,0.0,0.0,0.0,0.0,0.0,0.0,0.0,0.0,0.0,0.0,0.0,0.0,0.0,0.0,-2.8628,-2.9902,-3.0918,-3.1055,-3.0312,-2.8867,-2.7832,0.0,0.0,0.0,0.0,0.0,0.0,0.0,0.0,0.0,0.0,0.0,0.0,0.0,0.0,0.0,0.0,0.0,0.0,0.0,0.0,0.0,0.0,0.0,0.0,0.0,0.0,0.0,0.0,0.0,0.0,0.0,0.0,0.0,0.0,0.0,0.0,0.0,0.0,0.0,0.0,0.0,0.0,0.0,0.0,0.0,0.0,0.0,0.0,0.0,0.0,0.0,0.0,0.0,0.0,0.0,0.0,0.0,0.0,0.0,0.0,0.0,0.0,0.0,0.0,0.0,0.0,0.0,0.0,0.0,0.0,0.0,0.0,0.0,0.0,0.0,0.0,0.0,0.0,0.0,0.0,0.0,0.0,0.0,0.0,0.0,0.0,0.0,0.0,0.0,0.0,0.0,0.0,0.0,0.0,0.0,0.0,0.0,0.0,0.0,0.0,0.0,0.0,0.0,0.0,0.0,0.0,0.0,0.0,-2.8769,-2.9766,-3.125,-3.209,-3.2109,-3.0527,-2.9062,0.0,0.0,0.0,0.0,0.0,0.0,0.0,0.0,0.0,0.0,0.0,0.0,0.0,0.0,0.0,0.0,0.0,0.0,0.0,0.0,0.0,0.0,0.0,0.0,0.0,0.0,0.0,0.0,0.0,0.0,0.0,0.0,0.0,0.0,0.0,0.0,0.0,0.0,0.0,0.0,0.0,0.0,0.0,0.0,0.0,0.0,0.0,0.0,0.0,0.0,0.0,0.0,0.0,0.0,0.0,0.0,0.0,0.0,0.0,0.0,0.0,0.0,0.0,0.0,0.0,0.0,0.0,0.0,0.0,0.0,0.0,0.0,0.0,0.0,0.0,0.0,0.0,0.0,0.0,0.0,0.0,0.0,0.0,0.0,0.0,0.0,0.0,0.0,0.0,0.0,0.0,0.0,0.0,0.0,0.0,0.0,0.0,0.0,0.0,0.0,0.0,0.0,0.0,0.0,0.0,0.0,0.0,0.0,-2.9199,-3.1035,-3.1133,-3.1484,-3.2209,-3.0801,-2.9629,0.0,0.0,0.0,0.0,0.0,0.0,0.0,0.0,0.0,0.0,0.0,0.0,0.0,0.0,0.0,0.0,0.0,0.0,0.0,0.0,0.0,0.0,0.0,0.0,0.0,0.0,0.0,0.0,0.0,0.0,0.0,0.0,0.0,0.0,0.0,0.0,0.0,0.0,0.0,0.0,0.0,0.0,0.0,0.0,0.0,0.0,0.0,0.0,-1.8263,0.0,0.0,0.0,0.0,0.0,0.0,0.0,0.0,0.0,0.0,0.0,0.0,0.0,0.0,0.0,0.0,0.0,0.0,0.0,0.0,0.0,0.0,0.0,0.0,0.0,0.0,0.0,0.0,0.0,0.0,0.0,0.0,0.0,0.0,0.0,0.0,0.0,0.0,0.0,0.0,0.0,0.0,0.0,0.0,0.0,0.0,0.0,0.0,0.0,0.0,0.0,0.0,0.0,0.0,0.0,0.0,0.0,0.0,0.0,-2.9531,-3.1426,-3.1309,-3.1406,-3.1816,-3.1191,-3.0215,0.0,0.0,0.0,0.0,0.0,0.0,0.0,0.0,0.0,0.0,0.0,0.0,0.0,0.0,0.0,0.0,0.0,0.0,0.0,0.0,0.0,0.0,0.0,0.0,0.0,0.0,0.0,0.0,0.0,0.0,0.0,0.0,0.0,0.0,0.0,0.0,0.0,0.0,0.0,0.0,0.0,0.0,0.0,0.0,0.0,0.0,0.0,0.0,0.0,0.0,0.0,0.0,0.0,0.0,0.0,0.0,0.0,0.0,0.0,0.0,0.0,0.0,0.0,0.0,0.0,0.0,0.0,0.0,0.0,0.0,0.0,0.0,0.0,0.0,0.0,0.0,0.0,0.0,0.0,0.0,0.0,0.0,0.0,0.0,0.0,0.0,0.0,0.0,0.0,0.0,0.0,0.0,0.0,0.0,0.0,0.0,0.0,0.0,0.0,0.0,0.0,0.0,0.0,0.0,0.0,0.0,0.0,-2.873,-2.9766,-3.1426,-3.1386,-3.1347,-3.1287,-3.1307,-3.0451,-2.882,0.0,0.0,0.0,0.0,0.0,0.0,0.0,0.0,0.0,0.0,0.0,0.0,0.0,0.0,0.0,0.0,0.0,0.0,0.0,0.0,0.0,0.0,0.0,0.0,0.0,0.0,0.0,0.0,0.0,0.0,0.0,0.0,0.0,0.0,0.0,0.0,0.0,0.0,-1.8075,-1.8595,0.0,0.0,0.0,0.0,0.0,0.0,0.0,0.0,-1.8905,0.0,0.0,0.0,0.0,0.0,0.0,0.0,0.0,0.0,0.0,0.0,0.0,0.0,0.0,0.0,0.0,0.0,0.0,0.0,0.0,0.0,0.0,0.0,0.0,0.0,0.0,0.0,0.0,0.0,0.0,0.0,0.0,0.0,0.0,0.0,0.0,0.0,0.0,0.0,0.0,0.0,0.0,0.0,0.0,0.0,0.0,0.0,0.0,0.0,0.0,0.0,0.0,0.0,0.0,0.0,0.0,-2.8789,-2.8887,-2.9766,-3.1465,-3.0917,-3.0605,-3.0547,-3.0389,-2.9584,-2.8233,0.0,0.0,0.0,0.0,0.0,0.0,0.0,0.0,0.0,0.0,0.0,0.0,0.0,0.0,0.0,0.0,0.0,0.0,0.0,0.0,0.0,0.0,0.0,0.0,0.0,0.0,0.0,0.0,0.0,0.0,0.0,0.0,0.0,0.0,0.0,0.0,0.0,0.0,0.0,-1.9078,-1.9399,0.0,0.0,0.0,0.0,0.0,0.0,0.0,0.0,-1.9522,0.0,0.0,0.0,0.0,0.0,0.0,0.0,0.0,0.0,0.0,0.0,0.0,0.0,0.0,0.0,0.0,0.0,0.0,0.0,0.0,0.0,0.0,0.0,0.0,0.0,0.0,0.0,0.0,0.0,0.0,0.0,0.0,0.0,0.0,0.0,0.0,0.0,0.0,0.0,0.0,0.0,0.0,0.0,0.0,0.0,0.0,0.0,0.0,0.0,0.0,0.0,0.0,0.0,0.0,0.0,-2.9199,-2.9707,-3.0449,-3.1465,-3.078,-3.0507,-3.0719,-3.0232,-2.939,0.0,0.0,0.0,0.0,0.0,0.0,0.0,0.0,0.0,0.0,0.0,0.0,0.0,0.0,0.0,0.0,0.0,0.0,0.0,0.0,0.0,0.0,0.0,0.0,0.0,0.0,0.0,0.0,0.0,0.0,0.0,0.0,0.0,0.0,0.0,0.0,0.0,0.0,0.0,0.0,-1.9533,-1.9973,-2.0414,0.0,0.0,0.0,0.0,0.0,0.0,-1.98,-1.9661,0.0,0.0,0.0,0.0,0.0,0.0,0.0,0.0,0.0,0.0,0.0,0.0,0.0,0.0,0.0,0.0,0.0,0.0,0.0,0.0,0.0,0.0,0.0,0.0,0.0,0.0,0.0,0.0,0.0,0.0,0.0,0.0,0.0,0.0,0.0,0.0,0.0,0.0,0.0,0.0,0.0,0.0,0.0,0.0,0.0,0.0,0.0,0.0,0.0,0.0,0.0,0.0,0.0,0.0,0.0,-2.9495,-3.0237,-3.082,-3.1227,-3.0603,-3.0426,-3.0787,-2.9998,-2.9121,0.0,0.0,0.0,0.0,0.0,0.0,0.0,0.0,0.0,0.0,0.0,0.0,0.0,0.0,0.0,0.0,0.0,0.0,0.0,0.0,0.0,0.0,0.0,0.0,0.0,0.0,0.0,0.0,0.0,0.0,0.0,0.0,0.0,0.0,0.0,0.0,0.0,0.0,0.0,0.0,0.0,-2.0468,-2.0869,-2.0388,0.0,0.0,0.0,0.0,-1.9853,-1.9933,0.0,0.0,0.0,0.0,0.0,0.0,0.0,0.0,0.0,0.0,0.0,0.0,0.0,0.0,0.0,0.0,0.0,0.0,0.0,0.0,0.0,0.0,0.0,0.0,0.0,0.0,0.0,0.0,0.0,0.0,0.0,0.0,0.0,0.0,0.0,0.0,0.0,0.0,0.0,0.0,0.0,0.0,0.0,0.0,0.0,0.0,0.0,0.0,0.0,0.0,0.0,0.0,0.0,0.0,0.0,0.0,-2.9084,-2.9374,-2.9868,-3.0531,-2.9952,-2.9774,-3.0167,-2.879,-2.8155,0.0,0.0,0.0,0.0,0.0,0.0,0.0,0.0,0.0,0.0,0.0,0.0,0.0,0.0,0.0,0.0,0.0,0.0,0.0,0.0,0.0,0.0,0.0,0.0,0.0,0.0,0.0,0.0,0.0,0.0,0.0,0.0,0.0,0.0,0.0,0.0,0.0,0.0,0.0,0.0,0.0,-2.0561,-2.03,-2.0481,-2.0401,0.0,0.0,-2.0147,-2.0174,-2.0401,0.0,0.0,0.0,0.0,0.0,0.0,0.0,0.0,0.0,0.0,0.0,0.0,0.0,0.0,0.0,0.0,0.0,0.0,0.0,0.0,0.0,0.0,0.0,0.0,0.0,0.0,0.0,0.0,0.0,0.0,0.0,0.0,0.0,0.0,0.0,0.0,0.0,0.0,0.0,0.0,0.0,0.0,0.0,0.0,0.0,0.0,0.0,0.0,0.0,0.0,0.0,0.0,0.0,0.0,0.0,-2.8754,-2.9715,-3.0386,-3.0721,-3.0768,-3.0423,-3.0293,-3.0419,-2.9153,-2.8425,0.0,0.0,0.0,0.0,0.0,0.0,0.0,0.0,0.0,0.0,0.0,0.0,0.0,0.0,0.0,0.0,0.0,0.0,0.0,0.0,0.0,0.0,0.0,0.0,0.0,0.0,0.0,0.0,0.0,0.0,0.0,0.0,0.0,0.0,0.0,0.0,0.0,0.0,0.0,0.0,0.0,0.0,-2.0748,-2.0842,0.0,0.0,0.0,-2.018,-2.018,0.0,0.0,0.0,0.0,0.0,0.0,0.0,0.0,0.0,0.0,0.0,0.0,0.0,0.0,0.0,0.0,0.0,0.0,0.0,0.0,0.0,0.0,0.0,0.0,0.0,0.0,0.0,0.0,0.0,0.0,0.0,0.0,0.0,0.0,0.0,0.0,0.0,0.0,0.0,0.0,0.0,0.0,0.0,0.0,0.0,0.0,0.0,0.0,0.0,0.0,0.0,0.0,0.0,0.0,0.0,0.0,0.0,-3.0084,-3.1009,-3.1318,-3.0929,-3.0691,-3.0612,-3.0686,-2.9683,0.0,0.0,0.0,0.0,0.0,0.0,0.0,0.0,0.0,0.0,0.0,0.0,0.0,0.0,0.0,0.0,0.0,0.0,0.0,0.0,0.0,0.0,0.0,0.0,0.0,0.0,0.0,-2.4556,0.0,0.0,0.0,0.0,0.0,0.0,0.0,0.0,0.0,0.0,0.0,0.0,0.0,0.0,-2.1002,-2.1002,-2.1056,-2.1082,0.0,0.0,-2.0225,-2.0225,-2.0416,-2.0283,0.0,0.0,0.0,0.0,0.0,0.0,0.0,0.0,0.0,0.0,0.0,0.0,0.0,0.0,0.0,0.0,0.0,0.0,0.0,0.0,0.0,0.0,0.0,0.0,0.0,0.0,0.0,0.0,0.0,0.0,0.0,0.0,0.0,0.0,0.0,0.0,0.0,0.0,0.0,0.0,0.0,0.0,0.0,0.0,0.0,0.0,0.0,0.0,0.0,0.0,0.0,0.0,0.0,0.0,0.0,-2.9787,-3.0452,-3.0841,-3.0806,-3.0431,-3.0431,-3.078,-3.0027,-2.9342,0.0,0.0,0.0,0.0,0.0,0.0,0.0,0.0,0.0,0.0,0.0,0.0,0.0,0.0,0.0,0.0,0.0,0.0,0.0,0.0,0.0,0.0,0.0,0.0,0.0,0.0,0.0,0.0,0.0,0.0,0.0,0.0,0.0,0.0,0.0,0.0,0.0,0.0,0.0,0.0,0.0,-2.0708,-2.0708,-2.0935,-2.1015,0.0,0.0,-2.0221,-2.0221,-2.0142,-1.9953,-1.9405,0.0,0.0,0.0,0.0,0.0,0.0,0.0,0.0,0.0,0.0,0.0,0.0,0.0,0.0,0.0,0.0,0.0,0.0,0.0,0.0,0.0,0.0,0.0,0.0,0.0,0.0,0.0,0.0,0.0,0.0,0.0,0.0,0.0,0.0,0.0,0.0,0.0,0.0,0.0,0.0,0.0,0.0,0.0,0.0,0.0,0.0,0.0,0.0,0.0,0.0,0.0,0.0,0.0,-2.9108,-3.0138,-3.0816,-3.1135,-3.1106,-3.0991,-3.0882,-3.0791,-3.0479,-3.002,0.0,0.0,0.0,0.0,0.0,0.0,0.0,0.0,0.0,0.0,0.0,0.0,0.0,0.0,0.0,0.0,0.0,0.0,0.0,0.0,0.0,0.0,0.0,0.0,0.0,0.0,0.0,0.0,-2.6082,-2.5249,-2.3158,0.0,0.0,0.0,0.0,0.0,0.0,0.0,0.0,0.0,0.0,-2.0735,-2.0922,-2.1042,0.0,0.0,-2.0726,-2.0433,-2.0247,-2.0151,-1.9899,-1.9134,-1.8751,0.0,0.0,0.0,0.0,0.0,0.0,0.0,0.0,0.0,0.0,0.0,0.0,0.0,0.0,0.0,0.0,0.0,0.0,0.0,0.0,0.0,0.0,0.0,0.0,0.0,0.0,0.0,0.0,0.0,0.0,0.0,0.0,0.0,0.0,0.0,0.0,0.0,0.0,0.0,0.0,0.0,0.0,0.0,0.0,0.0,0.0,0.0,0.0,0.0,0.0,0.0,0.0,-2.9203,-3.0098,-3.1071,-3.1505,-3.1336,-3.1359,-3.1249,-3.0974,-3.0974,-3.0589,0.0,0.0,0.0,0.0,0.0,0.0,0.0,0.0,0.0,0.0,0.0,0.0,0.0,0.0,0.0,0.0,0.0,0.0,0.0,0.0,0.0,0.0,0.0,0.0,0.0,0.0,0.0,0.0,-2.56,-2.4473,-2.2979,0.0,0.0,0.0,0.0,0.0,0.0,0.0,0.0,0.0,0.0,-2.0788,-2.1069,-2.1109,-2.1109,-2.1109,-2.076,-2.0401,-2.006,-1.9874,-1.9536,-1.8754,0.0,0.0,0.0,0.0,0.0,0.0,0.0,0.0,0.0,0.0,0.0,0.0,0.0,0.0,0.0,0.0,0.0,0.0,0.0,0.0,0.0,0.0,0.0,0.0,0.0,0.0,0.0,0.0,0.0,0.0,-3.0036,0.0,0.0,0.0,0.0,0.0,0.0,0.0,0.0,0.0,0.0,0.0,0.0,0.0,0.0,0.0,0.0,0.0,0.0,0.0,0.0,0.0,0.0,-2.9203,-2.9468,-3.1009,-3.1717,-3.1423,-3.1377,-3.1377,-3.1359,-3.1359,-3.0992,-3.0185,0.0,0.0,0.0,0.0,0.0,0.0,0.0,0.0,0.0,0.0,0.0,0.0,0.0,0.0,0.0,0.0,0.0,0.0,0.0,0.0,0.0,0.0,0.0,0.0,0.0,0.0,-2.4787,-2.3214,-2.2283,0.0,0.0,0.0,0.0,0.0,0.0,0.0,0.0,0.0,0.0,-2.0481,-2.0775,-2.1056,-2.1096,-2.1082,-2.1096,-2.0526,-2.0055,-1.9775,-1.9175,-1.8652,0.0,0.0,0.0,0.0,0.0,0.0,0.0,0.0,0.0,0.0,0.0,0.0,0.0,0.0,0.0,0.0,0.0,0.0,0.0,0.0,0.0,0.0,0.0,0.0,0.0,0.0,0.0,-3.3151,-3.3195,0.0,0.0,0.0,0.0,0.0,0.0,0.0,0.0,0.0,0.0,0.0,-3.2773,-3.2793,0.0,0.0,0.0,0.0,0.0,0.0,0.0,0.0,0.0,0.0,0.0,0.0,-2.9257,-2.9446,-3.0821,-3.1506,-3.1377,-3.1377,-3.1377,-3.1377,-3.1377,-3.1011,-3.0222,0.0,0.0,0.0,0.0,0.0,0.0,0.0,0.0,0.0,0.0,0.0,0.0,0.0,0.0,0.0,0.0,0.0,0.0,0.0,0.0,0.0,0.0,0.0,0.0,0.0,-2.559,0.0,0.0,0.0,0.0,0.0,0.0,0.0,0.0,0.0,0.0,0.0,-1.9987,-2.0468,-2.0281,-2.0267,-2.0748,-2.0655,-2.0601,0.0,0.0,0.0,0.0,0.0,0.0,0.0,0.0,0.0,0.0,0.0,0.0,0.0,0.0,-1.7696,-1.7515,-1.7636,-1.7756,-1.7756,0.0,0.0,0.0,0.0,0.0,0.0,0.0,0.0,0.0,0.0,0.0,0.0,0.0,0.0,-3.4501,0.0,-3.4147,0.0,0.0,0.0,0.0,0.0,0.0,0.0,0.0,-3.3965,-3.4355,-3.4336,-3.4316,-3.4023,0.0,-3.3027,-3.2107,0.0,0.0,0.0,0.0,0.0,0.0,0.0,0.0,-2.9173,-2.9531,-3.0751,-3.1377,-3.1377,-3.1377,-3.1377,-3.1377,-3.1377,-3.1139,-3.0626,-3.0075,-2.9305,0.0,0.0,0.0,0.0,0.0,0.0,0.0,0.0,0.0,0.0,0.0,0.0,0.0,0.0,0.0,0.0,0.0,0.0,0.0,0.0,0.0,0.0,0.0,-2.5306,0.0,0.0,0.0,0.0,0.0,0.0,0.0,0.0,0.0,-1.98,-1.9893,-2.0094,-2.0468,-2.0281,-2.0201,-2.0481,0.0,0.0,0.0,0.0,0.0,0.0,0.0,-1.8667,-1.8494,-1.8432,-1.8432,-1.8432,-1.836,-1.83,-1.83,0.0,0.0,-1.807,-1.8167,-1.83,-1.83,-1.83,-1.83,-1.83,-1.83,-1.83,0.0,0.0,0.0,0.0,0.0,0.0,0.0,0.0,-3.5415,-3.5066,0.0,-3.474,0.0,0.0,0.0,0.0,0.0,-3.3711,0.0,0.0,-3.6426,-3.6836,-3.6055,-3.6016,-3.5586,-3.4746,-3.4336,-3.3714,-3.2931,-3.1715,0.0,0.0,0.0,0.0,0.0,0.0,-2.9124,-2.9659,-3.0835,-3.1377,-3.1377,-3.1377,-3.1377,-3.1377,-3.1377,-3.1359,-3.1341,-3.0644,-3.0222,-3.0167,-2.87,0.0,0.0,0.0,0.0,0.0,0.0,0.0,0.0,0.0,0.0,0.0,0.0,0.0,0.0,0.0,0.0,0.0,0.0,0.0,0.0,-2.5492,0.0,0.0,0.0,0.0,0.0,0.0,0.0,0.0,0.0,0.0,-1.9826,-2.0054,-2.018,-2.0193,0.0,0.0,0.0,0.0,-2.0975,-2.0722,-2.0344,-1.9966,-1.9699,-1.9112,-1.8686,-1.8674,0.0,0.0,-1.8698,-1.8481,-1.8312,-1.8312,-1.8505,-1.8589,-1.8336,-1.83,-1.8324,-1.8312,-1.8312,-1.83,-1.83,-1.83,-1.83,-3.6076,0.0,0.0,0.0,0.0,-3.5952,-3.6456,-3.7182,-3.7114,-3.6828,-3.6504,-3.626,0.0,0.0,0.0,0.0,0.0,0.0,-3.541,-3.6113,-3.6621,-3.6719,-3.6484,-3.6484,-3.6191,-3.5644,-3.5258,-3.4854,-3.4298,-3.3426,-3.2086,-3.0265,0.0,0.0,0.0,0.0,-2.9791,-3.0039,-3.0919,-3.1377,-3.1377,-3.1377,-3.1377,-3.1377,-3.1377,-3.1377,-3.1377,-3.1157,-3.0772,-3.0222,-2.9764,0.0,0.0,0.0,0.0,0.0,0.0,0.0,0.0,0.0,0.0,0.0,0.0,0.0,0.0,0.0,0.0,0.0,0.0,0.0,-2.5789,-2.4671,-2.3461,0.0,0.0,0.0,0.0,0.0,0.0,0.0,0.0,0.0,-2.0107,-2.0113,-2.0307,0.0,0.0,-2.0401,-2.0535,-2.0508,-2.0535,-2.0655,-2.0019,0.0,0.0,-1.9112,-1.8686,-1.8686,-1.8843,-1.8963,-1.8963,-1.8746,-1.8565,-1.8577,-1.8481,-1.8384,-1.8324,-1.8444,-1.8553,-1.8565,-1.842,-1.83,-1.83,-1.83,-1.8348,-3.7411,-3.6348,-3.6436,-3.6596,-3.6881,-3.708,-3.756,-3.8098,-3.8078,-3.7928,-3.7539,-3.7461,-3.6875,-3.5879,-3.543,0.0,0.0,0.0,-3.6523,-3.7168,-3.7168,-3.709,-3.6914,-3.6758,-3.6445,-3.5967,-3.5811,-3.5401,-3.4902,-3.4301,-3.3115,-3.1376,0.0,0.0,-2.958,-3.0032,-3.0371,-3.0442,-3.1066,-3.1377,-3.1377,-3.1377,-3.1377,-3.1377,-3.1377,-3.1377,-3.1377,-3.1377,-3.1157,-3.0681,-3.0516,-3.0039,0.0,0.0,0.0,0.0,0.0,0.0,0.0,0.0,0.0,0.0,0.0,-2.6958,0.0,0.0,0.0,0.0,-2.7096,-2.6593,-2.572,-2.4404,0.0,0.0,0.0,0.0,0.0,0.0,0.0,-1.9733,-2.0013,-2.018,-2.018,-2.0334,-2.0468,-2.0655,-2.0521,-2.0428,-2.0494,0.0,-2.0429,-2.0668,-1.9996,-1.9511,-1.9814,-1.9285,-1.8906,-1.8843,-1.8963,-1.9072,-1.9124,-1.8867,-1.8698,-1.865,-1.8469,-1.83,-1.83,-1.8348,-1.8408,-1.8505,-1.8408,-1.83,-1.83,-1.83,-1.8372,-3.8086,-3.7395,-3.7629,-3.7738,-3.7817,-3.8252,-3.8452,-3.8516,-3.8555,-3.8359,-3.8008,-3.8398,-3.793,-3.6816,-3.6406,0.0,-3.6836,-3.7226,-3.7578,-3.793,-3.7891,-3.7656,-3.7226,-3.6816,-3.6406,-3.6035,-3.5947,-3.5606,-3.4902,-3.4524,-3.379,-3.268,-3.1946,-3.1267,-3.0705,-3.077,-3.0846,-3.0846,-3.1194,-3.1377,-3.1377,-3.1377,-3.1377,-3.1377,-3.1377,-3.1377,-3.1377,-3.1377,-3.1377,-3.1359,-3.1029,-3.0662,-3.0241,0.0,0.0,0.0,0.0,0.0,0.0,0.0,0.0,0.0,0.0,0.0,0.0,0.0,0.0,0.0,-2.7723,0.0,-2.5917,-2.4422,0.0,0.0,0.0,-2.0557,-2.0241,-2.0254,-2.0193,-2.018,0.0,0.0,-2.0267,-2.0508,-2.0681,-2.0708,-2.0708,-2.0615,-2.0347,-2.0513,-2.0637,-2.0699,-2.0118,-1.9763,-1.9941,-1.9507,-1.9048,-1.9048,-1.906,-1.9024,-1.9,-1.877,-1.8638,-1.8589,-1.8408,-1.8215,-1.8227,-1.801,-1.7925,-1.8179,-1.8215,-1.8215,-1.8191,-1.8191,-1.8263,-3.8262,-3.7773,-3.7798,-3.7712,-3.7485,-3.7896,-3.806,-3.8105,-3.8437,-3.8516,-3.8418,-3.8535,-3.8398,-3.8105,-3.8008,-3.8027,-3.8125,-3.8223,-3.8144,-3.791,-3.7598,-3.7226,-3.6816,-3.6367,-3.6133,-3.6035,-3.5743,-3.5333,-3.4902,-3.4533,-3.4097,-3.3523,-3.3321,-3.2581,-3.1267,-3.1258,-3.1231,-3.1231,-3.1341,-3.1377,-3.1377,-3.1377,-3.1377,-3.1377,-3.1377,-3.1377,-3.1377,-3.1377,-3.1377,-3.1377,-3.1286,-3.1066,-3.0662,-2.9782,0.0,0.0,0.0,0.0,0.0,0.0,0.0,0.0,0.0,-2.738,-2.656,0.0,-2.7677,0.0,-2.6208,-2.5297,-2.456,-2.3235,0.0,0.0,-2.0971,-2.0542,-2.0207,-2.0441,-2.0494,-2.0193,-2.0428,-2.0575,-2.0575,-2.0628,-2.0748,-2.0975,-2.1002,-2.0975,-2.0922,-2.0939,-2.0906,-2.065,-2.0246,-1.9903,-1.9711,-1.9392,-1.906,-1.9136,-1.8915,-1.8782,-1.8782,-1.8384,-1.8119,-1.8046,-1.7853,-1.7696,-1.7696,-1.7612,-1.7612,-1.766,-1.7684,-1.7672,-1.7672,-1.7684,-1.7817,-3.832,-3.791,-3.7734,-3.7402,-3.7051,-3.748,-3.7656,-3.7676,-3.8105,-3.8281,-3.8301,-3.8496,-3.8476,-3.8281,-3.8281,-3.8184,-3.8008,-3.8008,-3.7871,-3.7637,-3.7207,-3.6894,-3.666,-3.623,-3.6035,-3.6016,-3.5811,-3.547,-3.4921,-3.4715,-3.437,-3.3817,-3.3817,-3.3175,-3.1983,-3.1928,-3.1744,-3.1377,-3.1377,-3.1377,-3.1377,-3.1377,-3.1286,-3.1121,-3.1121,-3.1029,-3.0864,-3.0864,-3.0846,-3.0864,-3.0719,-3.0546,-3.0328,-2.9379,-2.8565,0.0,0.0,0.0,0.0,0.0,0.0,0.0,0.0,0.0,0.0,0.0,-2.6702,-2.5879,-2.5311,-2.465,-2.3629,-2.2609,-2.1849,-2.1362,-2.1074,-2.0802,-2.0641,-2.0762,-2.0802,-2.0641,-2.0762,-2.0869,-2.0869,-2.0869,-2.0922,-2.1096,-2.0982,-2.0856,-2.0856,-2.0856,-2.0729,-2.0425,-2.0094,-1.9775,-1.9456,-1.9103,-1.8903,-1.8879,-1.8686,-1.8517,-1.8505,-1.8167,-1.7937,-1.7913,-1.7719,-1.7479,-1.7479,-1.7479,-1.7479,-1.7479,-1.7479,-1.7479,-1.7479,-1.7479,-1.7648,-3.8242,-3.7812,-3.7383,-3.6973,-3.6621,-3.7031,-3.7246,-3.7324,-3.7793,-3.8008,-3.8027,-3.8398,-3.8359,-3.8008,-3.7949,-3.7734,-3.7383,-3.7324,-3.7266,-3.7187,-3.6836,-3.6641,-3.6582,-3.6191,-3.6035,-3.6035,-3.5947,-3.5538,-3.4921,-3.4853,-3.4508,-3.3817,-3.3762,-3.3358,-3.2625,-3.2551,-3.2129,-3.1396,-3.1377,-3.1377,-3.1377,-3.1322,-3.1139,-3.0809,-3.0736,-3.0552,-3.0222,-3.0204,-3.0204,-3.0142,-2.9875,-2.9645,-2.9476,-2.8491,-2.7739,0.0,-2.6525,0.0,0.0,0.0,0.0,0.0,0.0,0.0,0.0,-2.5905,-2.5342,-2.4426,-2.4615,-2.4313,-2.3032,-2.2428,-2.1978,-2.1614,-2.1323,-2.1149,-2.1109,-2.1109,-2.1109,-2.1109,-2.1109,-2.1109,-2.1096,-2.1109,-2.1109,-2.1046,-2.0792,-2.0539,-2.0475,-2.0475,-2.0425,-2.0106,-1.9775,-1.9456,-1.9176,-1.8855,-1.8698,-1.8662,-1.8432,-1.8251,-1.8239,-1.7998,-1.7817,-1.7793,-1.7624,-1.7491,-1.7479,-1.7479,-1.7479,-1.7479,-1.7479,-1.7479,-1.7479,-1.7479,-1.7648,-3.7793,-3.7383,-3.6953,-3.6543,-3.6191,-3.6601,-3.6992,-3.7363,-3.8125,-3.8457,-3.8457,-3.8535,-3.8535,-3.8418,-3.8086,-3.7871,-3.7793,-3.7461,-3.7109,-3.6797,-3.6699,-3.6484,-3.6152,-3.6055,-3.6035,-3.5947,-3.5762,-3.5333,-3.4921,-3.4646,-3.4232,-3.3798,-3.3486,-3.3083,-3.2606,0.0,0.0,0.0,-3.1377,-3.1377,-3.1359,-3.1066,-3.0864,-3.0791,-3.0479,0.0,-3.0204,-3.0204,-3.0062,-2.9813,-2.9733,0.0,0.0,0.0,0.0,0.0,0.0,0.0,0.0,0.0,0.0,0.0,-2.4912,-2.4916,-2.4764,-2.4741,-2.4531,-2.4057,-2.3642,-2.3196,-2.2579,-2.2203,-2.1934,-2.1641,-2.1561,-2.1376,-2.1136,-2.1109,-2.1109,-2.1109,-2.1109,-2.1109,-2.1109,-2.1109,-2.0982,-2.0792,-2.0602,-2.0348,-1.9903,-2.003,-2.017,-2.0106,-1.9584,-1.92,-1.9136,-1.8855,-1.8686,-1.8625,-1.8263,-1.7986,-1.7937,-1.7744,-1.7563,-1.7563,-1.7515,-1.7479,-1.7479,-1.7479,-1.7479,-1.7479,-1.7479,-1.7479,-1.7479,-1.7479,-1.7516,-3.7793,0.0,-3.6934,-3.666,0.0,-3.6894,-3.7226,-3.7617,-3.7851,-3.8066,-3.8262,-3.8476,-3.8457,-3.8223,-3.7812,-3.75,-3.7285,-3.6855,-3.6562,-3.6348,-3.6348,-3.623,-3.6016,-3.5811,-3.5743,-3.5743,-3.5401,-3.499,-3.4646,-3.4508,-3.4163,-3.3817,-3.3413,-3.301,-3.2588,-3.2001,-3.1598,-3.1377,-3.1377,-3.1377,-3.1359,-3.1194,-3.0992,-3.0791,0.0,0.0,0.0,0.0,0.0,0.0,0.0,0.0,0.0,0.0,0.0,-2.5092,-2.4811,-2.4475,-2.3963,-2.3927,-2.3927,-2.398,-2.3809,-2.3747,-2.3876,-2.3757,-2.3613,-2.3416,-2.2967,-2.2591,-2.2378,-2.2031,-2.171,-2.1628,-2.148,-2.1269,-2.1136,-2.1109,-2.1109,-2.1109,-2.1109,-2.1109,-2.1109,-2.0919,-2.0792,-2.0615,-2.0284,-2.003,-1.9903,-1.9979,-2.0043,-1.9851,-1.9456,-1.9136,-1.9048,-1.8855,-1.8625,-1.8481,-1.8143,-1.7913,-1.7696,-1.7575,-1.7479,-1.7479,-1.7479,-1.7479,-1.7479,-1.7479,-1.7479,-1.7479,-1.7479,-1.7479,-1.7479,-1.7479,-1.7504,-3.7773,-3.7637,-3.6875,-3.6797,-3.7187,-3.7266,-3.748,-3.7793,0.0,0.0,0.0,-3.8379,-3.834,-3.791,-3.748,-3.7109,-3.6758,-3.625,-3.6035,-3.6035,-3.6035,-3.6035,-3.6016,-3.5743,-3.5538,-3.547,-3.5127,-3.4715,-3.437,-3.4301,-3.4057,-3.3688,-3.3303,-3.2863,-3.2368,-3.1708,-3.1377,-3.1377,-3.1377,-3.1377,-3.1377,-3.1322,-3.1121,-3.0791,-3.0717,-3.0534,-3.0222,-3.0204,-3.0142,-3.008,-2.8483,-2.749,-2.7303,-2.5765,-2.463,-2.4232,-2.4247,-2.3954,-2.3345,-2.3292,-2.3214,-2.2914,-2.2859,-2.3161,-2.3641,-2.3202,-2.2859,-2.2859,-2.2592,-2.2405,-2.2352,-2.1871,-2.1588,-2.1547,-2.1256,-2.1109,-2.1109,-2.1109,-2.1109,-2.1109,-2.1109,-2.1046,-2.0982,-2.0792,-2.0539,-2.0348,-1.9966,-1.9635,-1.9851,-1.9915,-1.9839,-1.9584,-1.9264,-1.9136,-1.9036,-1.8855,-1.8601,-1.8348,-1.807,-1.7781,-1.7563,-1.7479,-1.7479,-1.7479,-1.7479,-1.7479,-1.7479,-1.7479,-1.7479,-1.7479,-1.7479,-1.7479,-1.7479,-1.742,-1.7374,-3.7187,-3.6816,-3.6309,-3.6367,-3.6797,-3.7148,-3.7324,-3.7441,-3.8105,-3.8223,-3.7949,-3.8379,-3.834,-3.7891,-3.748,-3.7266,-3.7148,-3.6367,-3.6035,-3.6035,-3.6035,-3.6035,-3.6016,-3.5947,-3.5743,-3.547,-3.5059,-3.4715,-3.437,-3.4024,-3.3633,-3.3303,-3.2881,-3.2313,-3.1598,-3.1433,-3.1377,-3.1377,-3.1377,-3.1377,-3.1359,-3.1047,-3.0846,-3.0772,-3.0479,-3.0259,-3.0204,-3.0204,-3.008,-2.9751,-2.842,-2.7225,-2.6354,-2.4862,-2.3799,-2.3188,-2.3147,-2.3093,-2.2997,-2.2942,-2.2956,-2.2928,-2.2859,-2.3447,-2.4612,-2.3638,-2.2859,-2.2846,-2.2592,-2.2311,-2.2071,-2.175,-2.1521,-2.1216,-2.1136,-2.1109,-2.1109,-2.1109,-2.1109,-2.1109,-2.1109,-2.0982,-2.0792,-2.0615,-2.0348,-1.9903,-1.9699,-1.9507,-1.9392,-1.952,-1.952,-1.9264,-1.9136,-1.9136,-1.9048,-1.8855,-1.8613,-1.8336,-1.807,-1.7805,-1.7527,-1.7479,-1.7479,-1.7479,-1.7479,-1.7479,-1.7479,-1.7479,-1.7479,-1.7479,-1.7479,-1.7479,-1.7479,-1.7256,-1.6973,-3.6855,-3.6621,-3.6211,-3.6269,-3.6699,-3.7109,-3.7422,-3.7676,-3.8047,-3.7988,-3.7617,-3.7793,-3.7891,-3.7871,-3.7246,-3.6953,-3.6934,-3.6309,-3.6035,-3.5947,-3.5811,-3.5743,-3.5694,-3.5333,-3.5059,-3.4853,-3.4508,-3.4232,-3.4094,-3.3886,-3.3725,-3.3505,-3.2918,-3.2294,-3.1744,-3.1488,-3.1377,-3.1377,-3.1377,-3.1377,-3.1377,-3.1212,-3.1102,-3.1102,-3.0201,-2.9747,-2.9683,-2.8944,-2.8412,-2.8283,-2.6921,-2.5967,-2.5523,-2.4132,-2.3188,-2.2914,-2.2859,-2.2859,-2.2859,-2.2859,-2.2859,-2.2859,-2.2859,-2.3133,-2.3802,-2.327,-2.2859,-2.2846,-2.2592,-2.2298,-2.2004,-2.1789,-2.1443,-2.1136,-2.1109,-2.1109,-2.1109,-2.1109,-2.1109,-2.1109,-2.1109,-2.1046,-2.0856,-2.0552,-2.0234,-1.9903,-1.9584,-1.9264,-1.9136,-1.92,-1.9264,-1.9136,-1.9136,-1.9136,-1.906,-1.8988,-1.8734,-1.8372,-1.8191,-1.7937,-1.7587,-1.7479,-1.7479,-1.7479,-1.7479,-1.7479,-1.7479,-1.7479,-1.7479,-1.7479,-1.7479,-1.7479,-1.742,-1.7126,-1.6655,-3.6836,-3.6641,-3.6406,-3.6504,-3.6836,-3.7148,-3.7422,-3.7617,-3.7539,-3.7363,-3.7187,-3.7344,-3.7519,-3.7559,-3.6953,-3.668,-3.6621,-3.6211,-3.6035,-3.5967,-3.5743,-3.5626,-3.5557,-3.4921,-3.4577,-3.4439,-3.4094,-3.3886,-3.3817,-3.3817,-3.3762,-3.3615,-3.2955,-3.2386,-3.2001,-3.1689,-3.1524,-3.1506,-3.1433,-3.1377,-3.1377,-3.1377,-3.1377,-3.1313,-3.039,-2.9657,-2.9265,-2.8196,-2.7453,-2.7055,-2.5801,-2.5008,-2.494,-2.3665,-2.2859,-2.2859,-2.2859,-2.2859,-2.2859,-2.2859,-2.2859,-2.2859,-2.2859,-2.2859,-2.2859,-2.2859,-2.2859,-2.2832,-2.2659,-2.2392,-2.2044,-2.1869,-2.151,-2.1162,-2.1109,-2.1109,-2.1109,-2.1109,-2.1109,-2.1109,-2.1109,-2.1046,-2.0869,-2.0425,-2.0043,-1.9788,-1.9404,-1.9136,-1.9136,-1.9136,-1.9136,-1.9136,-1.9136,-1.9136,-1.9136,-1.9,-1.877,-1.836,-1.8215,-1.7962,-1.7612,-1.7479,-1.7479,-1.7479,-1.7479,-1.7479,-1.7479,-1.7479,-1.7479,-1.7479,-1.742,-1.7315,-1.7067,-1.6773,-1.6301,-3.7344,-3.6777,-3.6992,-3.7207,-3.7226,-3.7285,-3.7109,-3.6797,-3.6387,-3.6406,-3.6777,-3.7519,-3.7441,-3.6836,-3.6699,-3.666,-3.6621,-3.6211,-3.6035,-3.6016,-3.5947,-3.5947,-3.5899,-3.5538,-3.5196,-3.4853,-3.4439,-3.4094,-3.3817,-3.3817,-3.3633,-3.3266,-3.2826,-3.2423,-3.2056,-3.1964,-3.1946,-3.1946,-3.1579,-3.1377,-3.1377,-3.1377,-3.1377,-3.1377,-3.1249,-3.0584,-2.9265,-2.9134,-2.846,-2.7121,-2.5734,-2.5008,-2.4805,-2.3665,-2.2859,-2.2859,-2.2859,-2.2859,-2.2859,-2.2859,-2.2859,-2.2859,-2.2859,-2.2859,-2.2859,-2.2859,-2.2859,-2.2832,-2.2819,-2.2552,-2.2071,-2.1937,-2.167,-2.1176,-2.1109,-2.1109,-2.1109,-2.1109,-2.1109,-2.1109,-2.1046,-2.0919,-2.0425,-2.017,-1.9851,-1.9392,-1.92,-1.9136,-1.9136,-1.9136,-1.9136,-1.9136,-1.9136,-1.9136,-1.9112,-1.8867,-1.8638,-1.8348,-1.8082,-1.7829,-1.7587,-1.7479,-1.7479,-1.7479,-1.7479,-1.7479,-1.7479,-1.7479,-1.7479,-1.7373,-1.7197,-1.6903,-1.6442,-1.6205,-1.6076,-3.6758,-3.668,-3.6855,-3.707,-3.7246,-3.7031,-3.6836,-3.666,-3.6484,-3.6367,-3.6348,-3.6914,-3.6992,-3.666,-3.6406,-3.6289,-3.6269,-3.6094,-3.5879,-3.5675,-3.547,-3.5264,-3.499,-3.4646,-3.437,-3.4232,-3.4094,-3.3955,-3.3817,-3.3817,-3.3725,-3.3541,-3.3175,-3.2771,-3.2386,-3.2349,-3.2239,-3.2019,-3.2074,-3.1983,-3.1744,-3.1506,-3.1377,-3.1249,-2.977,-2.8657,-2.7916,-2.6455,-2.5196,-2.4655,-2.4074,-2.3734,-2.3734,-2.3201,-2.2859,-2.2859,-2.2859,-2.2859,-2.2859,-2.2859,-2.2859,-2.2859,-2.2859,-2.2859,-2.2859,-2.2859,-2.2792,-2.2632,-2.2605,-2.2418,-2.2031,-2.183,-2.1563,-2.1189,-2.1109,-2.1109,-2.1109,-2.1109,-2.1109,-2.1109,-2.0919,-2.0729,-2.0412,-2.003,-1.9647,-1.92,-1.9136,-1.9136,-1.9136,-1.9136,-1.9136,-1.9136,-1.9136,-1.9136,-1.9048,-1.8855,-1.8601,-1.8336,-1.8058,-1.7852,-1.7563,-1.7479,-1.7479,-1.7479,-1.7479,-1.7479,-1.7479,-1.7479,-1.7479,-1.7256,-1.6961,-1.6608,-1.6205,-1.6087,-1.5957,-3.6484,-3.666,-3.6749,-3.6973,-3.7422,-3.6894,-3.6749,-3.666,-3.6543,-3.6309,-3.6074,-3.6367,-3.6277,-3.5943,-3.5947,-3.5811,-3.5451,-3.5382,-3.4971,-3.4264,-3.39,-3.3623,-3.3276,-3.2876,-3.2718,-3.2648,-3.2508,-3.2736,-3.3085,-3.3173,-3.3381,-3.3692,-3.3523,-3.297,-3.225,-3.2129,-3.1783,-3.1149,-3.129,-3.1272,-3.0994,-3.0601,-3.0692,-3.1055,-2.8986,-2.7519,-2.7055,-2.4805,-2.3256,-2.2928,-2.2859,-2.2859,-2.2859,-2.2859,-2.2859,-2.2859,-2.2859,-2.2859,-2.2859,-2.2859,-2.2859,-2.2859,-2.2859,-2.2859,-2.2859,-2.2859,-2.2726,-2.2472,-2.2352,-2.2178,-2.1897,-2.1748,-2.143,-2.1149,-2.1109,-2.1109,-2.1109,-2.1109,-2.1046,-2.0982,-2.0742,-2.0539,-2.0284,-1.9839,-1.9328,-1.9136,-1.9136,-1.9136,-1.9136,-1.9136,-1.9136,-1.9136,-1.9136,-1.9136,-1.9048,-1.877,-1.8517,-1.83,-1.8022,-1.7684,-1.7515,-1.7491,-1.7479,-1.7479,-1.7479,-1.7479,-1.7479,-1.7479,-1.7303,-1.6961,-1.6608,-1.6312,-1.6016,-1.5957,-1.5839,-3.7012,-3.6699,-3.6749,-3.7078,-3.7741,-3.7012,-3.666,-3.6463,-3.6162,-3.5967,-3.5879,-3.585,-3.5215,-3.4094,-3.5196,-3.5177,-3.3988,-3.3849,-3.291,-3.1474,-3.1262,-3.0892,-3.0451,-3.0113,-3.0058,-3.0272,-2.9987,-3.0359,-3.1508,-3.1578,-3.2368,-3.359,-3.3466,-3.2713,-3.1237,-3.0978,-3.0285,-2.9126,-2.8793,-2.8553,-2.8713,-2.8184,-2.911,-3.0786,-2.987,-2.8262,-2.7055,-2.5667,-2.4278,-2.2928,-2.2859,-2.2859,-2.2859,-2.2859,-2.2859,-2.2859,-2.2859,-2.2859,-2.2859,-2.2859,-2.2859,-2.2859,-2.2859,-2.2859,-2.2859,-2.2832,-2.2686,-2.2432,-2.2151,-2.1884,-2.1695,-2.1588,-2.1403,-2.1149,-2.1109,-2.1109,-2.1109,-2.1109,-2.0919,-2.0729,-2.0539,-2.0284,-1.9711,-1.9328,-1.92,-1.9136,-1.9136,-1.9136,-1.9136,-1.9136,-1.9136,-1.9136,-1.9136,-1.9136,-1.9036,-1.8746,-1.8432,-1.8227,-1.795,-1.7539,-1.7503,-1.7479,-1.7479,-1.7479,-1.7479,-1.7479,-1.7479,-1.7361,-1.7067,-1.6714,-1.6312,-1.6016,-1.5779,-1.5661,-1.5601,-3.6547,-3.6018,-3.7035,-3.6912,-3.607,-3.6475,-3.602,-3.4834,-3.4684,-3.4609,-3.4402,-3.3554,-3.3345,-3.378,-3.3345,-3.284,-3.2351,-3.2053,-3.142,-3.0555,-3.0343,-2.9987,-2.9615,-2.9488,-2.9417,-2.9417,-2.9274,-2.9488,-2.9916,-3.0004,-3.0288,-3.0714,-3.0855,-3.0319,-2.965,-2.971,-2.9411,-2.8726,-2.8703,-2.8735,-2.8451,-2.8164,-2.8381,-2.8843,-2.7382,-2.627,-2.5801,-2.4399,-2.3406,-2.2928,-2.2859,-2.2859,-2.2859,-2.2859,-2.2859,-2.2859,-2.2859,-2.2859,-2.2859,-2.2859,-2.2859,-2.2859,-2.2859,-2.2859,-2.2832,-2.2686,-2.2458,-2.2164,-2.1884,-2.159,-2.1349,-2.1269,-2.1229,-2.1136,-2.1109,-2.1109,-2.1109,-2.1109,-2.0982,-2.0602,-2.0221,-1.9775,-1.9456,-1.92,-1.9136,-1.9136,-1.9136,-1.9136,-1.9136,-1.9136,-1.9136,-1.9136,-1.9136,-1.9136,-1.9136,-1.8794,-1.8505,-1.8263,-1.7998,-1.7696,-1.7563,-1.7503,-1.7479,-1.7479,-1.7479,-1.7479,-1.742,-1.7009,-1.6773,-1.6431,-1.6016,-1.5839,-1.5661,-1.5601,-1.5601,-3.5097,-3.4902,-3.5721,-3.5519,-3.4523,-3.4941,-3.443,-3.3247,-3.3121,-3.3067,-3.284,-3.193,-3.1789,-3.2,-3.1067,-3.0146,-2.979,-2.9987,-2.9647,-2.8716,-2.8429,-2.8141,-2.778,-2.7707,-2.7707,-2.7707,-2.7707,-2.7924,-2.8429,-2.8429,-2.8716,-2.9202,-2.9218,-2.8821,-2.8237,-2.832,-2.809,-2.7538,-2.7602,-2.7485,-2.7225,-2.6909,-2.6592,-2.6124,-2.4979,-2.4535,-2.494,-2.3665,-2.2859,-2.2859,-2.2859,-2.2859,-2.2859,-2.2859,-2.2859,-2.2859,-2.2859,-2.2859,-2.2859,-2.2859,-2.2859,-2.2859,-2.2859,-2.2859,-2.2832,-2.2592,-2.2298,-2.2017,-2.1724,-2.143,-2.1189,-2.1109,-2.1109,-2.1109,-2.1109,-2.1109,-2.1109,-2.1109,-2.0856,-2.0488,-1.9966,-1.952,-1.92,-1.9136,-1.9136,-1.9136,-1.9136,-1.9136,-1.9136,-1.9136,-1.9136,-1.9136,-1.9136,-1.9136,-1.9036,-1.8819,-1.8541,-1.83,-1.795,-1.7708,-1.7575,-1.7515,-1.7479,-1.7479,-1.7479,-1.7432,-1.7185,-1.6714,-1.6431,-1.6135,-1.5898,-1.5661,-1.5601,-1.5601,-1.5601,-3.2787,-3.3078,-3.2736,-3.3025,-3.3054,-3.2653,-3.2199,-3.199,-3.1645,-3.1437,-3.1367,-3.1226,-3.0217,-2.9162,-2.8804,-2.7738,-2.6808,-2.7867,-2.752,-2.58,-2.558,-2.5359,-2.4991,-2.5065,-2.5139,-2.5065,-2.477,-2.5492,-2.6867,-2.6939,-2.7505,-2.8788,-2.8772,-2.7981,-2.6852,-2.6852,-2.621,-2.5245,-2.5051,-2.4782,-2.4209,-2.43,-2.4113,-2.3674,-2.3294,-2.368,-2.4863,-2.3625,-2.2873,-2.2886,-2.2873,-2.2859,-2.2859,-2.2859,-2.2859,-2.2859,-2.2859,-2.2859,-2.2859,-2.2859,-2.2859,-2.2859,-2.2859,-2.2859,-2.2819,-2.2592,-2.2298,-2.2017,-2.1724,-2.1494,-2.1176,-2.1109,-2.1109,-2.1109,-2.1109,-2.1109,-2.1109,-2.1046,-2.0856,-2.0234,-1.9775,-1.9456,-1.92,-1.9136,-1.9136,-1.9136,-1.9136,-1.9136,-1.9136,-1.9136,-1.9136,-1.9136,-1.9136,-1.9136,-1.8976,-1.8855,-1.8589,-1.83,-1.7889,-1.7634,-1.7539,-1.7479,-1.7479,-1.7479,-1.7361,-1.7315,-1.6961,-1.6549,-1.6253,-1.5968,-1.572,-1.5601,-1.5601,-1.5601,-1.5601,-3.2492,-3.2021,-3.2665,-3.2191,-3.1375,-3.1772,-3.1363,-3.0111,-2.991,-2.9806,-2.9377,-2.846,-2.8027,-2.7996,-2.723,-2.6225,-2.5446,-2.6019,-2.5873,-2.5226,-2.4931,-2.471,-2.4636,-2.4636,-2.4636,-2.4636,-2.4636,-2.4784,-2.5286,-2.5359,-2.5639,-2.5918,-2.6064,-2.5786,-2.5433,-2.5286,-2.5005,-2.471,-2.4636,-2.4583,-2.4476,-2.4209,-2.4008,-2.3915,-2.3647,-2.3768,-2.4092,-2.3363,-2.3048,-2.3153,-2.2979,-2.2859,-2.2859,-2.2859,-2.2859,-2.2859,-2.2859,-2.2859,-2.2859,-2.2859,-2.2859,-2.2859,-2.2859,-2.2859,-2.2832,-2.2579,-2.2298,-2.2004,-2.1724,-2.143,-2.1176,-2.1109,-2.1109,-2.1109,-2.1109,-2.1109,-2.1046,-2.0729,-2.0361,-2.0106,-1.9584,-1.9264,-1.9136,-1.9136,-1.9136,-1.9136,-1.9136,-1.9136,-1.9136,-1.9136,-1.9136,-1.9136,-1.9136,-1.9072,-1.9,-1.8831,-1.8541,-1.83,-1.7937,-1.7575,-1.7515,-1.7479,-1.7479,-1.742,-1.7303,-1.7079,-1.6726,-1.6371,-1.6076,-1.5839,-1.5661,-1.5601,-1.5601,-1.5601,-1.5601,-3.1125,-3.0531,-3.1118,-3.0616,-2.9464,-3.0064,-2.9495,-2.8274,-2.8171,-2.7955,-2.7448,-2.659,-2.6444,-2.6721,-2.6005,-2.5359,-2.5005,-2.4945,-2.5005,-2.4931,-2.471,-2.4636,-2.4636,-2.4636,-2.4636,-2.4636,-2.4636,-2.4636,-2.4636,-2.4636,-2.4636,-2.4636,-2.4636,-2.4636,-2.4636,-2.4636,-2.4636,-2.4636,-2.4636,-2.4583,-2.4462,-2.4302,-2.4155,-2.4035,-2.3861,-2.3834,-2.3875,-2.346,-2.3233,-2.326,-2.3033,-2.2873,-2.2859,-2.2859,-2.2859,-2.2859,-2.2859,-2.2859,-2.2859,-2.2859,-2.2859,-2.2859,-2.2859,-2.2859,-2.2792,-2.2525,-2.2164,-2.1991,-2.1789,-2.143,-2.1189,-2.1229,-2.1229,-2.1109,-2.1109,-2.1109,-2.1046,-2.0615,-2.0234,-2.0043,-1.9647,-1.9328,-1.9136,-1.9136,-1.9136,-1.9136,-1.9136,-1.9136,-1.9136,-1.9136,-1.9136,-1.9136,-1.9136,-1.906,-1.9036,-1.8807,-1.8505,-1.8263,-1.801,-1.7696,-1.7503,-1.7491,-1.7479,-1.7303,-1.7185,-1.6832,-1.6549,-1.6135,-1.5779,-1.5661,-1.5601,-1.5601,-1.5601,-1.5601,-1.5601,-2.8964,-2.8856,-2.8564,-2.8394,-2.7995,-2.7821,-2.735,-2.656,-2.6458,-2.6312,-2.5946,-2.58,-2.5593,-2.5299,-2.5226,-2.4931,-2.4636,-2.4636,-2.4636,-2.4636,-2.4636,-2.4636,-2.4636,-2.4636,-2.4636,-2.4636,-2.4636,-2.4636,-2.4636,-2.4636,-2.4636,-2.4636,-2.4636,-2.4636,-2.4636,-2.4636,-2.4636,-2.4636,-2.4636,-2.4516,-2.4302,-2.4262,-2.4142,-2.3915,-2.3901,-2.3995,-2.4142,-2.3915,-2.3621,-2.3367,-2.31,-2.2939,-2.2899,-2.2886,-2.2859,-2.2859,-2.2859,-2.2859,-2.2859,-2.2859,-2.2859,-2.2859,-2.2859,-2.2859,-2.2806,-2.2472,-2.2164,-2.2058,-2.183,-2.1523,-2.1309,-2.1363,-2.144,-2.1162,-2.1109,-2.1109,-2.1046,-2.0729,-2.0361,-2.0043,-1.9775,-1.9444,-1.9136,-1.9136,-1.9136,-1.9136,-1.9136,-1.9136,-1.9136,-1.9136,-1.9136,-1.9136,-1.9136,-1.9072,-1.9048,-1.8843,-1.8565,-1.8444,-1.8191,-1.7937,-1.7696,-1.7672,-1.754,-1.7351,-1.7056,-1.6749,-1.636,-1.5957,-1.572,-1.5601,-1.5601,-1.5601,-1.5601,-1.5601,-1.5601,-2.8886,-2.8856,-2.8564,-2.8165,-2.7844,-2.7314,-2.6834,-2.6341,-2.6093,-2.5726,-2.5446,-2.5373,-2.5152,-2.4784,-2.4784,-2.471,-2.4636,-2.4636,-2.4636,-2.4636,-2.4636,-2.4636,-2.4636,-2.4636,-2.4636,-2.4636,-2.4636,-2.4636,-2.4636,-2.4636,-2.4636,-2.4636,-2.4636,-2.4636,-2.4636,-2.4636,-2.4636,-2.4636,-2.4636,-2.4609,-2.4529,-2.4502,-2.4489,-2.4436,-2.4396,-2.4422,-2.4489,-2.4235,-2.3955,-2.3661,-2.3367,-2.3207,-2.3166,-2.2979,-2.2859,-2.2859,-2.2859,-2.2859,-2.2859,-2.2859,-2.2859,-2.2859,-2.2859,-2.2859,-2.2859,-2.2726,-2.2525,-2.2365,-2.2205,-2.1964,-2.1577,-2.1561,-2.1467,-2.1162,-2.1109,-2.0982,-2.0729,-2.0425,-2.0106,-1.9775,-1.9456,-1.9264,-1.9136,-1.9136,-1.9136,-1.9136,-1.9136,-1.9136,-1.9136,-1.9136,-1.9136,-1.9136,-1.9136,-1.9136,-1.9012,-1.8819,-1.8674,-1.8613,-1.8432,-1.8251,-1.8106,-1.8082,-1.7781,-1.7505,-1.7148,-1.6743,-1.632,-1.5839,-1.572,-1.5601,-1.5601,-1.5601,-1.5601,-1.5601,-1.5601,-2.8886,-2.8842,-2.8417,-2.7973,-2.7589,-2.7006,-2.6424,-2.5901,-2.5667,-2.5299,-2.5005,-2.4931,-2.4857,-2.4636,-2.4636,-2.4636,-2.4636,-2.4636,-2.4636,-2.4636,-2.4636,-2.4636,-2.4636,-2.4636,-2.4636,-2.4636,-2.4636,-2.4636,-2.4636,-2.4636,-2.4636,-2.4636,-2.4636,-2.4636,-2.4636,-2.4636,-2.4636,-2.4636,-2.4636,-2.4636,-2.4636,-2.4636,-2.4636,-2.4636,-2.4636,-2.4636,-2.4609,-2.4476,-2.4195,-2.3821,-2.35,-2.3257,-2.33,-2.3033,-2.2873,-2.2859,-2.2859,-2.2859,-2.2859,-2.2859,-2.2859,-2.2859,-2.2859,-2.2859,-2.2832,-2.2766,-2.2565,-2.2445,-2.2418,-2.2178,-2.1844,-2.1695,-2.1547,-2.1323,-2.1062,-2.0806,-2.0602,-2.0157,-1.9839,-1.9584,-1.9328,-1.9136,-1.9136,-1.9136,-1.9136,-1.9136,-1.9136,-1.9136,-1.9136,-1.9136,-1.9136,-1.9136,-1.9136,-1.9136,-1.9136,-1.8927,-1.8855,-1.8794,-1.8722,-1.8529,-1.8408,-1.836,-1.7996,-1.7598,-1.7153,-1.6737,-1.628,-1.5872,-1.5661,-1.5601,-1.5601,-1.5601,-1.5601,-1.5601,-1.5601,-2.8886,-2.8749,-2.8136,-2.7647,-2.7244,-2.6612,-2.5943,-2.5354,-2.5166,-2.4972,-2.4764,-2.4663,-2.4636,-2.4636,-2.4636,-2.4636,-2.4636,-2.4636,-2.4636,-2.4636,-2.4636,-2.4636,-2.4636,-2.4636,-2.4636,-2.4636,-2.4636,-2.4636,-2.4636,-2.4636,-2.4636,-2.4636,-2.4636,-2.4636,-2.4636,-2.4636,-2.4636,-2.4636,-2.4636,-2.4636,-2.4636,-2.4636,-2.4636,-2.4636,-2.4636,-2.4636,-2.4636,-2.4583,-2.4382,-2.3848,-2.3527,-2.3394,-2.3313,-2.3033,-2.2886,-2.2859,-2.2859,-2.2859,-2.2859,-2.2859,-2.2859,-2.2859,-2.2859,-2.2859,-2.2832,-2.2686,-2.2552,-2.2525,-2.2472,-2.2311,-2.1977,-2.1762,-2.1547,-2.1312,-2.0911,-2.0628,-2.0425,-1.9966,-1.9571,-1.952,-1.9264,-1.9136,-1.9136,-1.9136,-1.9136,-1.9136,-1.9136,-1.9136,-1.9136,-1.9136,-1.9136,-1.9136,-1.9136,-1.9136,-1.9136,-1.9048,-1.9036,-1.9,-1.8976,-1.8831,-1.8613,-1.8443,-1.8054,-1.7605,-1.7204,-1.6729,-1.6182,-1.5867,-1.5682,-1.5601,-1.5601,-1.5601,-1.5601,-1.5601,-1.5601,-2.8744,-2.8388,-2.7755,-2.7269,-2.6777,-2.5871,-2.5524,-2.5568,-2.4965,-2.4871,-2.489,-2.4756,-2.4649,-2.4649,-2.4649,-2.4636,-2.4636,-2.4636,-2.4636,-2.4636,-2.4636,-2.4636,-2.4636,-2.4636,-2.4636,-2.4636,-2.4636,-2.4636,-2.4636,-2.4636,-2.4636,-2.4636,-2.4636,-2.4636,-2.4636,-2.4636,-2.4636,-2.4636,-2.4636,-2.4636,-2.4636,-2.4636,-2.4636,-2.4636,-2.4636,-2.4636,-2.4636,-2.4636,-2.4462,-2.4142,-2.3808,-2.3514,-2.3313,-2.3033,-2.2873,-2.2859,-2.2859,-2.2859,-2.2859,-2.2859,-2.2859,-2.2859,-2.2859,-2.2859,-2.2859,-2.2806,-2.2752,-2.2766,-2.2752,-2.2512,-2.2071,-2.1523,-2.1323,-2.1142,-2.068,-2.0234,-2.0106,-1.9839,-1.952,-1.9264,-1.92,-1.9136,-1.9136,-1.9136,-1.9136,-1.9136,-1.9136,-1.9136,-1.9136,-1.9136,-1.9136,-1.9136,-1.9136,-1.9136,-1.9136,-1.9136,-1.9136,-1.9136,-1.9136,-1.906,-1.8843,-1.8431,-1.8089,-1.7649,-1.7162,-1.6692,-1.615,-1.5856,-1.5601,-1.5601,-1.5601,-1.5601,-1.5601,-1.5601,-1.5601,-2.8524,-2.8232,-2.7606,-2.7101,-2.6558,-2.5931,-2.5595,-2.554,-2.5206,-2.513,-2.5197,-2.497,-2.485,-2.4823,-2.4703,-2.4636,-2.4636,-2.4636,-2.4636,-2.4636,-2.4636,-2.4636,-2.4636,-2.4636,-2.4636,-2.4636,-2.4636,-2.4636,-2.4636,-2.4636,-2.4636,-2.4636,-2.4636,-2.4636,-2.4636,-2.4636,-2.4636,-2.4636,-2.4636,-2.4636,-2.4636,-2.4636,-2.4636,-2.4636,-2.4636,-2.4636,-2.4636,-2.4489,-2.4289,-2.4008,-2.3728,-2.35,-2.3313,-2.3033,-2.2886,-2.2859,-2.2859,-2.2859,-2.2859,-2.2859,-2.2859,-2.2859,-2.2859,-2.2859,-2.2859,-2.2859,-2.2859,-2.2859,-2.2819,-2.2659,-2.2231,-2.183,-2.1445,-2.0977,-2.0489,-2.0043,-1.9839,-1.9584,-1.9328,-1.9136,-1.9136,-1.9136,-1.9136,-1.9136,-1.9136,-1.9136,-1.9136,-1.9136,-1.9136,-1.9136,-1.9136,-1.9136,-1.9136,-1.9136,-1.9136,-1.9136,-1.9136,-1.9136,-1.9136,-1.9136,-1.8988,-1.8569,-1.8111,-1.7662,-1.7247,-1.6647,-1.6139,-1.5834,-1.5634,-1.5612,-1.5612,-1.5601,-1.5612,-1.5623,-1.5612,-2.8118,-2.8026,-2.7389,-2.689,-2.6462,-2.6085,-2.5824,-2.5648,-2.5531,-2.5491,-2.5504,-2.5237,-2.5064,-2.5077,-2.485,-2.473,-2.477,-2.473,-2.477,-2.4863,-2.4877,-2.4823,-2.477,-2.4743,-2.4703,-2.4649,-2.4636,-2.4636,-2.4636,-2.4636,-2.4636,-2.4636,-2.4636,-2.4636,-2.4636,-2.4636,-2.4636,-2.4636,-2.4636,-2.4636,-2.4636,-2.4636,-2.4636,-2.4636,-2.4636,-2.4583,-2.4516,-2.4342,-2.4062,-2.3728,-2.346,-2.3327,-2.3193,-2.3046,-2.2859,-2.2859,-2.2859,-2.2859,-2.2859,-2.2859,-2.2859,-2.2859,-2.2859,-2.2859,-2.2859,-2.2859,-2.2859,-2.2874,-2.2807,-2.2552,-2.2365,-2.1897,-2.1462,-2.1019,-2.0413,-1.9992,-1.9647,-1.9328,-1.9136,-1.9136,-1.9136,-1.9136,-1.9136,-1.9136,-1.9136,-1.9136,-1.9136,-1.9136,-1.9136,-1.9136,-1.9136,-1.9136,-1.9136,-1.9136,-1.9136,-1.9136,-1.9136,-1.9072,-1.9072,-1.9008,-1.9008,-1.8536,-1.8029,-1.7741,-1.7251,-1.6695,-1.623,-1.5985,-1.5785,-1.5677,-1.5623,-1.5634,-1.5634,-1.5645,-1.5677,-2.749,-2.7162,-2.6859,-2.6503,-2.6074,-2.5805,-2.5755,-2.5812,-2.5651,-2.5665,-2.5798,-2.5344,-2.5264,-2.5304,-2.513,-2.513,-2.5211,-2.509,-2.509,-2.5264,-2.5277,-2.5197,-2.4983,-2.4943,-2.485,-2.469,-2.4636,-2.4636,-2.4636,-2.4636,-2.4636,-2.4636,-2.4636,-2.4636,-2.4636,-2.4636,-2.4636,-2.4636,-2.4636,-2.4636,-2.4636,-2.4636,-2.4636,-2.4636,-2.4636,-2.4529,-2.4356,-2.4235,-2.3955,-2.3474,-2.3354,-2.3193,-2.302,-2.2899,-2.2873,-2.2859,-2.2859,-2.2859,-2.2859,-2.2859,-2.2859,-2.2859,-2.2859,-2.2859,-2.2859,-2.2859,-2.2859,-2.2739,-2.2472,-2.2151,-2.2058,-2.1683,-2.1131,-2.068,-2.0349,-1.9966,-1.9584,-1.9328,-1.9136,-1.9136,-1.9136,-1.9136,-1.9136,-1.9136,-1.9136,-1.9136,-1.9136,-1.9136,-1.9136,-1.9136,-1.9136,-1.9136,-1.9136,-1.9136,-1.9136,-1.9136,-1.9072,-1.9072,-1.9008,-1.8892,-1.8688,-1.8302,-1.7965,-1.7671,-1.7304,-1.6749,-1.6396,-1.6169,-1.6039,-1.5903,-1.5795,-1.5677,-1.5785,-1.5892,-1.5892,-2.7175,-2.6939,-2.6632,-2.6421,-2.6238,-2.6039,-2.6039,-2.6146,-2.6026,-2.6039,-2.6012,-2.5745,-2.5598,-2.5638,-2.5438,-2.5398,-2.5411,-2.5224,-2.5264,-2.5464,-2.5504,-2.5358,-2.5117,-2.509,-2.4903,-2.4716,-2.4636,-2.4636,-2.4636,-2.4636,-2.4636,-2.4636,-2.4636,-2.4636,-2.4636,-2.4636,-2.4636,-2.4636,-2.4636,-2.4636,-2.4636,-2.4636,-2.4636,-2.4636,-2.4636,-2.4556,-2.4449,-2.4249,-2.4008,-2.3634,-2.3407,-2.3166,-2.2979,-2.2873,-2.2873,-2.2873,-2.2873,-2.2859,-2.2859,-2.2859,-2.2859,-2.2859,-2.2859,-2.2859,-2.2859,-2.2859,-2.2859,-2.2766,-2.2525,-2.2138,-2.2004,-2.1577,-2.1054,-2.045,-2.017,-1.9851,-1.9456,-1.92,-1.9136,-1.9136,-1.9136,-1.9136,-1.9136,-1.9136,-1.9136,-1.9136,-1.9136,-1.9136,-1.9136,-1.9136,-1.9136,-1.9136,-1.9136,-1.9136,-1.9136,-1.9136,-1.9008,-1.9008,-1.8956,-1.8764,-1.8507,-1.8109,-1.7852,-1.7613,-1.7235,-1.6785,-1.656,-1.6334,-1.6288,-1.619,-1.6064,-1.6021,-1.6086,-1.614,-1.614,-2.6874,-2.6874,-2.6544,-2.64,-2.64,-2.6386,-2.6373,-2.64,-2.6373,-2.636,-2.6346,-2.6092,-2.5959,-2.5945,-2.5772,-2.5638,-2.5638,-2.5411,-2.5478,-2.5692,-2.5745,-2.5545,-2.5251,-2.5117,-2.501,-2.4676,-2.4636,-2.4636,-2.4636,-2.4636,-2.4636,-2.4636,-2.4636,-2.4636,-2.4636,-2.4636,-2.4636,-2.4636,-2.4636,-2.4636,-2.4636,-2.4636,-2.4636,-2.4636,-2.4636,-2.4609,-2.4462,-2.4302,-2.4062,-2.3781,-2.3554,-2.3327,-2.31,-2.2993,-2.2953,-2.2939,-2.2899,-2.2873,-2.2859,-2.2859,-2.2859,-2.2859,-2.2859,-2.2859,-2.2859,-2.2859,-2.2859,-2.2874,-2.2579,-2.2271,-2.2004,-2.1789,-2.1108,-2.0438,-2.0106,-1.9915,-1.9392,-1.9136,-1.9136,-1.9136,-1.9136,-1.9136,-1.9136,-1.9136,-1.9136,-1.9136,-1.9136,-1.9136,-1.9136,-1.9136,-1.9136,-1.9136,-1.9136,-1.9136,-1.9136,-1.9136,-1.9008,-1.8892,-1.8764,-1.8571,-1.8249,-1.7863,-1.7658,-1.7453,-1.7183,-1.6797,-1.6667,-1.6571,-1.6452,-1.6366,-1.6344,-1.6334,-1.6355,-1.6377,-1.6377,-2.6465,-2.6479,-2.6386,-2.64,-2.64,-2.64,-2.64,-2.64,-2.64,-2.64,-2.6373,-2.6119,-2.6197,-2.6186,-2.6012,-2.6039,-2.6092,-2.5932,-2.5905,-2.6132,-2.6172,-2.5905,-2.5504,-2.5464,-2.509,-2.4716,-2.4636,-2.4636,-2.4636,-2.4636,-2.4636,-2.4636,-2.4636,-2.4636,-2.4636,-2.4636,-2.4636,-2.4636,-2.4636,-2.4636,-2.4636,-2.4636,-2.4636,-2.4636,-2.4623,-2.4556,-2.4396,-2.4275,-2.4115,-2.3848,-2.3754,-2.3701,-2.3634,-2.3407,-2.33,-2.3193,-2.3046,-2.2859,-2.2859,-2.2859,-2.2859,-2.2859,-2.2859,-2.2859,-2.2859,-2.2859,-2.2859,-2.2859,-2.2592,-2.2338,-2.2058,-2.175,-2.1135,-2.0605,-2.0234,-1.9863,-1.9313,-1.9169,-1.9169,-1.9136,-1.9136,-1.9136,-1.9136,-1.9136,-1.9136,-1.9136,-1.9136,-1.9136,-1.9136,-1.9136,-1.9136,-1.9136,-1.9136,-1.9136,-1.9136,-1.9136,-1.8944,-1.8764,-1.8571,-1.8378,-1.798,-1.7658,-1.74,-1.7184,-1.699,-1.6915,-1.685,-1.6764,-1.6657,-1.6603,-1.656,-1.6571,-1.6592,-1.6603,-1.6614,-2.64,-2.64,-2.64,-2.64,-2.64,-2.64,-2.64,-2.64,-2.64,-2.64,-2.6373,-2.6266,-2.6279,-2.6319,-2.6092,-2.6119,-2.6266,-2.6092,-2.6119,-2.6333,-2.6346,-2.6066,-2.5625,-2.5478,-2.5197,-2.477,-2.4636,-2.4636,-2.4636,-2.4636,-2.4636,-2.4636,-2.4636,-2.4636,-2.4636,-2.4636,-2.4636,-2.4636,-2.4636,-2.4636,-2.4636,-2.4636,-2.4636,-2.4636,-2.4636,-2.4556,-2.4476,-2.4449,-2.4302,-2.4075,-2.4008,-2.3834,-2.3594,-2.338,-2.326,-2.3046,-2.2939,-2.2928,-2.2859,-2.2859,-2.2859,-2.2859,-2.2859,-2.2859,-2.2859,-2.2859,-2.2859,-2.2859,-2.2592,-2.2365,-2.2218,-2.1964,-2.1398,-2.0863,-2.0488,-1.9933,-1.956,-1.9419,-1.9289,-1.9169,-1.9148,-1.9197,-1.9145,-1.912,-1.9108,-1.9136,-1.9136,-1.9136,-1.9136,-1.9136,-1.9136,-1.9136,-1.9136,-1.9136,-1.9136,-1.9072,-1.888,-1.8699,-1.8302,-1.8109,-1.7723,-1.74,-1.7206,-1.7066,-1.698,-1.698,-1.7001,-1.6937,-1.6829,-1.6797,-1.6775,-1.6786,-1.6786,-1.6829,-1.6807,-2.64,-2.64,-2.64,-2.64,-2.64,-2.64,-2.64,-2.64,-2.64,-2.64,-2.64,-2.6386,-2.6386,-2.636,-2.6199,-2.6213,-2.636,-2.6159,-2.6199,-2.6333,-2.6319,-2.6039,-2.5678,-2.5464,-2.5211,-2.4576,-2.4636,-2.4636,-2.4636,-2.4636,-2.4636,-2.4636,-2.4636,-2.4636,-2.4636,-2.4636,-2.4636,-2.4636,-2.4636,-2.4636,-2.4636,-2.4636,-2.4636,-2.4636,-2.4636,-2.4636,-2.4636,-2.4623,-2.4476,-2.4369,-2.4195,-2.3981,-2.3701,-2.346,-2.3273,-2.3073,-2.2953,-2.2859,-2.2859,-2.2859,-2.2859,-2.2859,-2.2859,-2.2859,-2.2859,-2.2859,-2.2859,-2.2859,-2.2712,-2.2539,-2.2392,-2.2205,-2.1647,-2.1172,-2.0857,-2.0257,-1.9764,-1.9686,-1.9422,-1.9217,-1.9181,-1.9289,-1.9289,-1.9217,-1.9157,-1.9096,-1.9136,-1.9136,-1.9136,-1.9136,-1.9136,-1.9136,-1.9136,-1.9136,-1.9136,-1.9072,-1.8828,-1.8559,-1.8238,-1.784,-1.7464,-1.7206,-1.7066,-1.7001,-1.7001,-1.7001,-1.7001,-1.7001,-1.7001,-1.6937,-1.6894,-1.6947,-1.698,-1.7001,-1.698,-2.64,-2.64,-2.64,-2.64,-2.64,-2.64,-2.64,-2.64,-2.64,-2.64,-2.64,-2.64,-2.64,-2.6373,-2.6346,-2.6333,-2.6386,-2.636,-2.636,-2.6373,-2.6346,-2.6052,-2.5732,-2.5491,-2.5264,-2.4756,-2.4703,-2.469,-2.4636,-2.4636,-2.4636,-2.4636,-2.4636,-2.4636,-2.4636,-2.4636,-2.4636,-2.4636,-2.4636,-2.4636,-2.4636,-2.4636,-2.4636,-2.4636,-2.4636,-2.4636,-2.4636,-2.4636,-2.4609,-2.4543,-2.4369,-2.4209,-2.3968,-2.3661,-2.3434,-2.322,-2.3046,-2.2966,-2.2939,-2.2886,-2.2859,-2.2859,-2.2859,-2.2859,-2.2859,-2.2859,-2.2859,-2.2859,-2.2779,-2.2686,-2.2539,-2.2324,-2.183,-2.1376,-2.099,-2.0505,-2.0086,-1.9899,-1.9676,-1.9338,-1.9314,-1.947,-1.9507,-1.9458,-1.9314,-1.9241,-1.9148,-1.9136,-1.9136,-1.9136,-1.9136,-1.9136,-1.9136,-1.9136,-1.9136,-1.8944,-1.8764,-1.8366,-1.8045,-1.7582,-1.7195,-1.7066,-1.7001,-1.7001,-1.7001,-1.7001,-1.7001,-1.7001,-1.7001,-1.7001,-1.7001,-1.7001,-1.7001,-1.7001,-1.7001,-2.64,-2.64,-2.64,-2.64,-2.64,-2.64,-2.64,-2.64,-2.64,-2.64,-2.64,-2.64,-2.64,-2.64,-2.64,-2.64,-2.64,-2.6386,-2.64,-2.64,-2.6333,-2.6132,-2.5892,-2.5678,-2.5491,-2.5024,-2.4903,-2.4783,-2.4649,-2.4663,-2.4636,-2.4636,-2.4636,-2.4636,-2.4636,-2.4636,-2.4636,-2.4636,-2.4636,-2.4636,-2.4636,-2.4636,-2.4636,-2.4636,-2.4636,-2.4636,-2.4636,-2.4636,-2.4636,-2.4596,-2.4502,-2.4369,-2.4222,-2.3915,-2.3661,-2.3407,-2.3207,-2.3166,-2.31,-2.2993,-2.2873,-2.2859,-2.2859,-2.2859,-2.2859,-2.2859,-2.2859,-2.2859,-2.2859,-2.2697,-2.2739,-2.2481,-2.2102,-2.1548,-2.1094,-2.0687,-2.0343,-2.0141,-1.9929,-1.9603,-1.9627,-1.976,-1.976,-1.9724,-1.9555,-1.9386,-1.9217,-1.9096,-1.9145,-1.9185,-1.9197,-1.9172,-1.9172,-1.9136,-1.9136,-1.888,-1.8623,-1.8238,-1.784,-1.7453,-1.713,-1.7066,-1.7001,-1.7001,-1.7001,-1.7001,-1.7001,-1.7001,-1.7001,-1.7001,-1.7001,-1.7001,-1.7001,-1.7001,-1.7001,-2.64,-2.64,-2.64,-2.64,-2.64,-2.64,-2.64,-2.64,-2.64,-2.64,-2.64,-2.64,-2.64,-2.64,-2.64,-2.64,-2.64,-2.64,-2.64,-2.64,-2.636,-2.6213,-2.6052,-2.5879,-2.5665,-2.5291,-2.5184,-2.5077,-2.481,-2.4783,-2.4716,-2.4663,-2.4636,-2.4636,-2.4636,-2.4636,-2.4636,-2.4636,-2.4636,-2.4636,-2.4636,-2.4636,-2.4636,-2.4636,-2.4636,-2.4636,-2.4636,-2.4636,-2.4636,-2.4596,-2.4516,-2.4396,-2.4249,-2.4075,-2.3848,-2.3621,-2.346,-2.346,-2.338,-2.3193,-2.302,-2.3046,-2.2968,-2.2886,-2.2859,-2.2859,-2.2859,-2.2859,-2.2791,-2.2722,-2.2722,-2.234,-2.1915,-2.1414,-2.1289,-2.0903,-2.052,-2.0267,-2.0086,-1.9881,-2.0002,-2.0146,-2.0026,-1.9989,-1.9845,-1.9688,-1.9567,-1.9458,-1.9446,-1.9386,-1.9318,-1.9269,-1.9209,-1.9172,-1.9072,-1.8816,-1.8507,-1.8173,-1.7776,-1.74,-1.7141,-1.7066,-1.7001,-1.7001,-1.7001,-1.7001,-1.7001,-1.7001,-1.7001,-1.7001,-1.7001,-1.7001,-1.7001,-1.7001,-1.7001,-2.64,-2.64,-2.64,-2.64,-2.64,-2.64,-2.64,-2.64,-2.64,-2.64,-2.64,-2.64,-2.64,-2.64,-2.64,-2.64,-2.64,-2.64,-2.64,-2.64,-2.6386,-2.6213,-2.6092,-2.6037,-2.5865,-2.5598,-2.5491,-2.5358,-2.5077,-2.501,-2.489,-2.473,-2.4602,-2.4636,-2.4636,-2.4636,-2.4636,-2.4636,-2.4636,-2.4636,-2.4636,-2.4636,-2.4636,-2.4636,-2.4636,-2.4636,-2.4636,-2.4636,-2.4636,-2.4609,-2.4449,-2.4342,-2.4275,-2.4062,-2.3901,-2.3794,-2.3768,-2.3768,-2.3741,-2.3474,-2.3354,-2.322,-2.302,-2.2873,-2.2859,-2.2859,-2.2859,-2.2859,-2.2654,-2.2448,-2.2242,-2.2035,-2.1622,-2.1415,-2.1276,-2.1044,-2.0646,-2.046,-2.0291,-2.0195,-2.04,-2.0626,-2.0388,-2.0243,-2.0134,-2.0014,-1.9905,-1.9833,-1.9748,-1.9639,-1.9483,-1.9463,-1.939,-1.9294,-1.9193,-1.8787,-1.8442,-1.8045,-1.7723,-1.7335,-1.713,-1.7001,-1.7001,-1.7001,-1.7001,-1.7001,-1.7001,-1.7001,-1.7001,-1.7001,-1.7001,-1.7001,-1.7001,-1.7001,-1.7001,-2.64,-2.64,-2.64,-2.64,-2.64,-2.64,-2.64,-2.64,-2.64,-2.64,-2.64,-2.64,-2.64,-2.64,-2.64,-2.64,-2.64,-2.64,-2.64,-2.64,-2.64,-2.6346,-2.6253,-2.6186,-2.6079,-2.5879,-2.5785,-2.5651,-2.5371,-2.5251,-2.509,-2.493,-2.4743,-2.4636,-2.4636,-2.4636,-2.4636,-2.4636,-2.4636,-2.4636,-2.4636,-2.4636,-2.4636,-2.4636,-2.4636,-2.4636,-2.4636,-2.4636,-2.4636,-2.4636,-2.4462,-2.4462,-2.4462,-2.4302,-2.4235,-2.4115,-2.4062,-2.4062,-2.4048,-2.3915,-2.3714,-2.342,-2.3113,-2.2939,-2.2941,-2.2859,-2.2859,-2.2791,-2.2461,-2.231,-2.2242,-2.1691,-2.1346,-2.122,-2.1069,-2.0861,-2.0662,-2.0605,-2.0557,-2.0521,-2.0711,-2.0641,-2.0545,-2.046,-2.0364,-2.0255,-2.0158,-2.0002,-1.9905,-1.9857,-1.9748,-1.9652,-1.9633,-1.9487,-1.9261,-1.8836,-1.8406,-1.8037,-1.7616,-1.713,-1.7001,-1.7001,-1.7001,-1.7001,-1.7001,-1.7001,-1.7001,-1.7001,-1.7001,-1.7001,-1.7001,-1.7001,-1.7001,-1.7001,-1.7001,-2.6627,-2.6547,-2.6533,-2.648,-2.64,-2.64,-2.64,-2.64,-2.64,-2.64,-2.64,-2.64,-2.64,-2.64,-2.64,-2.64,-2.64,-2.64,-2.64,-2.64,-2.64,-2.6373,-2.6386,-2.6386,-2.6266,-2.6132,-2.6079,-2.5959,-2.5678,-2.5491,-2.5277,-2.5064,-2.4877,-2.4756,-2.469,-2.4636,-2.4636,-2.4636,-2.4636,-2.4636,-2.4636,-2.4636,-2.4636,-2.4636,-2.4636,-2.4636,-2.4636,-2.4636,-2.4636,-2.4636,-2.4636,-2.4636,-2.4636,-2.4609,-2.4543,-2.4396,-2.4356,-2.4356,-2.4356,-2.4195,-2.3968,-2.3714,-2.3354,-2.3207,-2.314,-2.3126,-2.299,-2.2812,-2.2444,-2.2117,-2.1897,-2.1276,-2.1081,-2.0943,-2.0943,-2.0723,-2.0723,-2.0665,-2.0665,-2.0665,-2.0665,-2.0665,-2.0665,-2.0653,-2.0581,-2.0484,-2.0388,-2.0231,-2.0098,-2.005,-2.0014,-1.9941,-1.9754,-1.961,-1.9316,-1.8862,-1.8419,-1.8063,-1.7564,-1.7163,-1.7001,-1.7001,-1.7001,-1.7001,-1.7001,-1.7001,-1.7001,-1.7001,-1.7001,-1.7001,-1.7001,-1.7001,-1.7001,-1.7001,-1.7001,-2.7081,-2.6841,-2.6814,-2.6627,-2.6413,-2.64,-2.64,-2.64,-2.64,-2.64,-2.64,-2.64,-2.64,-2.64,-2.64,-2.64,-2.64,-2.64,-2.64,-2.64,-2.64,-2.64,-2.64,-2.6386,-2.6346,-2.6373,-2.6319,-2.6172,-2.5972,-2.5745,-2.5478,-2.5184,-2.5037,-2.4863,-2.4716,-2.469,-2.4676,-2.4663,-2.4636,-2.4636,-2.4636,-2.4636,-2.4636,-2.4636,-2.4636,-2.4636,-2.4636,-2.4636,-2.4636,-2.4636,-2.4636,-2.4636,-2.4636,-2.4636,-2.4636,-2.4623,-2.4609,-2.4596,-2.4556,-2.4369,-2.4289,-2.4115,-2.3941,-2.3834,-2.3647,-2.3363,-2.3104,-2.2706,-2.2241,-2.1779,-2.1289,-2.1012,-2.0804,-2.0735,-2.0735,-2.0665,-2.0665,-2.0665,-2.0665,-2.0665,-2.0665,-2.0665,-2.0665,-2.0665,-2.0665,-2.0617,-2.0533,-2.0533,-2.04,-2.0327,-2.0291,-2.0243,-2.0043,-1.9673,-1.9311,-1.8907,-1.846,-1.8104,-1.7686,-1.7249,-1.7141,-1.7023,-1.7001,-1.7001,-1.7001,-1.7001,-1.7001,-1.7001,-1.7001,-1.7001,-1.7001,-1.7001,-1.7001,-1.7001,-1.7001,-2.6894,-2.68,-2.66,-2.6466,-2.64,-2.64,-2.64,-2.64,-2.64,-2.64,-2.64,-2.64,-2.64,-2.64,-2.64,-2.64,-2.64,-2.64,-2.64,-2.64,-2.64,-2.64,-2.64,-2.64,-2.64,-2.64,-2.6373,-2.6333,-2.6172,-2.5945,-2.5518,-2.513,-2.5144,-2.493,-2.4836,-2.4836,-2.477,-2.4602,-2.4636,-2.4636,-2.4636,-2.4636,-2.4636,-2.4636,-2.4636,-2.4636,-2.4636,-2.4636,-2.4636,-2.4636,-2.4636,-2.4636,-2.4636,-2.4636,-2.4636,-2.4636,-2.4623,-2.4623,-2.4623,-2.4556,-2.4489,-2.4476,-2.4382,-2.4115,-2.383,-2.3488,-2.3143,-2.2659,-2.2167,-2.1645,-2.1336,-2.102,-2.088,-2.081,-2.081,-2.0786,-2.0786,-2.0738,-2.0726,-2.0665,-2.0665,-2.0665,-2.0665,-2.0665,-2.0665,-2.0665,-2.0665,-2.0665,-2.0641,-2.0557,-2.0496,-2.046,-2.017,-1.9776,-1.9411,-1.8924,-1.8541,-1.8095,-1.7751,-1.7432,-1.727,-1.7163,-1.7055,-1.7001,-1.7001,-1.7001,-1.7001,-1.7001,-1.7001,-1.7001,-1.7001,-1.7001,-1.7001,-1.7001,-1.7001,-2.7028,-2.6814,-2.664,-2.6507,-2.64,-2.64,-2.64,-2.64,-2.64,-2.64,-2.64,-2.64,-2.64,-2.64,-2.64,-2.64,-2.64,-2.64,-2.64,-2.64,-2.64,-2.64,-2.64,-2.64,-2.64,-2.64,-2.64,-2.6373,-2.6266,-2.5985,-2.5571,-2.5478,-2.5344,-2.5077,-2.4957,-2.4957,-2.4877,-2.473,-2.4636,-2.4636,-2.4636,-2.4636,-2.4636,-2.4636,-2.4636,-2.4636,-2.4636,-2.4636,-2.4636,-2.4636,-2.4636,-2.4636,-2.4636,-2.4636,-2.4636,-2.4636,-2.4636,-2.4636,-2.4636,-2.4636,-2.4623,-2.4562,-2.4549,-2.4316,-2.3945,-2.3602,-2.3171,-2.2683,-2.2162,-2.1669,-2.1429,-2.1132,-2.1074,-2.1016,-2.105,-2.1026,-2.0965,-2.0917,-2.0774,-2.069,-2.0665,-2.0665,-2.0665,-2.0678,-2.0665,-2.0665,-2.0665,-2.0665,-2.0665,-2.0629,-2.0605,-2.0581,-2.0257,-1.9886,-1.9381,-1.8947,-1.8607,-1.8246,-1.7966,-1.769,-1.7475,-1.7292,-1.7173,-1.7077,-1.7001,-1.7001,-1.7001,-1.7001,-1.7001,-1.7001,-1.7001,-1.7001,-1.7001,-1.7001,-1.7001,-2.7295,-2.6814,-2.68,-2.66,-2.6413,-2.64,-2.64,-2.64,-2.64,-2.64,-2.64,-2.64,-2.64,-2.64,-2.64,-2.64,-2.64,-2.64,-2.64,-2.64,-2.64,-2.64,-2.64,-2.64,-2.64,-2.64,-2.64,-2.6386,-2.6306,-2.6066,-2.5865,-2.601,-2.5692,-2.5371,-2.5077,-2.513,-2.501,-2.4703,-2.469,-2.4716,-2.4649,-2.4636,-2.4636,-2.4636,-2.4636,-2.4636,-2.4636,-2.4636,-2.4636,-2.4636,-2.4636,-2.4636,-2.4636,-2.4636,-2.4636,-2.4636,-2.4636,-2.4636,-2.4562,-2.4488,-2.4488,-2.4488,-2.4475,-2.414,-2.3702,-2.3585,-2.3164,-2.2649,-2.2125,-2.1773,-2.1448,-2.1328,-2.1328,-2.1257,-2.1245,-2.1197,-2.1207,-2.1159,-2.1052,-2.0979,-2.0955,-2.0943,-2.0943,-2.0967,-2.0907,-2.0798,-2.0738,-2.075,-2.062,-2.062,-2.0551,-2.0551,-1.9993,-1.96,-1.938,-1.8966,-1.8666,-1.8324,-1.8147,-1.7938,-1.7701,-1.7486,-1.7292,-1.7141,-1.7001,-1.7001,-1.7001,-1.7001,-1.7001,-1.7001,-1.7001,-1.7001,-1.7001,-1.7001,-1.7001,-2.6947,-2.68,-2.6587,-2.6453,-2.64,-2.64,-2.64,-2.64,-2.64,-2.64,-2.64,-2.64,-2.64,-2.64,-2.64,-2.64,-2.64,-2.64,-2.64,-2.64,-2.64,-2.64,-2.64,-2.64,-2.64,-2.64,-2.64,-2.6386,-2.6333,-2.6132,-2.6037,-2.5959,-2.5825,-2.5598,-2.517,-2.5251,-2.5144,-2.4703,-2.4823,-2.481,-2.4703,-2.4649,-2.4636,-2.4636,-2.4636,-2.4636,-2.4636,-2.4636,-2.4636,-2.4636,-2.4636,-2.4636,-2.4636,-2.4636,-2.4636,-2.4636,-2.4636,-2.4636,-2.4488,-2.4341,-2.4267,-2.4044,-2.3896,-2.3525,-2.3339,-2.3375,-2.3199,-2.2595,-2.2166,-2.1813,-2.1655,-2.1547,-2.1523,-2.1523,-2.1523,-2.1462,-2.1462,-2.1354,-2.1317,-2.1293,-2.1257,-2.1245,-2.1233,-2.1209,-2.1219,-2.1147,-2.1074,-2.0861,-2.0437,-2.025,-2.018,-2.0029,-1.9564,-1.9181,-1.9133,-1.8912,-1.8578,-1.8374,-1.8207,-1.8056,-1.7906,-1.7647,-1.7389,-1.7152,-1.7001,-1.7023,-1.7033,-1.7001,-1.7001,-1.7001,-1.7001,-1.7001,-1.7001,-1.7001,-1.7001,-2.6747,-2.6613,-2.6453,-2.64,-2.64,-2.64,-2.64,-2.64,-2.64,-2.64,-2.64,-2.64,-2.64,-2.64,-2.64,-2.64,-2.64,-2.64,-2.64,-2.64,-2.64,-2.64,-2.64,-2.64,-2.64,-2.64,-2.64,-2.6373,-2.6346,-2.6146,-2.6063,-2.6079,-2.6026,-2.5758,-2.5344,-2.5398,-2.5237,-2.4616,-2.4957,-2.4983,-2.4836,-2.4836,-2.473,-2.4703,-2.4636,-2.4649,-2.4636,-2.4649,-2.473,-2.4783,-2.485,-2.473,-2.469,-2.4636,-2.4636,-2.4636,-2.4636,-2.4636,-2.4488,-2.4267,-2.397,-2.3822,-2.36,-2.3377,-2.3079,-2.3103,-2.2955,-2.2448,-2.2288,-2.2043,-2.2031,-2.1921,-2.1921,-2.1921,-2.1897,-2.1922,-2.1667,-2.151,-2.1462,-2.1402,-2.139,-2.1378,-2.1378,-2.1366,-2.1329,-2.1246,-2.1245,-2.1007,-2.0556,-1.9958,-1.9876,-1.9689,-1.9234,-1.9016,-1.9063,-1.8784,-1.8493,-1.8358,-1.8304,-1.8175,-1.8013,-1.7744,-1.7475,-1.7292,-1.7152,-1.7098,-1.7098,-1.7044,-1.7012,-1.7001,-1.7001,-1.7001,-1.7001,-1.7001,-1.7001,-2.6613,-2.64,-2.64,-2.64,-2.64,-2.64,-2.64,-2.64,-2.64,-2.64,-2.64,-2.64,-2.64,-2.64,-2.64,-2.64,-2.64,-2.64,-2.64,-2.64,-2.64,-2.64,-2.64,-2.64,-2.64,-2.64,-2.64,-2.6386,-2.6373,-2.6199,-2.6159,-2.6293,-2.6119,-2.5852,-2.5625,-2.5504,-2.5331,-2.501,-2.505,-2.5184,-2.5157,-2.513,-2.501,-2.485,-2.4743,-2.4682,-2.4756,-2.4796,-2.493,-2.501,-2.5117,-2.497,-2.4836,-2.4756,-2.4602,-2.4602,-2.4488,-2.4488,-2.4341,-2.397,-2.3822,-2.3674,-2.3451,-2.3154,-2.293,-2.2781,-2.2545,-2.2471,-2.2321,-2.2309,-2.2297,-2.2285,-2.2285,-2.2285,-2.2261,-2.2237,-2.1921,-2.1728,-2.1667,-2.1595,-2.1595,-2.1595,-2.1595,-2.1583,-2.1559,-2.1474,-2.1221,-2.0981,-2.0682,-2.0089,-1.9701,-1.9469,-1.9096,-1.9019,-1.8887,-1.8714,-1.8433,-1.8422,-1.8358,-1.8261,-1.8132,-1.7906,-1.769,-1.7486,-1.7367,-1.727,-1.7141,-1.7066,-1.7033,-1.7023,-1.7001,-1.7001,-1.7001,-1.7001,-1.7001,-2.644,-2.64,-2.6386,-2.6386,-2.6386,-2.6386,-2.64,-2.6386,-2.64,-2.64,-2.64,-2.64,-2.64,-2.64,-2.64,-2.64,-2.64,-2.64,-2.64,-2.64,-2.64,-2.64,-2.64,-2.64,-2.64,-2.64,-2.64,-2.6386,-2.6386,-2.6333,-2.6319,-2.6373,-2.6373,-2.6066,-2.5638,-2.5571,-2.5585,-2.5291,-2.5384,-2.5625,-2.5464,-2.5438,-2.5424,-2.5358,-2.5344,-2.5344,-2.5344,-2.5344,-2.5371,-2.5411,-2.5411,-2.5264,-2.5104,-2.4895,-2.4815,-2.4595,-2.4407,-2.4293,-2.4145,-2.3674,-2.3451,-2.3228,-2.293,-2.2632,-2.2483,-2.2483,-2.2408,-2.2408,-2.2334,-2.2334,-2.2321,-2.2321,-2.2321,-2.2321,-2.2309,-2.2297,-2.2114,-2.2078,-2.2054,-2.2029,-2.2029,-2.2029,-2.2029,-2.1993,-2.1921,-2.1738,-2.1361,-2.1094,-2.0589,-2.005,-1.9514,-1.926,-1.9079,-1.8709,-1.8557,-1.8584,-1.8433,-1.8433,-1.8412,-1.8326,-1.8229,-1.811,-1.7906,-1.7712,-1.754,-1.741,-1.7281,-1.7184,-1.7087,-1.7077,-1.7023,-1.7001,-1.7001,-1.7001,-1.7001]}]]